GFSSGP_con_mlcape_000.txt.gz
CAPE
0 0 0 0 0 0 0 0 0 0 0 0 0 0 0 0 0 0 0 0 0 0 0 34 183 293 365 496 390 166 142 261 19 0 0 0 0 0 0 0 0 1 4 22 46 15 5 23 8
0 0 0 0 0 0 2 0 0 0 0 0 0 0 0 0 0 0 0 0 0 0 0 0 166 304 430 315 228 156 245 240 112 0 4 0 1 0 0 0 0 5 6 31 51 50 10 82 59
0 0 0 0 0 0 0 0 0 0 0 0 0 0 0 0 0 0 0 0 0 0 0 0 0 377 523 594 450 276 170 30 151 113 61 56 30 16 0 0 1 11 17 57 80 115 38 14 109
0 0 0 0 1 0 0 0 0 0 0 0 0 0 0 0 0 0 0 0 0 0 0 0 0 32 935 878 720 634 279 128 73 83 59 51 69 65 16 1 4 4 11 68 112 64 81 22 179
0 0 0 0 0 0 0 0 0 0 0 0 0 0 0 0 0 0 0 0 0 0 0 0 0 0 393 425 469 490 284 165 52 71 65 49 52 44 54 32 16 17 9 12 25 124 85 78 170
0 0 0 0 6 1 0 0 0 0 0 0 0 0 0 0 0 0 0 0 0 0 0 0 0 12 88 369 356 220 114 74 25 31 32 31 9 34 46 57 47 42 15 8 1 53 114 57 78
0 0 0 0 0 0 0 0 0 0 0 0 0 0 0 0 0 0 0 0 0 0 0 0 0 0 0 0 0 0 0 0 0 0 0 19 3 21 67 63 70 46 37 29 3 0 176 25 49
0 0 0 0 1 2 0 0 0 0 0 0 0 0 0 0 0 0 0 0 0 0 0 0 0 0 0 0 0 0 0 0 0 3 8 28 13 0 56 80 52 46 96 53 4 0 133 112 15
0 0 0 0 1 3 2 0 0 0 0 0 0 0 0 0 0 0 0 0 0 0 0 0 0 0 0 0 0 0 0 0 1 2 5 5 14 22 84 69 61 65 23 48 33 4 147 167 73
0 0 0 0 0 0 0 0 0 0 0 0 0 0 0 0 0 0 0 0 0 0 0 0 0 0 0 0 4 12 13 3 3 3 4 9 15 42 21 27 34 92 95 58 53 39 156 191 97
0 0 0 0 0 0 0 0 0 0 0 0 0 0 0 0 0 0 0 0 0 0 0 0 0 0 0 0 6 9 13 8 5 4 14 3 11 99 71 22 12 35 36 54 49 2 53 109 165
0 0 0 0 0 0 0 0 0 0 0 0 0 0 0 0 0 0 0 0 0 0 0 0 0 0 0 3 9 12 16 9 5 12 4 32 68 109 100 71 24 45 88 52 117 48 128 173 258
0 0 0 0 0 0 0 0 0 0 0 0 0 0 0 0 0 0 0 0 0 0 0 0 0 0 2 11 14 9 13 15 9 10 9 108 72 119 42 17 32 40 94 103 150 68 134 207 248
0 0 0 0 0 0 0 0 0 0 0 0 0 0 0 0 0 0 0 0 0 0 0 0 0 5 10 10 11 18 48 34 9 4 9 140 173 127 139 25 26 35 62 119 137 147 104 286 181
0 0 0 0 0 0 0 0 0 0 0 0 0 0 0 0 0 0 0 0 0 0 0 0 0 9 14 19 40 48 81 90 75 72 96 111 196 204 191 115 16 36 101 228 253 239 276 254 216
0 0 0 0 0 0 0 0 0 0 0 0 0 0 0 0 0 0 0 0 0 0 0 0 0 6 9 22 60 78 74 151 182 189 194 185 257 328 326 297 287 304 408 352 216 245 207 183 178
0 0 0 0 0 0 0 0 0 0 0 0 0 0 0 0 0 0 0 0 0 0 0 0 0 0 6 5 39 51 90 137 167 134 108 171 301 398 371 403 355 355 376 369 330 212 184 213 201
0 0 0 0 0 0 0 0 0 0 0 0 0 0 0 0 0 0 0 0 0 0 0 0 0 0 0 18 39 33 49 158 107 40 1 80 185 275 423 432 381 334 250 333 387 360 249 233 309
0 0 0 0 0 0 0 0 0 0 0 0 0 0 0 0 0 0 0 0 0 0 0 0 0 0 0 9 55 34 52 29 78 13 7 1 48 169 338 361 382 257 243 285 401 407 333 386 381
0 0 0 0 0 0 0 0 0 0 0 0 0 0 0 0 0 0 0 0 0 0 0 0 0 0 0 4 63 55 87 37 0 3 7 4 1 137 232 317 290 222 197 344 358 377 353 418 561
0 0 0 0 0 0 0 0 0 0 0 0 0 0 0 0 0 0 0 0 0 0 0 0 0 0 0 58 56 141 210 58 108 21 44 30 32 44 122 117 126 208 176 277 473 435 539 488 620
0 0 0 0 0 0 0 0 0 0 0 0 0 0 0 0 0 0 0 0 0 0 0 0 0 0 0 26 19 52 132 64 93 166 116 62 41 15 110 132 167 280 222 506 550 600 522 485 505
0 0 0 0 0 0 0 0 0 0 0 0 0 0 0 0 0 0 0 0 0 0 0 0 0 0 22 27 1 5 57 191 167 153 141 150 179 111 102 115 196 297 432 517 534 609 538 580 309
0 0 0 0 0 0 0 0 0 0 0 0 0 13 3 0 0 0 0 0 0 0 0 0 0 0 0 15 13 4 3 38 49 81 66 55 153 223 153 84 88 285 451 495 484 544 682 701 567
0 0 0 0 0 0 0 0 0 0 0 0 0 0 2 0 0 0 0 0 0 0 0 0 0 0 0 0 0 0 2 33 49 78 46 61 28 133 110 88 121 199 367 497 481 502 708 626 146
0 0 0 0 0 0 0 0 0 0 0 6 51 111 14 0 0 0 0 0 0 0 0 0 0 0 0 0 0 0 0 0 13 163 48 0 35 17 55 45 110 134 258 354 497 492 519 362 164
0 0 0 0 0 0 0 0 0 0 0 37 96 53 0 0 0 0 0 0 0 0 0 0 0 0 0 0 0 0 0 0 14 361 199 100 65 61 73 95 28 235 297 151 380 486 472 307 64
0 0 0 0 0 0 0 0 0 8 39 282 165 48 0 0 0 0 0 0 0 0 0 0 0 0 0 0 0 0 0 0 2 77 40 72 72 17 1 34 224 202 286 401 405 361 411 225 125
0 0 0 0 0 0 0 1 0 0 102 314 368 85 0 0 0 0 0 0 0 0 0 0 0 0 0 0 0 0 0 0 0 0 20 32 2 16 29 11 6 17 82 85 485 315 116 94 23
0 0 0 0 0 0 0 0 0 2 241 403 515 111 0 0 0 0 0 0 0 0 0 0 0 0 0 0 0 0 0 0 0 0 11 40 93 53 29 19 10 0 0 10 254 339 275 206 124

GFSSGP_con_mlcape_003.txt.gz
CAPE
0 0 0 0 0 0 0 25 0 0 0 0 0 0 0 0 0 0 0 0 0 0 0 49 76 116 176 151 164 213 302 386 213 10 0 0 0 0 0 0 0 0 1 9 11 72 14 2 55
0 0 0 9 0 12 1 0 0 0 0 0 0 0 0 0 0 0 0 0 0 0 0 0 71 0 145 328 600 535 719 611 344 154 19 34 23 1 0 0 0 0 1 9 14 62 68 27 121
0 0 0 14 21 29 2 0 0 0 0 0 0 0 0 0 0 0 0 0 0 0 0 0 0 102 395 732 786 508 354 382 100 0 11 52 65 54 29 5 0 3 2 15 34 91 139 62 80
0 0 0 0 6 1 0 0 0 0 0 0 0 0 0 0 0 0 0 0 0 0 0 0 0 1 194 1240 1300 959 627 174 50 0 0 27 9 59 78 74 54 25 7 14 82 186 159 146 92
0 0 0 35 37 24 0 0 0 0 0 0 0 0 0 0 0 0 0 0 0 0 0 0 0 0 0 355 758 491 461 180 122 95 91 142 58 83 71 79 85 49 29 6 4 74 203 152 139
0 0 0 25 24 5 1 0 0 0 0 0 0 0 0 0 0 0 0 0 0 0 0 0 0 0 4 266 266 124 5 2 0 0 57 52 33 7 0 12 127 125 58 10 9 0 37 215 51
0 0 2 4 24 16 4 0 0 0 0 0 0 0 0 0 0 0 0 0 0 0 0 0 0 0 0 0 0 0 0 0 0 0 0 0 0 46 38 20 134 122 123 50 2 0 0 156 75
0 0 0 0 18 27 3 0 0 0 0 0 0 0 0 0 0 0 0 0 0 0 0 0 0 0 0 0 0 0 0 0 0 0 0 7 15 54 77 67 125 135 146 50 83 6 0 46 104
0 0 0 0 8 15 1 1 0 0 0 0 0 0 0 0 0 0 0 0 0 0 0 0 0 0 0 0 0 0 6 2 0 0 2 9 11 22 57 179 124 131 114 97 69 5 0 87 236
0 0 0 0 0 0 0 5 10 8 0 0 0 0 0 0 0 0 0 0 0 0 0 0 0 0 0 0 0 5 15 5 6 5 3 8 7 12 80 92 160 103 110 59 32 37 0 86 78
0 0 0 0 0 0 0 0 2 0 0 0 0 0 0 0 0 0 0 0 0 0 0 0 0 0 0 0 0 2 19 9 5 3 2 7 7 19 158 127 105 146 117 109 18 48 0 0 36
0 0 0 0 0 0 0 0 0 0 0 0 0 0 0 0 0 0 0 0 0 0 0 0 0 0 0 0 0 16 26 21 18 8 9 12 19 74 172 135 145 70 201 164 142 50 0 1 192
0 0 0 0 0 0 0 0 0 0 0 0 0 0 0 0 0 0 0 0 0 0 0 0 0 1 4 3 8 22 17 13 21 15 18 9 48 160 41 45 74 58 82 184 100 158 35 60 291
0 0 0 0 0 0 0 0 0 0 0 0 0 0 0 0 0 0 0 0 0 0 0 0 0 2 2 2 24 12 24 50 36 33 5 21 88 124 133 79 30 64 18 64 200 192 102 134 268
0 0 0 0 0 0 0 0 0 0 0 0 0 0 0 0 0 0 0 0 0 0 0 0 0 0 0 11 53 33 27 44 42 74 70 115 98 196 207 84 44 181 199 187 308 239 305 319 390
0 0 0 0 0 0 0 0 0 0 0 0 0 0 0 0 0 0 0 0 0 0 0 0 0 0 1 14 19 34 36 112 102 93 6 66 135 184 322 185 106 60 256 294 334 175 218 343 352
0 0 0 1 4 0 0 0 0 1 0 0 0 0 0 0 0 0 0 0 0 0 0 0 0 0 0 18 65 77 149 246 206 7 3 1 157 153 300 462 375 336 369 403 333 275 226 336 276
0 2 6 1 39 13 2 0 1 0 0 0 0 0 0 0 0 0 0 0 0 0 0 0 0 2 5 18 38 249 287 285 146 16 0 0 44 145 268 482 536 435 490 523 594 254 239 377 219
0 1 12 20 36 26 19 0 0 11 0 0 0 0 0 0 0 0 0 0 0 0 0 0 0 2 0 10 35 64 267 35 47 54 11 30 0 50 192 496 460 525 429 491 628 404 263 277 344
0 0 0 0 12 30 10 0 0 0 0 0 0 0 0 0 0 0 0 0 0 0 0 0 0 0 0 5 111 230 231 131 22 121 103 42 56 94 189 360 257 267 446 476 611 585 348 580 473
0 0 0 0 19 21 2 0 0 0 0 0 0 0 0 0 0 0 0 0 0 0 0 0 0 0 0 182 89 206 414 381 393 265 117 111 43 80 182 237 169 196 221 381 545 697 565 604 741
0 0 0 0 2 1 2 0 0 0 0 0 0 0 0 17 1 0 0 0 0 0 0 0 0 0 34 17 3 87 351 361 336 357 273 180 104 109 103 162 193 184 128 265 422 622 641 609 585
0 0 0 0 0 0 0 0 0 0 1 0 0 0 2 33 1 0 0 0 0 0 0 0 0 0 100 8 6 58 101 185 453 428 271 223 192 97 101 116 162 161 278 519 728 810 817 487 471
0 0 0 0 0 0 0 0 0 0 0 0 0 1 63 45 0 0 0 0 0 0 0 0 0 0 8 11 2 56 88 212 285 45 16 111 197 115 155 145 234 378 557 520 608 816 699 586 618
0 0 0 0 0 0 1 0 0 0 0 0 0 40 110 43 0 0 0 0 0 0 0 0 0 0 0 0 0 2 29 45 252 190 60 77 113 34 160 200 269 385 540 593 681 678 635 674 309
0 0 0 0 1 13 5 0 0 0 0 0 0 62 194 43 0 0 0 0 0 0 0 0 0 0 0 0 0 0 1 123 213 2 0 4 30 87 180 179 258 372 428 469 611 633 505 501 162
0 0 0 0 0 0 15 2 0 0 0 1 10 231 258 40 0 0 0 0 0 0 0 0 0 0 0 0 0 0 3 205 101 95 20 43 128 110 167 164 286 290 327 396 532 450 383 400 317
0 0 0 0 0 0 6 6 14 0 27 226 251 285 196 3 0 0 0 0 0 0 0 0 0 0 0 0 0 0 1 116 165 54 97 188 38 140 130 237 233 286 316 399 568 547 341 119 83
0 0 0 0 0 0 11 8 3 0 53 312 293 274 58 0 0 0 0 0 0 0 0 0 0 0 0 0 0 0 1 1 3 75 169 37 89 36 264 231 234 206 353 481 531 525 347 128 4
0 0 0 0 0 0 7 68 0 0 48 182 257 187 1 0 0 0 0 0 0 0 0 0 0 0 0 0 0 0 0 0 0 87 330 218 131 6 12 84 196 187 281 364 409 344 245 86 13

GFSSGP_con_mlcape_006.txt.gz
CAPE
0 0 0 0 0 0 0 1 0 0 0 0 0 0 0 0 0 0 0 0 0 34 261 36 0 0 0 0 0 2 38 192 223 99 32 0 0 0 0 0 0 0 0 0 1 3 22 3 0
0 0 0 0 17 10 8 0 0 0 0 0 0 0 0 0 0 0 0 0 0 0 105 298 0 0 0 43 222 303 510 537 458 269 185 19 1 1 0 0 0 0 0 2 2 2 2 1 2
0 0 0 5 7 10 1 0 0 0 0 0 0 0 0 0 0 0 0 0 0 0 0 121 70 0 0 209 664 926 919 717 442 50 27 21 84 81 68 57 44 19 4 6 9 10 2 42 19
41 0 0 0 0 4 20 0 0 0 0 0 0 0 0 0 0 0 0 0 0 0 0 70 0 7 136 653 1187 1214 1021 737 281 0 0 1 39 54 52 58 83 91 59 24 7 12 35 101 183
14 0 2 23 11 6 0 1 0 0 0 0 0 0 0 0 0 0 0 0 0 0 0 0 0 0 0 7 592 817 647 310 174 30 49 70 96 77 56 101 100 65 83 62 6 6 48 182 166
1 6 5 4 26 9 2 0 0 0 0 0 0 0 0 0 0 0 0 0 0 0 0 0 0 0 0 0 0 46 13 0 0 0 0 1 24 26 11 20 0 2 109 141 31 5 0 8 235
0 18 20 21 14 3 1 3 0 0 0 0 0 0 0 0 0 0 0 0 0 0 0 0 0 0 0 0 0 0 0 0 0 0 0 0 1 0 0 2 60 118 206 196 101 3 0 0 95
0 0 0 8 14 16 27 0 0 0 0 0 0 0 0 0 0 0 0 0 0 0 0 0 0 0 0 0 0 0 0 0 0 0 0 1 2 0 0 10 109 184 362 294 202 59 0 0 26
0 0 0 12 18 5 0 0 1 0 0 0 0 0 0 0 0 0 0 0 0 0 0 0 0 0 0 0 0 0 0 2 0 1 0 5 5 3 6 23 192 185 371 330 184 43 84 7 44
0 0 0 13 5 0 0 0 0 0 0 0 0 0 0 0 0 0 0 0 0 0 0 0 0 0 0 0 0 0 1 8 0 0 0 0 3 2 3 16 85 268 296 289 216 179 102 8 23
0 0 0 1 7 0 0 0 0 0 0 0 0 0 0 0 0 0 0 0 0 0 0 0 0 0 0 0 0 0 5 7 0 0 0 0 0 0 0 6 97 170 273 251 226 112 92 13 0
0 0 1 0 0 0 0 0 0 0 0 0 0 0 0 0 0 0 0 0 0 0 0 0 0 0 1 5 0 0 17 0 0 0 0 0 3 2 10 39 23 58 202 161 140 97 74 11 0
7 5 4 2 0 0 0 0 0 0 0 0 0 0 0 0 0 0 0 0 0 0 0 0 0 2 58 24 2 6 0 0 4 5 21 0 0 15 2 1 6 48 130 123 125 124 67 18 0
0 15 2 0 0 0 0 0 0 0 0 0 0 0 0 0 0 0 0 0 0 0 0 0 0 14 12 0 0 19 19 9 20 15 21 34 22 0 5 3 0 51 40 112 141 244 121 89 53
0 0 0 0 0 0 0 0 0 0 0 0 0 0 0 0 0 0 0 0 0 0 0 0 0 0 0 0 33 12 32 10 10 16 25 22 53 25 117 50 4 1 23 18 90 145 160 156 202
0 0 0 0 0 0 2 0 0 0 0 0 0 0 0 0 0 0 0 0 0 0 0 0 0 0 0 16 40 5 11 103 80 64 13 1 1 62 136 71 40 3 23 8 95 132 197 268 97
0 0 0 0 0 0 4 0 0 0 6 12 0 0 0 0 0 0 0 0 0 0 0 0 0 0 7 23 22 23 175 260 120 90 1 4 0 84 124 88 171 75 21 39 169 146 171 264 189
0 0 0 0 0 2 3 0 1 5 8 27 43 0 0 0 0 0 0 0 0 0 0 0 0 5 70 7 48 23 362 514 282 44 6 0 0 50 133 108 112 242 21 71 74 147 230 261 224
0 0 0 9 3 8 2 30 30 16 0 28 46 31 1 0 0 0 0 0 0 0 0 35 3 21 2 0 31 102 65 25 46 26 45 10 2 0 74 106 121 180 103 36 160 155 133 252 154
0 0 0 0 11 5 0 13 11 7 1 0 0 0 0 0 0 0 0 2 0 0 0 22 32 7 2 73 169 321 378 288 182 138 81 45 35 27 78 107 129 166 127 163 179 136 100 79 167
0 0 0 3 9 16 8 3 2 0 11 9 11 0 0 13 7 8 13 16 0 0 0 24 11 3 71 305 136 171 203 243 442 182 111 57 39 58 79 246 113 80 360 278 249 166 91 202 146
0 0 1 12 4 4 1 0 1 0 0 0 0 0 0 54 45 24 25 29 0 0 0 3 7 8 150 28 78 70 144 114 122 196 182 84 61 61 86 149 139 190 252 153 98 219 20 125 145
0 0 9 9 1 0 0 0 0 0 0 9 0 0 0 52 67 35 64 37 0 0 0 0 5 17 221 141 120 215 293 98 139 40 174 41 16 77 91 115 181 122 81 149 240 172 157 246 131
0 0 7 1 0 0 0 0 0 0 0 0 0 0 0 66 103 68 68 15 0 0 0 16 61 1 135 187 17 167 114 125 120 20 66 66 69 36 85 108 142 150 111 388 612 326 262 368 344
0 4 0 0 0 0 0 0 0 0 0 0 0 40 73 121 105 70 34 16 0 0 0 5 45 0 0 12 4 58 60 11 109 18 16 35 80 66 49 138 253 471 295 468 540 380 160 254 623
0 0 0 0 0 0 6 0 3 0 0 0 0 35 165 119 81 50 33 1 0 0 0 0 7 0 0 0 0 1 72 0 1 0 2 23 95 120 147 227 302 345 473 373 412 241 364 429 342
0 0 0 0 0 0 0 6 0 0 0 0 0 95 240 118 53 39 22 0 0 0 0 0 0 0 0 0 0 0 162 17 37 52 0 14 110 134 189 226 318 386 397 256 256 272 331 515 218
0 0 0 0 0 0 0 0 22 0 0 22 92 237 352 124 26 12 1 0 0 0 0 0 0 0 0 0 1 0 108 221 124 232 145 18 123 188 128 209 249 350 382 332 475 491 412 246 0
0 0 0 0 0 0 0 0 34 0 130 253 134 335 299 69 1 0 0 0 0 0 0 0 0 0 0 0 0 2 83 67 139 164 108 2 53 194 152 80 317 243 315 213 361 314 222 124 1
0 0 0 0 0 0 0 14 0 0 15 213 181 276 103 0 0 0 0 0 0 0 0 0 0 0 0 0 0 0 12 75 139 101 112 14 6 158 233 259 212 250 370 404 107 39 22 9 5

GFSSGP_con_mlcape_009.txt.gz
CAPE
0 0 0 0 0 0 0 0 2 0 0 0 0 0 0 0 0 0 0 0 0 0 0 0 0 0 0 0 0 8 2 0 10 44 23 0 0 0 0 0 0 0 0 0 0 0 0 1 5
0 0 0 0 0 0 0 0 0 0 0 0 0 0 0 0 0 0 0 0 0 0 2 0 0 0 0 0 0 20 118 194 248 262 228 77 1 0 0 0 8 1 1 3 1 0 0 0 0
0 0 0 2 16 0 15 0 0 0 0 0 0 0 0 0 0 0 0 0 0 0 0 87 111 1 0 0 58 232 415 352 281 307 70 1 3 7 38 47 67 66 37 10 10 1 1 0 0
0 1 3 0 0 0 0 1 0 0 0 0 0 0 0 0 0 0 0 0 0 0 25 279 189 49 164 536 851 899 837 547 294 315 10 4 5 24 51 12 14 24 62 55 28 3 1 3 14
0 0 0 7 6 5 0 1 0 0 0 0 0 0 0 0 0 0 0 0 0 0 19 125 21 133 361 510 677 820 840 585 302 174 71 27 35 24 84 81 31 15 67 60 77 14 3 6 33
0 0 0 0 0 7 0 1 0 0 0 0 0 0 0 0 0 0 0 0 0 0 0 0 0 0 0 0 0 0 7 38 19 0 0 0 1 3 15 14 4 2 0 4 94 105 0 1 11
0 0 0 0 0 0 0 1 0 0 0 0 0 0 0 0 0 0 0 0 0 0 0 0 0 0 0 0 0 0 0 0 0 0 0 0 0 0 0 1 5 10 10 2 100 216 34 0 0
0 0 0 0 0 0 1 0 0 0 0 0 0 0 0 0 0 0 0 0 0 0 0 0 0 0 0 0 0 0 0 0 0 0 0 0 2 1 0 0 0 9 13 77 327 334 123 1 4
0 0 0 0 0 0 0 0 0 0 0 0 0 0 0 0 0 0 0 0 0 0 0 0 0 0 0 0 0 0 0 0 0 0 0 0 0 0 0 0 10 49 132 145 439 405 296 100 19
3 0 0 0 0 0 0 0 0 0 0 0 0 0 0 0 0 0 0 0 0 0 0 0 0 0 0 0 0 0 0 7 0 0 0 0 0 0 0 0 9 47 218 327 398 440 350 184 31
9 0 0 0 0 0 0 0 0 0 0 0 0 0 0 0 0 0 0 0 0 0 0 0 0 0 0 0 0 0 0 0 0 0 0 0 0 0 0 0 0 1 33 133 354 388 388 261 25
11 0 0 0 0 0 0 0 0 0 0 0 0 0 0 0 0 0 0 0 0 0 0 0 0 0 0 0 0 0 0 0 0 0 0 0 0 0 0 0 0 0 0 127 225 251 254 160 26
5 0 0 0 0 0 0 0 0 0 0 0 0 0 0 0 0 0 0 0 0 0 0 0 0 0 11 6 0 0 0 0 0 0 0 0 0 0 4 4 0 0 0 33 153 230 162 50 15
0 1 0 0 2 0 0 0 0 0 0 0 0 0 0 0 0 0 0 0 0 0 0 0 0 9 5 0 0 0 0 0 0 0 4 0 6 7 0 0 0 0 0 30 77 111 136 85 26
0 0 0 0 0 0 0 0 0 0 0 0 0 0 0 0 0 0 0 0 0 0 0 0 0 0 0 0 0 0 0 0 0 3 6 6 25 6 0 5 0 1 0 5 86 114 94 53 45
0 0 0 0 0 0 0 0 0 0 0 0 0 0 0 0 0 0 0 0 0 0 0 0 0 0 0 0 0 0 1 1 8 17 6 6 23 8 0 21 15 9 0 1 33 73 113 133 142
0 0 0 0 0 0 0 0 0 0 0 0 0 4 0 0 0 0 0 0 0 0 0 0 0 0 0 1 0 0 0 50 115 12 0 0 0 0 0 25 30 39 0 0 0 3 41 95 70
0 0 0 0 0 0 0 0 0 0 0 0 0 2 0 0 0 0 0 0 0 0 0 0 0 0 15 0 2 1 20 192 147 23 0 0 0 0 0 69 39 22 0 0 0 12 55 134 119
0 0 0 0 0 0 0 0 0 0 0 0 14 5 1 7 0 0 0 0 0 0 0 0 0 0 0 0 17 0 24 0 17 32 1 0 0 0 0 67 55 28 0 7 16 22 86 133 78
0 0 0 0 0 0 0 0 3 12 10 16 3 0 0 0 0 0 0 0 0 0 0 23 2 0 0 8 162 80 136 96 59 53 42 11 2 1 0 30 54 38 8 8 44 68 115 45 94
0 0 0 0 0 0 0 0 0 0 9 0 0 0 0 0 0 0 0 0 0 0 0 20 10 0 0 111 123 19 20 31 22 38 21 11 12 14 11 51 49 50 69 8 49 56 54 54 123
0 0 0 0 0 0 0 0 0 0 0 0 0 0 0 0 0 0 1 0 0 0 0 2 0 0 10 6 0 31 43 7 21 28 31 26 31 18 23 41 40 47 46 53 112 84 59 43 93
0 0 0 0 0 0 0 0 0 0 0 0 0 0 0 0 0 0 14 0 0 0 0 0 0 0 80 75 4 120 26 30 22 3 7 0 9 50 32 103 95 51 135 74 122 2 60 3 79
0 0 0 0 0 0 0 0 0 0 0 0 0 0 0 0 0 2 5 0 0 0 0 0 0 0 80 166 11 0 0 2 4 0 1 8 23 38 54 60 143 52 113 124 151 2 45 0 60
0 0 0 0 0 0 0 0 0 0 0 0 0 0 0 0 0 0 9 0 0 0 0 0 12 0 0 2 0 0 0 0 0 0 0 8 24 17 12 66 139 91 69 211 135 85 58 25 120
0 0 0 0 0 0 0 0 0 0 0 0 0 1 3 4 0 0 1 0 0 0 0 0 3 0 0 0 0 0 0 0 0 0 0 40 36 9 28 65 102 114 153 247 110 76 133 145 193
0 0 0 0 0 0 0 0 0 0 0 0 0 22 1 1 0 0 0 0 0 0 0 0 0 0 0 0 0 0 2 8 13 3 10 43 40 93 183 192 203 195 233 180 140 188 163 220 165
0 0 1 0 0 0 0 0 0 0 0 0 3 27 1 0 0 0 0 0 0 0 0 0 0 0 0 0 0 9 58 51 77 79 12 21 53 89 166 250 273 257 220 184 190 216 172 136 94
0 0 1 0 0 0 0 0 0 0 0 3 63 77 18 0 0 0 0 0 0 0 0 0 0 0 0 0 0 4 31 63 88 27 0 18 65 53 121 185 238 206 278 166 118 101 60 14 0
0 0 0 0 0 0 0 0 0 69 28 52 141 130 31 0 0 0 0 0 0 0 0 0 0 0 0 0 0 2 10 52 29 31 0 26 44 103 119 145 173 202 185 133 117 50 28 10 0

GFSSGP_con_mlcape_012.txt.gz
CAPE
0 0 0 0 0 0 0 0 0 0 0 0 0 0 0 0 0 0 0 0 0 0 0 25 0 0 0 0 0 0 0 0 0 0 0 0 0 0 0 0 0 0 0 0 0 0 0 0 5
0 0 0 0 0 0 0 0 1 0 0 0 0 0 0 0 0 0 0 0 0 0 0 0 1 0 0 0 52 120 64 46 57 103 58 142 37 4 0 0 0 0 1 5 3 0 0 0 0
0 0 0 0 10 0 0 0 0 0 0 0 0 0 0 0 0 0 0 0 0 0 0 0 36 26 19 1 190 204 182 199 235 365 225 216 51 23 15 0 1 4 13 11 3 7 2 0 0
0 0 0 0 0 0 0 0 0 0 0 0 0 0 0 0 0 0 0 0 0 0 0 2 162 138 175 186 232 243 296 473 769 624 376 94 5 8 13 61 52 11 7 8 9 13 1 3 1
0 0 0 0 0 4 0 0 0 0 0 0 0 0 0 0 0 0 0 0 0 0 3 111 316 216 148 250 393 541 730 1027 814 509 370 107 32 39 45 35 17 18 16 14 69 57 70 3 2
0 0 0 0 0 0 0 0 0 0 0 0 0 0 0 0 0 0 0 0 0 9 167 428 217 18 4 141 388 264 351 258 296 259 148 99 56 76 72 68 46 4 8 43 69 57 92 32 43
0 0 0 0 0 0 0 0 0 0 0 0 0 0 0 0 0 0 0 0 0 20 50 20 9 14 20 5 0 9 1 0 0 0 0 0 0 0 1 4 7 8 15 29 47 39 105 124 39
0 0 0 0 0 0 0 0 0 0 0 0 0 0 0 0 0 0 0 0 0 0 0 0 0 0 0 0 0 0 0 0 0 0 0 0 0 0 0 5 8 15 6 12 20 54 126 148 75
0 0 0 0 0 0 0 0 0 0 0 0 0 0 0 0 0 0 0 0 0 0 0 0 0 0 0 0 0 0 0 0 0 0 0 0 0 0 0 0 2 19 67 27 9 64 171 204 136
0 0 0 0 0 0 0 0 0 0 0 0 0 0 0 0 0 0 0 0 0 0 0 0 0 0 0 0 0 0 0 0 0 0 0 0 0 0 0 0 0 3 4 99 152 234 346 423 96
0 0 0 0 0 0 0 0 0 0 0 0 0 0 0 0 0 0 0 0 0 0 0 0 0 0 0 0 0 0 0 0 0 0 0 0 0 0 0 0 0 0 0 0 58 210 437 319 168
0 0 0 0 0 0 0 0 0 0 0 0 0 0 0 0 0 0 0 0 0 0 0 0 0 0 0 0 0 0 0 0 0 0 0 0 0 0 0 0 0 1 0 0 5 115 246 245 275
0 0 0 0 0 0 0 0 0 0 0 0 0 0 0 0 0 0 0 0 0 0 0 0 0 0 0 0 0 0 0 0 0 0 0 0 0 0 1 2 3 0 0 0 0 84 196 287 212
0 0 0 0 0 0 0 0 0 0 0 0 0 0 0 0 0 0 0 0 0 0 0 0 0 0 0 0 0 0 0 0 0 0 0 0 0 0 10 0 0 0 0 0 6 56 173 186 119
0 0 0 0 0 0 0 0 0 0 0 0 0 0 0 0 0 0 0 0 0 0 0 0 0 0 0 0 0 0 0 0 0 0 0 0 0 5 20 0 0 0 0 0 0 16 109 148 121
0 0 0 0 0 0 0 0 0 0 0 0 0 0 0 0 0 0 0 0 0 0 0 0 4 0 0 0 0 0 0 0 0 0 0 0 0 0 2 0 0 0 0 0 0 33 99 91 78
0 0 0 0 0 0 0 0 0 0 0 0 0 0 0 0 0 0 0 0 0 0 0 0 0 0 0 0 0 0 0 0 8 27 0 0 0 0 0 0 0 1 0 0 0 34 86 119 96
0 0 0 0 0 0 0 0 0 0 0 0 0 0 0 0 0 0 0 0 0 0 0 0 0 1 1 0 0 0 0 8 42 34 3 0 0 0 0 0 4 3 0 0 0 0 27 66 31
0 0 0 0 0 0 0 0 0 0 0 0 0 0 0 0 0 0 0 0 0 0 0 0 0 0 0 0 4 0 0 0 8 19 15 5 0 0 0 0 12 8 0 0 0 0 0 8 29
0 0 0 0 0 0 0 0 0 0 0 0 0 0 0 0 0 0 0 0 0 0 0 0 0 0 0 0 50 8 5 4 2 16 39 17 13 11 0 0 7 0 0 0 0 9 13 24 33
0 0 0 0 0 0 0 0 0 0 0 0 0 0 0 0 0 1 0 0 0 0 0 0 0 0 0 18 2 0 0 11 6 19 14 16 25 8 0 1 9 0 0 0 3 0 30 37 52
0 0 0 0 0 0 0 0 0 0 0 0 0 0 0 0 0 0 0 0 0 0 0 0 0 0 4 0 0 0 4 1 3 3 6 10 21 11 20 32 4 0 7 0 1 33 16 47 65
0 0 0 0 0 0 0 0 0 0 0 0 0 0 0 0 0 0 0 0 0 0 0 0 0 1 28 6 0 0 0 0 0 0 0 0 17 37 42 10 9 0 11 10 25 6 0 26 42
0 0 0 0 0 0 0 0 0 0 0 0 0 0 0 0 0 0 0 0 0 0 0 0 0 0 15 12 0 0 0 0 0 0 3 15 21 26 23 56 5 19 28 41 0 6 16 18 71
0 0 0 0 0 0 0 0 0 0 0 0 0 0 0 0 0 0 0 0 0 0 0 0 0 0 0 0 0 0 0 0 0 0 0 9 8 3 0 35 40 12 59 41 8 1 4 0 30
0 0 0 0 0 0 0 0 0 0 0 0 0 0 0 0 0 0 0 0 0 0 0 0 0 0 0 0 0 0 0 0 0 0 9 0 0 0 0 4 28 9 72 94 56 5 24 0 4
0 0 0 0 0 0 0 0 0 0 0 0 0 0 0 0 0 0 0 0 0 0 0 0 0 0 0 0 0 0 0 0 6 2 3 0 0 3 3 0 16 89 130 48 47 53 66 23 9
0 0 0 0 0 0 0 0 0 0 0 0 0 0 0 0 0 0 0 0 0 0 0 0 0 0 0 0 0 0 0 22 38 10 0 7 32 72 77 60 29 31 103 114 68 67 41 40 39
0 0 0 0 0 0 0 0 0 0 0 0 0 0 0 0 0 0 0 0 0 0 0 0 0 0 0 0 0 0 0 34 0 0 1 32 34 85 70 98 97 125 118 105 43 19 54 39 8
0 0 0 0 0 0 0 0 0 0 0 0 0 0 0 0 0 0 0 0 0 0 0 0 0 0 0 0 0 0 0 0 0 0 0 11 21 73 71 120 95 102 68 57 64 45 8 1 1

GFSSGP_con_mlcape_015.txt.gz
CAPE
0 0 0 0 0 0 0 0 0 0 0 0 0 0 0 0 0 0 0 2 0 0 0 52 28 0 0 0 0 0 0 0 0 0 0 0 0 0 0 0 0 0 0 0 0 0 0 0 0
0 0 0 0 0 0 0 0 5 0 0 0 0 0 0 0 0 0 0 6 0 0 0 0 0 0 0 0 0 0 0 0 0 0 0 4 9 0 0 0 1 2 5 5 7 0 0 0 0
0 0 0 0 0 0 0 0 0 0 0 0 0 0 0 0 0 0 0 0 0 0 0 0 0 0 0 23 35 46 79 46 94 102 152 141 252 80 51 0 0 7 17 15 9 5 5 1 2
0 0 0 0 0 0 11 1 0 0 0 0 0 0 0 0 0 0 0 0 0 0 0 0 39 38 165 224 194 181 248 296 335 408 544 369 220 57 35 64 74 68 37 18 22 19 40 12 1
0 0 6 0 0 0 0 0 0 0 0 0 0 0 0 0 0 0 0 0 0 0 0 13 133 247 330 336 251 176 209 149 550 756 690 428 207 97 69 55 55 65 40 20 23 28 44 64 10
0 0 0 0 0 0 0 0 0 0 0 0 0 0 0 0 0 0 0 0 0 0 0 31 324 351 391 359 350 337 246 357 829 834 610 194 80 20 83 83 55 35 27 42 28 31 57 41 59
0 0 0 0 0 0 0 0 0 0 0 0 0 0 0 0 0 0 0 0 0 0 27 104 423 480 448 366 270 409 528 585 448 404 173 3 0 0 0 0 5 10 23 32 54 70 48 46 79
0 0 0 0 0 0 0 0 0 0 0 0 0 0 0 0 0 0 0 0 0 34 130 300 358 363 303 273 698 524 193 109 76 5 0 0 0 0 0 6 4 7 12 18 19 16 52 92 86
0 0 0 0 0 0 0 0 0 0 0 0 0 0 0 0 0 0 0 0 0 17 106 185 64 47 84 138 148 148 98 101 0 0 0 0 0 0 0 0 0 2 12 34 23 2 64 77 113
0 0 0 0 0 0 0 0 0 0 0 0 0 0 0 0 0 0 0 0 0 0 0 0 5 2 8 0 0 1 0 0 0 0 0 0 0 0 0 0 1 5 12 27 43 76 71 121 126
0 0 0 0 0 0 0 0 0 0 0 0 0 0 0 0 0 0 0 0 0 0 0 0 0 0 0 0 0 0 0 0 0 0 0 0 0 0 0 0 0 0 0 0 0 0 97 173 142
0 0 0 0 0 0 0 0 0 0 0 0 0 0 0 0 0 0 0 0 0 0 0 0 0 0 0 0 0 0 0 0 0 0 0 0 0 0 0 0 0 0 0 0 0 0 52 250 241
0 0 0 0 0 0 0 0 0 0 0 0 0 0 0 0 0 0 0 0 0 0 0 0 0 0 0 0 0 0 0 0 0 0 0 0 0 0 0 0 0 6 1 0 0 0 2 89 161
0 0 0 0 0 0 0 0 0 0 0 0 0 0 0 0 0 0 0 0 0 0 0 0 0 0 0 0 0 0 0 0 0 0 0 0 0 0 0 2 0 0 0 0 0 0 6 76 72
0 0 0 0 0 0 0 0 0 0 0 0 0 0 0 0 0 0 0 0 0 0 0 0 0 0 0 0 0 0 0 0 0 0 0 0 0 0 0 0 2 0 0 0 0 0 0 60 29
0 0 0 0 0 0 0 0 0 0 0 0 0 0 0 0 0 0 0 0 0 0 0 0 0 0 0 0 0 0 0 0 0 0 0 0 0 0 0 0 0 0 0 0 0 0 0 44 70
0 0 0 0 0 0 0 0 0 0 0 0 0 0 0 0 0 0 0 0 0 0 0 0 0 0 0 0 0 0 0 0 0 0 0 0 0 0 0 0 0 0 0 0 0 0 2 48 57
0 0 0 0 0 0 0 0 0 0 0 0 0 0 0 0 0 0 0 0 0 0 0 0 0 0 0 0 0 0 0 0 0 0 2 3 0 0 0 0 0 0 0 0 0 0 36 97 94
0 0 0 0 0 0 0 0 0 0 0 0 0 0 0 0 0 0 0 0 0 0 0 0 0 0 0 0 0 0 0 0 0 0 0 8 0 0 0 0 0 0 0 0 0 0 1 18 20
0 0 0 0 0 0 0 0 0 0 0 0 0 0 0 0 0 0 0 0 0 0 0 0 0 0 0 0 5 0 0 0 0 0 6 18 12 7 2 0 2 1 0 0 0 0 1 0 6
0 0 0 0 0 0 0 0 0 0 0 0 0 0 0 0 0 0 0 0 0 0 0 0 0 0 0 12 0 0 0 0 0 0 0 3 12 13 3 0 0 0 0 0 0 0 3 1 0
0 0 0 0 0 0 0 0 0 0 0 0 0 0 0 0 0 0 0 0 0 0 0 0 0 0 0 0 0 0 0 0 0 0 0 0 16 23 0 0 7 0 0 0 0 0 0 5 2
0 0 0 0 0 0 0 0 0 0 0 0 0 0 0 0 0 0 0 0 0 0 0 0 0 0 0 0 0 0 0 0 0 0 0 0 7 18 5 0 0 0 0 0 0 0 0 9 27
0 0 0 0 0 0 0 0 0 0 0 0 0 0 0 0 0 0 0 0 0 0 0 0 0 0 0 3 0 0 0 0 0 0 0 0 5 2 0 0 0 0 7 1 0 0 0 9 42
0 0 0 0 0 0 0 0 0 0 0 0 0 0 0 0 0 0 0 0 0 0 0 0 0 0 0 3 0 0 0 0 0 0 0 0 1 0 0 0 0 0 5 11 0 0 0 11 20
0 0 0 0 0 0 0 0 0 0 0 0 0 0 0 0 0 0 0 0 0 0 0 0 0 0 0 0 0 0 0 0 0 0 0 0 0 0 0 0 2 0 38 13 0 0 0 4 25
0 0 0 0 0 0 0 0 0 0 0 0 0 0 0 0 0 0 0 0 0 0 0 0 0 0 0 0 0 0 0 0 7 0 0 0 0 0 0 0 0 1 44 35 14 4 7 2 4
0 0 0 0 0 0 0 0 0 0 0 0 0 0 0 0 0 0 0 0 0 0 0 0 0 0 0 0 0 0 0 11 2 0 0 0 0 0 0 0 0 10 38 25 39 34 37 2 3
0 0 0 0 0 0 0 0 0 0 0 0 0 0 0 0 0 0 0 0 0 0 0 0 0 0 0 0 0 0 0 0 0 0 0 0 1 11 0 0 0 0 28 31 9 17 35 17 12
0 0 0 0 0 0 0 0 0 0 0 0 0 0 0 0 0 0 0 0 0 0 0 0 0 0 0 0 0 0 0 0 0 0 0 0 8 14 8 12 16 24 26 7 12 9 10 15 6

GFSSGP_con_mlcape_018.txt.gz
CAPE
0 0 0 0 0 0 0 0 0 0 0 0 0 0 0 0 0 0 0 0 0 0 0 21 44 0 0 0 0 0 0 0 0 0 0 0 0 0 0 0 0 0 0 0 0 0 0 0 0
0 0 0 0 0 0 0 0 0 0 0 0 0 0 0 0 0 0 0 3 0 0 0 0 13 0 0 0 0 0 0 0 0 0 0 0 0 0 0 0 1 15 18 10 0 0 2 4 0
0 0 0 1 1 2 0 0 0 0 0 0 0 0 0 0 0 0 0 0 0 0 0 0 14 37 33 8 0 0 6 0 0 0 0 0 12 82 95 0 0 5 17 21 18 9 18 10 7
0 0 0 0 0 0 0 0 0 0 0 0 0 0 0 0 0 0 0 0 0 0 7 0 83 125 109 22 37 103 76 78 97 136 118 155 259 210 118 67 72 26 20 46 18 25 10 21 8
0 0 0 0 0 0 0 0 0 0 0 0 0 0 0 0 0 0 0 0 0 7 14 54 220 165 133 155 242 250 233 245 304 385 339 516 426 287 185 47 67 44 45 52 40 13 20 28 72
0 0 0 0 0 0 0 0 0 0 0 0 0 0 0 0 0 0 0 0 0 0 24 62 277 228 235 261 424 481 419 412 419 478 613 556 399 250 154 34 46 70 53 30 24 61 48 45 62
0 0 0 0 0 0 0 0 0 0 0 0 0 0 0 0 0 0 0 0 0 0 4 31 197 327 335 476 634 684 496 455 455 553 629 194 74 34 0 0 0 5 17 26 38 29 32 56 44
0 0 0 0 0 0 0 0 0 0 0 0 0 0 0 0 0 0 0 0 0 6 6 20 126 377 551 709 920 764 676 641 751 625 376 115 0 0 0 0 0 0 3 6 14 8 3 7 21
0 0 0 0 0 0 0 0 0 0 0 0 0 0 0 0 0 0 0 0 0 20 53 63 150 286 436 605 817 953 848 772 550 392 179 3 0 0 0 0 0 0 0 9 16 15 0 1 22
0 0 0 0 0 0 0 0 0 0 0 0 0 0 0 0 0 0 0 0 0 3 63 114 160 333 389 447 377 414 293 253 220 42 0 0 0 0 0 0 0 0 3 9 17 37 46 58 24
0 0 0 0 0 0 0 0 0 0 0 0 0 0 0 0 0 0 0 0 0 0 3 69 193 307 171 65 4 5 3 0 0 0 0 0 0 0 0 0 0 0 0 0 0 0 0 13 42
0 0 0 0 0 0 0 0 0 0 0 0 0 0 0 0 0 0 0 0 0 0 0 41 160 55 0 0 0 0 0 0 0 0 0 0 0 0 0 0 0 0 0 0 0 0 0 4 49
0 0 0 0 0 0 0 0 0 0 0 0 0 0 0 0 0 0 0 0 0 0 0 0 2 0 0 0 0 0 0 0 0 0 0 0 0 0 0 0 0 0 0 0 0 0 0 0 66
0 0 0 0 0 0 0 0 0 0 0 0 0 0 0 0 0 0 0 0 0 0 0 0 0 0 0 0 0 0 0 0 0 0 0 0 0 0 0 0 0 4 1 0 0 0 0 0 14
0 0 0 0 0 0 0 0 0 0 0 0 0 0 0 0 0 0 0 0 0 0 0 0 0 0 0 0 0 0 0 0 0 0 0 0 0 0 0 0 0 0 0 0 0 0 0 0 0
0 0 0 0 0 0 0 0 0 0 0 0 0 0 0 0 0 0 0 0 0 0 0 0 0 0 0 0 0 0 0 0 0 0 0 0 0 0 0 0 0 0 0 0 0 0 0 0 12
0 0 0 0 0 0 0 0 0 0 0 0 0 0 0 0 0 0 0 0 0 0 0 0 0 0 0 0 0 0 0 0 0 0 0 0 0 0 0 0 0 0 0 0 0 0 0 0 3
0 0 0 0 0 0 0 0 0 0 0 0 0 0 0 0 0 0 0 0 0 0 0 0 0 0 0 0 0 0 0 0 0 0 0 0 0 1 0 0 0 0 0 0 0 0 0 0 3
0 0 0 0 0 0 0 0 0 0 0 0 0 0 0 0 0 0 0 0 0 0 0 0 0 0 0 0 0 0 0 0 0 0 0 0 1 2 0 0 0 0 0 0 0 0 0 22 41
0 0 0 0 0 0 0 0 0 0 0 0 0 0 0 0 0 0 0 0 0 0 0 0 0 0 0 0 0 0 0 0 0 0 0 0 2 0 6 0 0 0 0 0 0 0 0 0 54
0 0 0 0 0 0 0 0 0 0 0 0 0 0 0 0 0 0 0 0 0 0 0 0 0 0 0 0 0 0 0 0 0 0 0 0 3 21 13 0 0 0 0 0 0 0 0 0 13
0 0 0 0 0 0 0 0 0 0 0 0 0 0 0 0 0 0 0 0 0 0 0 0 0 0 0 0 0 0 0 0 0 0 0 0 1 13 3 0 0 0 0 0 0 0 0 2 20
0 0 0 0 0 0 0 0 0 0 0 0 0 0 0 0 0 0 0 0 0 0 0 0 0 0 0 0 0 0 0 0 0 0 0 0 0 9 0 0 0 0 0 0 0 0 0 10 6
0 0 0 0 0 0 0 0 0 0 0 0 0 0 0 0 0 0 0 0 0 0 0 0 0 0 0 0 0 0 0 0 0 0 0 0 0 1 0 0 0 0 0 0 0 0 0 12 17
0 0 0 0 0 0 0 0 0 0 0 0 0 0 0 0 0 0 0 0 0 0 0 0 0 0 0 0 0 0 0 0 0 0 0 0 0 0 0 0 0 0 0 0 0 0 0 0 26
0 0 0 0 0 0 0 0 0 0 0 0 0 0 0 0 0 0 0 0 0 0 0 0 0 0 0 0 0 0 0 0 0 0 0 0 0 0 0 0 0 0 0 0 0 0 0 0 14
0 0 0 0 0 0 0 0 0 0 0 0 0 0 0 0 0 0 0 0 0 0 0 0 0 0 0 0 0 0 0 0 0 0 0 0 0 0 0 0 0 3 9 6 0 1 2 2 9
0 0 0 0 0 0 0 0 0 0 0 0 0 0 0 0 0 0 0 0 0 0 0 0 0 0 0 0 0 0 0 0 0 0 0 0 0 0 0 0 1 11 12 18 10 20 2 2 0
0 0 0 0 0 0 0 0 0 0 0 0 0 0 0 0 0 0 0 0 0 0 0 0 0 0 0 0 0 0 0 0 0 0 0 0 0 0 0 0 0 0 7 1 1 4 0 1 0
0 0 0 0 0 0 0 0 0 0 0 0 0 0 0 0 0 0 0 0 0 0 0 0 0 0 0 0 0 0 0 0 0 0 0 0 0 0 0 0 0 0 0 0 0 1 2 3 0

GFSSGP_con_mlcape_021.txt.gz
CAPE
0 0 0 0 0 0 0 0 0 0 0 0 0 0 0 0 0 0 0 0 0 0 0 50 68 3 0 0 0 0 0 0 0 0 0 0 0 0 0 0 0 0 0 0 0 0 0 0 0
0 0 0 0 0 0 0 0 0 0 0 0 0 0 0 0 0 0 0 0 0 0 0 8 67 4 0 0 0 0 0 0 0 0 0 0 0 0 0 0 0 0 0 0 0 8 8 0 2
0 0 0 0 1 0 0 0 0 0 0 0 0 0 0 0 0 0 0 0 0 0 7 91 49 0 0 0 7 13 0 0 0 0 0 0 0 0 0 14 6 1 1 1 14 9 5 9 7
0 0 0 0 0 0 0 0 0 0 0 0 0 0 0 0 0 0 0 19 0 0 43 96 21 18 41 21 29 35 0 0 0 0 7 9 17 106 221 235 157 98 61 24 21 7 8 18 10
0 0 0 0 0 0 0 0 0 0 0 0 0 0 0 0 0 0 0 36 3 0 3 157 85 107 162 149 215 156 45 87 156 220 240 239 276 456 442 349 282 154 136 95 58 57 31 3 16
0 0 0 0 0 0 0 0 0 0 0 0 0 0 0 0 0 0 0 11 47 29 16 193 293 268 258 259 357 336 287 390 450 436 551 526 661 637 482 319 140 65 80 89 114 45 41 49 51
0 0 0 0 0 0 0 0 0 0 0 0 0 0 0 0 0 0 0 51 6 115 76 207 459 588 507 375 448 532 564 629 737 632 756 842 669 511 384 52 1 0 0 9 28 24 61 72 67
0 0 0 0 0 0 0 0 0 0 0 0 0 0 0 0 0 0 0 29 3 74 173 218 449 854 810 717 880 693 790 783 817 852 888 1014 430 241 0 0 0 0 0 4 8 10 9 0 41
0 0 0 0 0 0 0 0 0 0 0 0 0 0 0 0 0 0 0 0 11 45 100 231 349 606 793 764 919 1117 1048 1006 991 993 968 513 121 15 11 0 0 0 0 0 2 4 13 22 20
0 0 0 0 0 0 0 0 0 0 0 0 0 0 0 0 0 0 0 0 3 23 58 159 226 503 748 750 1029 1193 1058 835 873 717 489 299 112 46 3 0 0 0 0 2 5 12 49 69 79
0 0 0 0 0 0 0 0 0 0 0 0 0 0 1 3 0 0 0 0 0 17 104 145 247 424 541 675 838 876 826 614 586 555 325 80 29 32 3 0 0 0 0 0 2 3 1 2 5
0 0 0 0 0 0 0 0 0 0 0 0 0 0 0 1 0 0 0 0 0 0 42 161 248 307 487 625 450 252 188 127 40 70 85 55 26 8 0 0 0 0 0 0 3 4 5 1 5
0 0 0 0 0 0 0 0 0 0 0 0 0 0 0 0 0 0 0 0 0 0 0 42 226 351 411 316 127 11 0 0 6 15 2 0 0 7 7 0 0 0 0 2 11 13 18 34 100
0 0 0 0 0 0 0 0 0 0 0 0 0 0 0 0 0 0 0 0 0 0 0 1 77 279 291 79 14 0 0 0 1 5 5 3 0 0 0 2 3 20 39 30 21 4 24 54 95
0 0 0 0 0 0 0 0 0 0 0 0 0 0 0 0 0 0 0 0 0 0 0 0 21 143 73 13 0 2 0 0 18 26 40 0 0 0 7 37 41 33 47 9 28 10 29 55 77
0 0 0 0 0 0 0 0 0 0 0 0 0 0 0 0 0 0 0 0 0 0 0 0 0 1 9 0 0 0 0 11 20 22 30 0 1 29 64 83 74 34 39 31 35 37 9 45 58
0 0 0 0 0 0 0 0 0 0 0 0 0 0 0 0 0 0 0 0 0 0 0 0 0 0 0 0 0 0 6 11 14 10 27 32 25 66 79 70 62 33 30 30 50 38 9 50 86
0 0 0 0 0 0 0 0 0 0 0 0 0 0 0 0 0 0 0 0 0 0 0 0 0 0 0 0 0 0 7 4 31 53 83 119 150 136 103 5 8 19 30 29 53 43 29 79 132
0 0 0 0 0 0 0 0 0 0 0 0 0 0 0 0 0 0 0 0 0 0 0 0 0 0 0 0 0 1 2 94 94 165 109 105 234 167 11 0 11 6 17 32 85 85 40 78 169
0 0 0 0 0 0 0 0 0 0 0 0 0 0 0 0 0 0 0 0 0 0 0 0 0 0 0 0 0 19 137 145 125 103 114 142 208 216 78 44 0 1 6 76 65 33 54 157 259
0 0 0 0 0 0 0 0 0 0 0 0 0 0 0 0 0 0 0 0 0 0 0 0 0 0 0 0 0 32 14 30 0 106 125 108 91 118 44 29 8 11 133 116 74 46 88 166 249
0 0 0 0 0 0 0 0 0 0 0 0 0 0 0 0 0 0 0 0 0 0 0 0 0 0 0 0 2 49 11 0 2 25 31 55 22 135 22 91 32 131 172 133 79 64 143 150 198
0 0 0 0 0 0 0 0 0 0 0 0 0 0 0 0 0 0 0 0 0 0 0 0 0 0 0 0 32 9 0 0 0 0 10 5 59 115 39 128 102 204 225 180 73 42 109 148 137
0 0 0 0 0 0 0 0 0 0 0 0 0 0 0 0 0 0 0 0 0 0 0 0 0 0 0 0 0 0 0 0 0 0 8 18 79 91 177 154 189 207 191 124 64 76 121 177 115
0 0 0 0 0 0 0 0 0 0 0 0 0 0 0 0 0 0 0 0 0 0 0 0 0 0 0 0 0 0 0 0 0 0 29 76 35 58 131 164 124 119 173 141 47 88 99 155 153
0 0 0 0 0 0 0 0 0 0 0 0 0 0 0 0 0 0 0 0 0 0 0 0 0 0 0 6 0 0 0 0 0 0 42 11 57 150 162 152 142 146 156 120 93 98 105 134 155
0 0 0 0 0 0 0 0 0 0 0 0 0 0 0 0 0 0 0 0 0 0 0 0 0 0 0 0 0 0 0 8 18 20 14 25 24 51 205 166 147 242 129 40 104 87 51 93 79
0 0 0 0 0 0 0 0 0 0 0 0 0 0 0 0 0 0 0 0 0 0 0 0 0 0 0 0 0 2 10 55 1 21 64 57 51 58 132 112 167 193 175 125 111 39 88 89 58
0 0 0 0 0 0 0 0 0 0 0 0 0 0 0 0 0 0 0 0 0 0 0 0 0 0 0 0 0 10 60 0 2 29 85 143 113 76 60 67 129 168 22 12 51 44 16 26 33
0 0 0 0 0 0 0 0 0 0 0 0 0 0 0 0 0 0 0 0 0 0 0 0 0 0 0 0 0 31 4 0 0 32 37 125 135 123 63 44 74 0 0 0 8 3 2 5 6

GFSSGP_con_mlcape_024.txt.gz
CAPE
0 0 0 0 0 0 0 0 0 0 0 0 0 0 0 0 0 0 0 42 75 0 22 61 15 0 0 0 0 0 0 0 0 0 0 0 0 0 0 0 0 0 0 0 0 0 0 0 0
0 0 0 0 0 0 0 0 0 0 0 0 0 0 0 0 0 0 0 44 57 0 17 104 82 3 0 0 0 0 0 0 0 0 0 0 0 0 0 0 0 0 0 0 0 0 2 0 0
0 0 0 0 0 0 46 0 0 0 0 0 0 0 0 0 0 0 22 59 61 2 11 155 133 34 2 0 0 0 0 0 0 0 0 0 0 0 0 0 0 0 0 0 0 2 2 6 14
0 0 0 0 0 27 47 1 0 0 0 0 0 0 0 0 0 0 27 77 20 5 16 157 197 80 28 0 0 0 0 0 2 6 0 0 1 15 52 91 188 208 107 42 9 1 7 0 9
0 0 0 0 0 0 50 17 0 0 0 0 0 0 0 0 0 0 22 71 3 27 25 229 234 149 87 41 14 38 75 72 55 6 23 93 119 188 307 529 460 381 279 182 180 114 96 72 36
0 0 0 0 0 0 2 0 0 0 0 0 0 0 0 0 0 0 0 89 51 42 77 266 584 333 212 173 152 142 151 166 126 91 216 334 425 572 744 605 490 353 135 130 200 211 94 45 67
0 0 0 0 0 0 0 0 0 0 0 0 0 0 0 0 0 0 0 44 144 124 130 259 710 660 626 490 465 388 339 290 299 338 473 620 789 894 744 556 323 53 12 17 44 168 195 75 67
0 0 0 0 0 0 0 0 0 1 10 0 0 0 0 4 0 0 17 16 123 153 204 204 570 699 679 681 923 705 689 490 686 826 908 913 912 830 473 163 0 1 11 0 2 23 59 99 71
0 0 0 0 0 0 0 2 0 0 0 0 0 0 1 0 0 24 38 51 39 81 164 216 321 523 687 643 819 1080 1025 1051 1171 1111 1055 792 445 219 217 59 3 0 0 1 3 2 1 8 30
0 0 0 0 0 0 2 0 0 0 0 0 0 0 1 14 28 45 62 40 47 94 89 220 330 523 724 531 619 1177 781 831 833 710 708 732 330 253 131 55 6 0 0 0 0 0 4 38 41
0 0 0 0 0 0 0 0 0 0 0 0 0 0 1 15 17 35 75 49 12 40 92 150 417 599 744 594 679 968 986 837 816 960 785 440 224 218 241 192 157 71 18 5 0 8 5 18 50
0 0 0 0 0 0 0 0 0 0 0 0 0 0 0 0 4 5 17 45 31 3 54 168 311 690 916 627 715 831 773 685 552 466 589 472 353 257 290 147 65 30 26 11 9 19 25 17 19
0 0 0 0 0 0 0 0 0 0 0 0 0 0 0 0 0 0 0 0 34 10 40 182 434 755 1015 925 794 821 551 362 249 203 230 428 285 273 317 250 156 24 17 9 14 20 27 23 42
0 0 0 0 0 0 0 0 0 0 0 0 0 0 0 0 0 0 0 0 0 28 27 153 453 786 981 1044 894 713 405 153 225 51 183 482 375 341 400 295 155 103 31 23 23 31 42 42 54
0 0 0 0 0 0 0 0 0 0 0 0 0 0 0 0 0 0 0 0 0 25 76 118 448 789 1074 1003 841 471 185 188 57 99 464 484 558 428 533 323 247 192 135 101 54 19 36 31 42
0 0 0 0 0 0 0 0 0 0 0 0 0 0 0 0 0 0 0 0 0 17 39 130 191 577 1004 777 569 224 135 90 79 310 408 576 592 578 487 397 298 203 118 100 46 20 33 36 30
0 0 0 0 0 0 0 0 0 0 0 0 0 0 0 0 0 0 0 0 0 6 51 45 146 481 726 529 278 187 154 105 201 363 407 484 602 585 484 392 191 352 137 112 145 43 42 38 72
0 0 0 0 0 0 0 0 0 0 0 0 0 0 0 0 0 0 0 0 0 0 2 0 76 300 459 316 214 112 106 113 223 378 429 498 642 570 459 360 467 36 13 123 112 78 91 72 99
0 0 0 0 0 0 0 0 0 0 0 0 0 0 0 0 0 0 0 0 0 0 0 0 76 297 175 171 60 53 28 40 200 375 482 594 589 468 361 416 7 29 63 31 77 127 157 127 179
0 0 0 0 0 0 0 0 0 0 0 0 0 0 0 0 0 0 0 0 0 0 0 27 117 217 128 72 41 34 10 130 268 371 596 551 535 416 379 309 217 53 0 37 77 160 171 138 315
0 0 0 0 0 0 0 0 0 0 0 0 0 0 0 0 0 0 0 0 0 0 2 32 142 176 111 128 141 178 367 271 267 346 477 602 538 433 373 298 37 44 37 87 194 269 163 236 401
0 0 0 0 0 0 0 0 0 0 0 0 0 0 0 0 0 0 0 0 0 0 0 76 124 171 190 111 12 73 50 15 199 282 337 393 358 316 360 183 234 148 211 261 329 264 262 318 448
0 0 0 0 0 0 0 0 0 0 0 0 0 0 0 0 0 0 0 0 0 0 9 68 120 109 94 111 80 198 108 201 222 162 282 346 373 341 143 332 243 199 378 404 315 201 227 402 497
0 0 0 0 0 0 0 0 0 0 0 0 0 0 0 0 0 0 0 0 0 0 6 65 78 68 149 164 351 324 406 219 157 161 160 231 247 311 255 267 317 360 362 271 248 269 276 412 574
0 0 0 0 0 0 0 0 0 0 0 0 0 0 0 0 0 0 0 0 0 0 14 30 38 94 92 176 276 271 475 345 338 270 267 246 249 318 316 369 376 354 344 327 283 300 305 446 493
0 0 0 0 0 0 0 0 0 0 0 0 0 0 0 0 3 0 0 0 0 1 5 0 13 8 52 127 247 311 326 261 209 302 235 251 320 302 360 378 361 418 398 337 335 393 384 439 552
0 0 0 0 0 0 0 0 0 0 0 0 0 0 0 1 7 0 5 0 0 5 8 8 0 0 37 190 206 397 347 365 310 289 179 257 255 216 345 349 368 423 389 401 435 406 413 396 491
0 0 0 0 0 0 0 0 0 0 0 0 0 0 0 12 10 1 0 5 7 14 16 0 0 21 97 134 176 300 388 331 287 343 184 170 212 111 238 319 339 357 388 432 471 366 390 413 207
0 0 0 0 0 0 0 0 0 0 0 0 0 0 47 10 1 0 0 12 11 20 6 0 0 27 56 64 140 327 350 148 237 214 197 164 156 85 141 221 290 363 415 457 485 366 334 286 311
0 0 0 0 0 0 0 0 0 0 0 0 69 81 42 3 6 0 0 0 13 15 0 0 1 0 10 31 34 291 275 105 237 207 269 235 177 69 50 106 229 156 194 300 258 183 237 213 172

GFSSGP_con_mlcape_027.txt.gz
CAPE
0 0 0 0 0 0 0 0 1 2 0 0 0 0 0 0 0 0 6 14 0 0 192 34 7 0 0 0 0 0 0 0 0 0 0 0 0 0 0 0 0 0 0 0 0 0 0 0 0
0 0 0 0 0 0 0 0 12 15 31 0 0 0 0 0 0 0 0 25 0 3 235 45 39 2 0 0 0 0 0 0 0 0 0 0 0 0 0 0 0 0 0 0 0 0 1 3 0
0 0 0 0 0 0 31 33 6 20 0 0 0 0 0 0 0 0 28 48 15 0 254 124 86 46 10 0 0 0 0 0 0 0 0 0 0 0 0 1 6 0 10 6 0 3 5 4 14
0 0 0 0 0 45 22 51 51 1 29 0 0 0 0 0 0 0 16 21 7 3 85 301 203 66 51 5 0 0 0 0 0 0 0 0 8 5 0 11 33 82 128 118 95 72 17 11 22
0 0 0 0 0 0 15 11 58 37 43 4 2 0 1 0 0 0 17 22 3 3 7 348 286 95 93 58 7 0 0 0 0 4 27 0 6 24 101 193 358 546 438 354 249 231 196 138 122
0 0 0 0 0 0 8 12 39 63 46 31 0 0 1 0 0 0 0 50 27 9 13 69 447 264 142 150 117 52 22 24 44 65 58 72 152 222 416 586 743 545 409 205 109 108 212 164 74
0 0 0 0 0 0 0 2 13 21 17 27 2 0 1 51 0 0 2 30 72 32 45 50 1104 742 370 366 431 302 120 76 144 143 106 227 357 548 806 969 650 479 181 31 34 31 57 234 158
0 0 0 0 0 0 0 1 0 14 22 2 0 0 13 17 2 10 12 37 33 103 83 95 346 1188 901 487 963 697 300 211 244 260 289 411 589 668 750 529 372 53 25 52 0 0 11 54 136
0 0 0 0 0 0 0 0 11 5 5 12 0 1 0 1 0 0 5 19 45 52 109 151 145 407 764 455 713 1128 875 595 550 540 670 759 431 287 716 634 336 158 78 12 11 2 0 0 12
0 0 0 0 0 0 4 2 0 20 5 2 0 0 16 16 1 24 16 0 16 89 71 107 218 259 558 433 577 1272 728 624 570 565 724 1064 889 518 370 311 141 65 27 7 0 0 0 0 0
0 0 0 5 17 4 8 14 8 11 18 9 29 0 9 7 21 27 1 0 13 36 78 108 345 475 587 589 507 1175 1015 715 842 973 1048 986 700 263 311 419 493 317 361 230 114 51 14 3 6
0 0 0 0 4 5 2 20 26 16 5 6 0 0 0 1 0 1 0 0 0 3 106 49 185 687 896 762 534 716 973 954 883 845 1195 1040 623 387 467 416 320 398 199 189 65 14 24 18 16
0 0 0 0 0 1 0 0 2 0 5 0 0 0 0 0 0 0 0 0 0 0 5 61 174 873 1166 1235 656 769 878 785 766 656 610 703 382 427 512 516 523 391 275 145 52 47 21 17 22
0 0 0 0 0 1 0 0 0 0 0 0 0 0 0 0 0 0 0 0 0 0 0 69 173 961 1237 1421 1389 1152 1221 697 566 387 304 430 524 554 530 597 542 411 292 290 160 1 8 23 33
0 0 0 0 0 0 0 0 0 0 0 0 0 0 0 0 0 0 0 0 0 0 3 130 252 1070 1420 1601 1533 1273 952 614 348 296 190 305 754 731 749 532 553 424 257 410 351 234 49 24 45
0 0 0 0 0 0 18 0 0 0 0 0 0 0 0 0 0 0 0 0 0 0 1 94 194 754 1410 1559 1545 1222 679 500 179 162 231 666 818 829 679 662 585 502 547 441 264 169 96 19 41
0 0 0 0 0 1 25 0 0 0 0 0 0 0 0 0 0 0 0 0 0 0 46 216 393 608 1225 1596 1405 1066 583 328 150 218 349 503 778 708 679 683 727 601 527 475 242 116 211 55 21
0 0 0 0 0 1 3 0 0 0 0 0 0 0 0 0 0 0 0 0 0 6 56 387 490 542 1234 1401 1147 519 364 305 183 313 389 494 672 604 769 796 609 596 519 57 26 128 238 150 164
0 0 0 0 0 0 0 0 4 0 0 0 0 0 0 0 0 0 0 28 9 41 289 394 377 748 1211 957 507 289 251 259 204 248 443 613 645 605 773 855 673 539 145 165 125 59 39 156 228
0 0 0 0 0 0 0 3 0 0 0 0 0 0 0 0 0 0 0 167 82 155 259 305 405 744 843 509 319 197 200 159 200 308 463 694 635 609 793 850 687 418 254 147 80 151 146 137 148
0 0 0 0 0 0 0 0 0 0 0 0 0 0 0 0 0 0 0 228 159 216 306 372 493 696 476 338 263 269 291 445 379 173 359 607 635 682 653 733 594 396 209 87 137 204 229 229 288
0 0 0 0 0 0 0 0 0 0 0 0 0 0 0 0 0 0 14 305 238 293 354 411 524 509 287 281 334 304 164 123 217 349 170 646 512 342 464 481 385 268 264 226 369 340 318 292 306
0 0 0 0 0 0 0 0 0 0 0 0 0 0 0 0 0 0 137 299 345 289 280 438 470 363 355 326 190 298 129 37 115 84 389 638 636 562 408 323 379 347 364 470 503 458 325 315 433
0 0 0 0 0 0 0 0 0 0 0 0 0 0 0 0 0 14 268 347 266 199 325 407 423 385 297 201 334 454 424 249 181 364 409 438 760 642 503 213 322 337 587 485 349 167 313 572 674
0 0 0 0 0 0 0 0 0 0 0 0 0 0 0 0 67 192 307 212 195 274 321 365 315 350 243 291 283 332 416 485 544 490 582 652 574 576 518 264 423 587 485 387 276 247 345 342 408
0 0 0 0 0 0 0 0 0 0 0 0 0 0 6 99 208 269 217 219 234 257 275 209 297 235 215 207 241 255 382 476 404 532 406 251 499 550 428 390 439 456 373 407 309 293 369 444 666
0 0 0 0 0 0 0 0 0 0 0 0 0 0 104 106 311 269 248 230 221 230 203 236 210 181 148 165 196 303 403 449 514 476 305 267 409 325 312 406 493 388 412 366 349 409 413 402 157
0 0 0 0 0 0 1 21 6 0 0 0 0 0 12 250 349 249 248 244 223 211 208 182 124 111 93 155 163 261 311 300 428 423 326 131 193 111 223 403 486 380 445 432 589 701 551 508 48
0 0 0 0 0 0 4 3 16 0 0 0 0 0 28 332 305 284 236 243 242 227 204 110 60 37 108 114 150 286 334 231 351 480 367 182 57 85 81 275 368 380 472 516 645 432 114 315 81
0 0 0 0 0 0 3 16 0 0 0 14 2 0 218 311 273 245 224 245 254 234 155 20 33 35 73 70 106 346 247 218 427 334 302 112 49 15 18 116 246 194 221 405 346 310 391 307 296

GFSSGP_con_mlcape_030.txt.gz
CAPE
0 0 0 0 0 0 0 0 0 42 0 0 0 0 0 0 0 0 0 0 36 249 21 0 0 0 0 0 0 0 0 0 0 0 0 0 0 0 0 0 0 0 0 0 0 0 0 0 0
0 0 0 0 0 0 0 0 0 9 0 0 0 0 0 0 0 0 0 0 17 289 82 0 0 0 0 0 0 0 0 0 0 0 0 0 0 0 0 0 0 0 0 0 0 0 0 1 0
0 0 0 0 0 0 0 0 25 16 0 0 0 0 0 0 0 0 26 6 22 307 156 40 0 0 0 0 0 0 0 0 0 0 0 0 0 0 0 0 0 0 5 44 32 22 4 6 11
0 0 0 0 0 0 0 6 87 1 20 0 0 0 0 0 0 0 15 1 0 175 291 166 0 0 0 0 0 0 0 0 0 0 0 0 0 0 0 0 0 0 44 127 185 177 128 70 35
0 0 0 0 0 0 0 0 17 35 16 0 1 0 0 0 0 0 12 9 3 0 222 328 140 4 29 14 2 0 0 0 0 0 7 0 0 0 16 27 122 255 422 408 381 271 277 265 137
0 0 0 0 0 0 0 0 0 11 35 34 0 0 0 1 0 0 5 14 0 0 25 535 266 50 75 63 40 6 0 0 0 0 25 18 14 33 121 244 427 635 499 356 249 101 114 197 295
0 0 0 0 0 0 0 0 1 0 9 1 0 0 0 14 13 0 1 19 30 6 0 567 471 387 100 143 96 37 6 0 0 0 33 41 77 178 268 414 744 729 510 348 75 37 3 45 176
0 0 0 0 0 0 0 0 0 0 0 5 0 1 0 2 2 0 0 10 47 70 50 312 653 574 460 312 310 181 127 111 53 36 57 84 202 350 252 260 742 521 433 138 78 19 0 0 79
0 0 0 0 0 0 0 0 0 0 1 13 1 0 0 0 0 0 0 0 0 32 115 307 760 1183 875 636 703 756 432 296 226 251 246 269 342 291 456 657 848 677 398 203 140 43 8 2 0
0 0 0 0 0 0 0 0 0 0 0 5 0 4 0 0 11 0 0 21 22 0 61 184 260 987 1224 801 550 879 855 808 543 481 481 395 511 621 591 342 891 473 297 176 113 40 12 0 0
0 0 0 0 0 0 6 0 0 0 0 6 0 0 2 0 0 0 3 12 12 0 0 190 274 395 945 803 567 1083 987 809 703 558 546 1043 1184 1055 900 327 375 381 248 166 335 200 25 31 1
0 0 0 0 0 0 0 0 0 0 0 7 17 12 14 0 0 0 0 0 4 0 0 4 389 433 622 733 669 1391 1369 1080 850 794 908 1087 1114 876 438 267 433 463 425 407 228 162 172 70 164
0 0 0 0 0 0 0 0 0 0 0 0 1 0 0 1 0 0 0 0 0 0 0 2 460 402 711 786 771 1190 1457 1261 1033 1185 1311 1441 1134 734 636 659 733 690 432 307 434 163 124 20 3
0 0 0 0 0 0 0 0 0 0 0 0 0 0 0 3 2 0 0 0 0 0 0 0 226 628 871 714 1027 992 1079 1236 1174 1120 1188 1174 898 549 707 782 697 676 484 324 288 222 103 2 17
0 0 0 0 0 0 0 0 0 0 0 0 0 0 0 0 0 0 0 0 0 0 0 0 252 1020 988 1293 1057 1863 1261 1093 1071 714 644 683 565 547 974 856 768 571 482 298 193 220 219 7 5
0 0 0 0 0 0 1 0 0 0 0 0 0 0 1 2 1 0 0 0 0 0 0 8 88 1223 1353 1728 1559 1169 1325 1169 758 477 451 379 802 857 1028 923 627 548 546 314 210 209 135 121 19
0 0 0 0 0 0 5 1 0 0 0 0 0 0 0 0 0 0 0 0 0 0 21 98 324 1517 1674 1888 1975 1485 1543 985 597 425 349 511 736 902 932 790 659 788 543 416 242 215 74 36 75
0 0 0 0 0 0 4 2 0 0 6 0 1 5 0 0 0 0 0 0 5 80 117 391 672 1206 1765 1968 1742 1720 1262 699 468 299 391 627 769 866 839 724 867 771 470 359 259 109 18 30 31
0 0 0 0 0 0 1 0 0 0 0 0 0 0 0 0 3 11 0 0 133 127 127 543 866 1017 1688 1860 1632 1345 927 464 356 385 454 535 701 708 707 730 677 584 471 381 139 97 45 30 54
0 0 0 0 0 0 0 0 0 0 0 0 0 0 0 0 0 7 0 0 250 261 395 774 809 883 1598 1694 1427 809 501 378 386 315 438 609 608 535 545 752 565 622 459 238 191 93 0 2 26
0 0 0 0 0 0 0 0 0 0 0 0 0 0 0 0 0 0 0 189 370 395 502 619 807 1494 1444 1052 815 720 326 492 380 498 530 815 654 628 666 649 592 493 313 171 161 117 97 134 121
0 0 0 0 0 0 0 0 0 0 0 0 0 0 0 0 0 0 2 366 465 469 546 703 1071 1271 1018 714 595 291 257 305 419 284 528 770 854 613 388 465 366 221 291 265 210 155 126 143 34
0 0 0 0 0 0 0 0 0 0 0 0 0 0 0 0 0 1 52 557 509 560 668 880 1038 882 804 536 357 460 485 430 309 228 519 671 695 635 495 447 368 230 273 258 201 283 136 167 129
0 0 0 0 0 0 0 0 0 0 0 0 0 0 0 0 0 1 468 597 614 612 715 917 826 835 510 453 597 363 302 394 406 299 529 341 518 604 612 396 290 307 214 317 406 255 186 171 187
0 0 0 0 0 0 0 0 0 0 0 0 0 0 0 0 0 332 530 624 580 616 806 860 768 721 481 495 525 543 540 477 473 596 532 616 591 510 547 321 188 348 411 332 232 83 155 165 108
0 0 0 0 0 0 0 0 0 0 0 0 0 0 0 0 190 546 624 600 548 735 767 702 755 614 448 476 411 385 532 554 605 696 506 375 509 472 104 105 289 456 400 202 132 131 105 144 280
0 0 0 0 0 0 0 0 0 0 0 0 0 0 2 257 470 605 530 554 669 701 695 610 612 468 440 389 385 401 521 654 460 596 467 413 427 135 159 194 369 411 343 216 189 106 208 169 33
0 0 0 0 0 0 0 0 0 0 0 0 0 0 205 479 503 467 538 631 652 647 639 574 493 401 355 366 291 280 291 319 405 498 211 182 231 149 187 421 472 358 300 333 233 203 411 51 4
0 0 0 0 0 0 0 0 7 18 0 0 0 0 273 546 504 543 521 621 591 522 504 505 379 268 250 263 359 263 264 250 246 347 268 100 63 66 101 251 441 329 371 268 76 130 40 14 28
0 0 0 0 0 0 0 0 0 0 7 0 0 0 341 516 504 525 530 522 493 456 399 305 203 165 219 188 376 397 199 248 184 251 318 5 6 24 24 150 157 152 320 393 306 208 223 251 44

GFSSGP_con_mlcape_033.txt.gz
CAPE
0 0 0 0 0 0 0 0 0 0 0 0 0 0 0 0 0 0 0 37 37 0 0 0 0 0 0 0 0 0 0 0 0 0 0 0 0 0 0 0 0 0 0 0 0 0 0 0 0
0 0 0 0 0 0 0 0 0 19 7 0 0 0 0 0 0 0 0 59 1 0 0 0 0 0 0 0 0 0 0 0 0 0 0 0 0 0 0 0 0 0 0 0 0 0 0 0 0
0 0 0 0 0 0 0 0 1 1 4 0 0 0 0 0 0 0 0 99 22 0 0 0 0 0 0 0 0 0 0 0 0 0 0 0 0 0 0 0 0 0 0 0 14 17 12 0 1
0 0 0 0 0 0 0 0 0 0 0 0 0 0 0 0 0 0 22 58 56 0 0 0 0 0 0 0 0 0 0 0 0 0 0 0 0 0 0 0 0 0 1 41 109 158 170 137 51
0 0 0 0 0 0 0 0 11 1 1 0 0 0 0 0 1 2 2 27 3 57 0 0 0 0 0 0 0 0 0 0 0 0 0 0 0 0 0 1 6 80 186 273 316 313 245 268 251
0 0 0 0 0 0 0 0 60 15 1 16 0 0 0 0 0 5 1 0 0 17 31 0 0 0 0 0 0 0 0 0 0 0 0 0 1 0 17 32 82 208 454 530 294 284 151 145 192
0 0 0 0 0 0 0 0 0 0 0 0 0 0 0 0 0 0 0 0 0 6 0 85 7 0 0 0 6 0 0 0 0 0 9 8 27 0 16 74 123 368 729 467 313 124 47 37 64
0 0 0 0 0 0 0 0 0 0 0 0 0 0 0 0 0 0 0 0 0 31 46 98 106 27 0 0 9 21 4 0 11 29 44 68 84 81 103 97 146 396 592 452 259 64 46 17 20
1 0 0 0 0 0 0 0 0 0 0 0 0 0 0 0 0 0 0 1 7 13 129 181 150 161 16 0 106 45 44 32 42 68 105 200 186 189 162 150 247 483 640 501 212 168 136 52 38
10 0 0 0 0 0 0 0 0 0 0 0 0 0 0 0 0 0 0 0 0 0 197 183 202 202 232 155 128 169 136 224 221 212 217 356 166 136 134 316 607 847 882 673 265 294 192 114 13
0 0 0 0 0 0 0 0 0 0 0 0 0 0 0 0 0 0 0 0 0 0 8 426 304 305 319 404 379 352 235 293 389 270 277 341 218 139 361 423 485 757 836 541 341 260 267 33 0
0 0 0 0 0 0 0 0 0 0 0 0 0 0 0 0 0 0 0 0 0 0 0 54 500 464 507 609 475 544 385 356 232 289 294 255 288 476 599 596 431 387 436 203 135 206 224 50 35
0 0 0 0 0 0 0 0 0 0 0 0 0 0 0 0 0 0 0 0 0 0 0 0 168 571 665 648 474 677 641 621 504 464 375 366 603 812 829 410 112 342 306 260 295 267 188 82 21
0 0 0 0 0 0 0 0 0 0 0 0 0 0 0 0 0 0 0 0 0 0 0 0 36 285 627 675 490 746 844 848 701 736 674 660 766 889 657 435 419 518 381 146 91 133 53 1 0
0 0 0 0 0 0 0 0 0 0 0 0 0 0 0 0 0 0 0 0 0 0 0 0 0 105 373 653 600 845 992 1010 971 831 905 1055 1161 893 600 425 527 579 457 346 154 76 96 71 2
0 0 0 0 0 0 0 0 0 0 0 0 0 0 0 0 0 0 0 0 6 0 0 0 110 225 644 664 1198 1001 1017 1089 950 864 1053 1154 966 598 321 474 506 484 389 279 173 82 50 47 44
0 0 0 0 0 0 0 0 0 0 0 0 0 0 0 0 0 0 0 0 0 0 0 0 148 289 796 1019 950 1366 1192 838 687 279 334 464 282 310 436 594 584 541 464 364 297 174 55 19 33
0 0 0 0 0 0 0 0 0 0 0 0 0 0 0 0 0 0 0 0 0 2 53 85 295 708 1204 1430 1367 1163 1144 837 350 276 160 282 339 430 540 558 536 506 451 322 191 114 53 48 21
0 0 0 0 0 0 0 0 0 0 0 0 0 0 0 0 0 0 0 0 0 24 132 337 665 1126 1462 1519 1478 1164 960 618 455 177 171 319 373 542 637 647 589 675 555 341 192 171 63 3 5
0 0 0 0 0 0 0 0 0 0 0 0 0 0 0 0 0 0 0 0 13 23 289 523 951 1365 1584 1495 1409 1226 932 493 328 237 176 296 550 539 488 356 404 351 329 292 188 124 60 0 6
0 0 0 0 0 0 0 0 0 0 0 0 0 0 0 0 0 0 0 0 40 148 381 591 1005 1603 1630 1481 1213 968 489 350 238 170 199 388 403 432 393 386 322 294 313 171 123 91 64 7 2
0 0 0 0 0 0 0 0 0 0 0 0 0 0 0 0 0 0 0 0 149 339 470 601 1053 1331 1318 1210 898 651 388 350 232 262 327 525 464 502 409 348 246 241 112 104 156 129 116 73 27
0 0 0 0 0 0 0 0 0 0 0 0 0 0 0 0 0 0 0 13 386 431 543 989 1198 1197 940 736 600 407 169 147 221 273 269 497 502 438 296 333 274 221 147 73 60 89 84 90 59
0 0 0 0 0 0 0 0 0 0 0 0 0 0 0 0 0 0 145 377 460 611 820 974 938 908 779 450 352 159 171 346 118 294 306 292 268 328 408 397 221 204 83 41 73 92 98 61 75
0 0 0 0 0 0 0 0 0 0 0 0 0 0 0 0 0 96 245 393 549 707 802 791 694 732 490 619 280 290 244 174 309 346 339 330 318 247 403 240 112 38 59 124 114 76 35 80 90
0 0 0 0 0 0 0 0 0 0 0 0 0 0 0 0 75 198 373 458 603 751 735 575 726 475 378 396 292 341 258 119 409 346 325 383 195 256 141 34 50 134 240 193 24 27 24 92 54
0 0 0 0 0 0 0 0 0 0 0 0 0 0 26 143 225 342 412 504 657 720 637 714 592 380 423 315 241 274 300 440 264 216 263 188 288 0 5 13 106 239 188 61 27 32 95 113 23
0 0 0 0 0 0 0 0 0 0 0 0 0 2 221 304 355 373 366 597 662 639 626 666 484 328 397 310 186 254 317 288 337 194 40 148 102 114 10 195 287 199 140 107 103 54 44 26 10
0 0 0 0 0 0 0 0 0 0 0 0 0 23 269 292 340 303 486 597 576 602 546 539 416 346 329 201 151 171 170 167 168 133 95 82 64 43 134 236 222 113 157 157 14 44 48 12 15
0 0 0 0 0 0 0 0 0 0 0 0 1 139 300 280 323 373 480 516 501 499 483 418 314 231 246 149 231 126 197 202 51 87 52 0 13 1 1 90 138 117 100 44 23 1 8 40 10

GFSSGP_con_mlcape_036.txt.gz
CAPE
0 0 0 0 0 0 0 0 0 0 0 0 0 0 0 0 0 0 0 1 26 0 0 0 0 0 0 0 0 0 0 0 0 0 0 0 0 0 0 0 0 0 0 0 0 0 0 0 0
0 0 0 0 0 0 0 0 0 4 0 0 0 0 0 0 0 0 0 61 22 0 0 0 0 0 0 0 0 0 0 0 0 0 0 0 0 0 0 0 0 0 0 0 0 0 0 0 0
0 0 0 0 0 0 0 0 0 2 0 0 0 0 0 0 0 0 0 69 6 0 0 0 0 0 0 0 0 0 0 0 0 0 0 0 0 0 0 0 0 0 0 0 0 0 10 11 0
0 0 0 0 0 0 0 0 0 0 0 0 0 0 0 0 0 0 40 44 0 0 0 0 0 0 0 0 0 0 0 0 0 0 0 0 0 0 0 0 0 0 0 15 41 94 122 126 118
0 0 0 0 0 0 0 0 0 0 0 0 0 0 0 0 0 20 31 44 0 0 0 0 0 0 0 0 0 0 0 0 0 0 0 0 0 0 0 0 0 4 14 85 187 295 270 199 250
0 0 0 0 0 0 0 0 0 0 0 0 0 0 0 0 3 43 76 10 0 0 0 0 0 0 0 0 0 0 0 0 0 0 0 0 0 0 0 0 0 46 195 342 423 274 257 163 166
0 0 0 0 0 0 0 0 0 0 1 2 0 0 0 0 0 15 47 13 0 0 0 0 0 0 0 0 0 0 0 0 0 0 2 6 13 20 32 29 17 104 287 524 552 332 281 90 45
0 0 0 0 0 0 0 0 0 0 0 0 0 0 0 0 0 0 24 0 0 0 0 0 0 0 0 0 0 0 0 0 0 0 11 39 57 63 95 64 65 139 344 651 417 309 144 106 69
0 0 0 0 0 0 0 0 0 0 0 0 0 0 0 0 0 0 0 0 6 35 9 42 4 0 0 0 0 0 0 0 0 6 30 65 102 100 126 102 112 199 355 668 461 388 214 184 159
0 0 0 0 0 0 0 0 0 0 0 0 0 0 0 0 0 0 0 0 0 35 21 121 160 34 6 0 0 18 35 10 24 23 50 88 77 86 125 142 239 377 515 738 676 520 328 397 118
0 0 0 0 0 0 0 0 0 0 0 0 0 0 0 0 0 0 0 0 0 0 15 160 196 129 90 17 0 112 59 44 64 37 25 110 83 136 158 88 202 541 859 857 866 566 409 253 76
0 0 0 0 0 0 0 0 0 0 0 0 0 0 0 0 0 0 0 0 0 0 0 71 202 227 215 168 94 98 111 76 95 108 99 52 68 68 58 47 255 423 649 595 604 349 206 164 119
0 0 0 0 0 0 0 0 0 0 0 0 0 0 0 0 0 0 0 0 0 0 0 0 121 274 271 262 277 266 245 144 141 238 215 144 71 60 50 169 448 517 458 429 354 142 132 159 116
0 0 0 0 0 0 0 0 0 0 0 0 0 0 0 0 0 0 0 0 0 0 0 0 81 247 400 325 306 356 441 356 249 234 194 174 179 111 122 554 480 171 197 291 233 197 222 212 25
0 0 0 0 0 0 0 0 0 0 0 0 0 0 0 0 0 0 0 0 0 0 0 0 9 229 405 428 394 506 596 563 424 313 329 295 366 255 321 696 461 219 289 231 175 101 46 11 0
0 0 0 0 0 0 0 0 0 0 0 0 0 0 0 0 0 0 0 0 0 0 0 0 2 53 301 483 435 657 735 740 650 585 586 690 653 471 653 598 403 400 377 262 122 46 51 47 46
0 0 0 0 0 0 0 0 0 0 0 0 0 0 0 0 0 0 0 0 0 0 0 0 2 15 116 330 532 714 841 875 766 733 863 935 855 671 801 585 330 346 341 267 205 161 104 90 44
0 0 0 0 0 0 0 0 0 0 0 0 0 0 0 0 0 0 0 0 0 0 0 0 25 153 306 488 783 792 801 776 751 872 965 883 885 889 540 282 344 400 368 331 304 252 112 95 47
0 0 0 0 0 0 0 0 0 0 0 0 0 0 0 0 0 0 0 0 0 0 0 9 51 330 570 815 1087 1045 950 720 459 499 697 762 731 137 121 327 346 358 412 385 183 130 124 63 36
0 0 0 0 0 0 0 0 0 0 0 0 0 0 0 0 0 0 0 0 0 0 19 42 203 492 945 1070 1054 963 729 346 220 158 159 156 178 207 360 415 546 525 439 235 138 106 46 27 0
0 0 0 0 0 0 0 0 0 0 0 0 0 0 0 0 0 0 0 0 0 2 34 215 554 900 1136 1329 1150 803 556 392 323 147 123 227 259 355 457 446 328 294 280 149 113 106 50 30 0
0 0 0 0 0 0 0 0 0 0 0 0 0 0 0 0 0 0 0 0 0 28 302 652 901 1266 1422 1382 1181 982 861 743 416 244 143 213 415 365 317 279 224 195 175 141 25 22 20 20 5
0 0 0 0 0 0 0 0 0 0 0 0 0 0 0 0 0 0 0 0 11 257 504 920 1220 1475 1348 1224 1086 942 740 427 156 160 198 268 328 340 319 179 151 99 0 0 19 41 19 26 11
0 0 0 0 0 0 0 0 0 0 0 0 0 0 0 0 0 0 0 0 188 468 603 761 1044 1290 1074 912 706 412 320 245 232 251 283 327 305 261 250 216 112 15 0 0 0 0 1 10 12
0 0 0 0 0 0 0 0 0 0 0 0 0 0 0 0 0 0 0 29 322 537 723 860 922 860 671 488 239 184 177 151 184 159 150 199 201 196 192 159 70 0 0 0 7 38 23 15 26
0 0 0 0 0 0 0 0 0 0 0 0 0 0 0 0 0 0 48 225 476 662 764 836 750 611 339 255 171 122 120 168 189 167 163 198 130 17 118 79 0 0 9 30 15 14 0 44 37
0 0 0 0 0 0 0 0 0 0 0 0 0 0 0 0 0 43 199 395 553 588 619 630 495 454 252 203 198 137 87 148 175 151 132 69 54 65 0 0 0 7 64 55 6 18 25 41 28
0 0 0 0 0 0 0 0 0 0 0 0 0 0 0 21 99 149 319 505 541 506 468 451 288 261 199 139 118 86 146 190 136 92 21 28 1 0 0 0 24 87 66 30 26 38 35 18 2
0 0 0 0 0 0 0 0 0 0 0 0 0 0 0 92 133 270 405 485 480 402 449 348 220 230 162 88 55 61 168 130 81 7 11 0 0 0 0 85 97 26 22 65 39 23 19 0 0
0 0 0 0 0 0 0 0 0 0 0 0 0 0 68 130 190 325 383 442 412 387 422 270 156 193 114 35 72 63 81 103 13 14 0 0 0 0 8 120 77 69 23 0 0 1 1 1 0

GFSSGP_con_mlcape_039.txt.gz
CAPE
0 0 0 0 0 0 0 0 0 0 0 0 0 0 0 0 0 0 0 0 0 0 0 0 0 0 0 0 0 0 0 0 0 0 0 0 0 0 0 0 0 0 0 0 0 0 0 0 0
0 0 0 0 0 0 0 0 0 0 0 0 0 0 0 0 0 0 0 0 19 1 0 0 0 0 0 0 0 0 0 0 0 0 0 0 0 0 0 0 0 0 0 0 0 0 0 0 0
0 0 0 0 0 0 0 0 0 0 0 0 0 0 0 0 0 0 0 0 30 13 0 0 0 0 0 0 0 0 0 0 0 0 0 0 0 0 0 0 0 0 0 0 0 0 0 7 11
0 0 0 0 0 0 0 0 0 0 0 0 0 0 0 0 0 0 0 8 1 0 0 0 0 0 0 0 0 0 0 0 0 0 0 0 0 0 0 0 0 0 0 0 0 61 92 115 108
0 0 0 0 0 0 0 0 0 0 0 0 0 0 0 0 0 0 0 9 0 0 0 0 0 0 0 0 0 0 0 0 0 0 0 0 0 0 0 0 0 3 31 82 126 189 298 377 345
0 0 0 0 0 0 0 0 0 0 0 0 0 0 0 0 0 1 3 5 0 0 0 0 0 0 0 0 0 0 0 0 0 0 0 0 0 0 0 0 35 77 120 169 276 412 349 313 225
0 0 0 0 0 0 0 0 0 0 0 0 0 0 0 0 0 5 14 12 0 0 0 0 0 0 0 0 0 0 0 0 0 0 0 0 0 2 17 26 67 101 168 319 507 607 376 360 205
0 0 0 0 0 0 0 0 0 0 0 0 0 0 0 0 0 75 62 25 4 0 0 0 0 0 0 0 0 0 0 0 0 0 0 0 0 20 31 53 75 106 211 376 576 658 386 376 162
0 0 0 0 0 0 0 0 0 0 0 0 0 0 0 0 0 9 23 5 14 0 0 0 0 0 0 0 0 16 0 0 0 0 18 38 55 63 52 74 76 134 190 465 637 588 367 329 262
0 0 0 0 0 0 0 0 0 0 0 0 0 0 0 0 0 0 0 5 8 7 16 1 0 0 0 0 2 40 27 13 3 0 31 90 70 24 75 92 140 202 244 462 663 723 518 449 259
0 0 0 0 0 0 0 0 0 0 0 0 0 0 0 0 0 0 0 0 0 0 34 69 67 7 0 0 2 35 63 22 12 1 23 110 79 46 176 86 139 335 470 701 795 946 652 325 217
0 0 0 0 0 0 0 0 0 0 0 0 0 0 0 0 0 0 0 0 0 0 0 56 118 85 24 1 1 21 34 20 9 10 7 0 5 0 4 31 26 66 312 643 690 676 534 293 224
0 0 0 0 0 0 0 0 0 0 0 0 0 0 0 0 0 0 0 0 0 0 0 0 77 102 111 60 31 57 68 36 35 77 79 5 0 0 0 9 15 29 256 495 578 569 463 197 122
0 0 0 0 0 0 0 0 0 0 0 0 0 0 0 0 0 0 0 0 0 0 0 0 16 74 158 174 178 184 175 186 147 125 122 96 28 0 0 0 0 14 377 498 426 383 279 105 110
0 0 0 0 0 0 0 0 0 0 0 0 0 0 0 0 0 0 0 0 0 0 0 0 0 13 118 204 267 306 296 310 255 224 217 183 134 12 0 0 0 111 390 186 220 279 189 169 94
0 0 0 0 0 0 0 0 0 0 0 0 0 0 0 0 0 0 0 0 0 0 0 0 0 0 97 229 297 351 433 466 411 348 340 313 234 173 74 32 0 414 238 147 226 212 97 63 26
0 0 0 0 0 0 0 0 0 0 0 0 0 0 0 0 0 0 0 0 0 0 0 0 0 0 64 273 385 401 515 590 582 517 501 431 341 314 212 183 167 307 230 242 227 183 103 73 53
0 0 0 0 0 0 0 0 0 0 0 0 0 0 0 0 0 0 0 0 0 0 0 0 0 0 45 233 365 500 646 712 688 690 699 638 629 593 473 275 396 222 230 275 173 172 85 88 59
0 0 0 0 0 0 0 0 0 0 0 0 0 0 0 0 0 0 0 0 0 0 0 0 0 0 10 85 319 519 641 692 754 793 840 862 836 720 574 624 416 211 285 262 198 189 132 53 30
0 0 0 0 0 0 0 0 0 0 0 0 0 0 0 0 0 0 0 0 0 0 0 0 0 11 74 225 335 553 531 575 749 834 965 991 917 887 750 420 179 206 268 280 197 148 83 15 6
0 0 0 0 0 0 0 0 0 0 0 0 0 0 0 0 0 0 0 0 0 0 0 0 7 91 383 565 586 520 440 481 508 622 759 758 752 656 126 105 182 297 230 167 185 39 1 9 0
0 0 0 0 0 0 0 0 0 0 0 0 0 0 0 0 0 0 0 0 0 0 0 49 196 413 687 761 766 727 577 557 293 270 210 178 207 342 153 264 327 176 124 76 5 0 0 0 0
0 0 0 0 0 0 0 0 0 0 0 0 0 0 0 0 0 0 0 0 0 0 1 343 618 866 895 900 786 664 643 396 149 83 113 151 185 249 294 277 168 35 0 0 0 0 0 0 0
0 0 0 0 0 0 0 0 0 0 0 0 0 0 0 0 0 0 0 0 0 0 213 593 785 954 1034 991 844 840 757 491 346 142 125 139 222 234 206 121 22 4 0 0 0 0 0 0 0
0 0 0 0 0 0 0 0 0 0 0 0 0 0 0 0 0 0 0 0 0 34 570 781 1001 1013 966 934 780 685 550 317 201 141 139 202 223 191 183 126 49 2 0 0 0 0 0 0 0
0 0 0 0 0 0 0 0 0 0 0 0 0 0 0 0 0 0 0 0 13 301 595 780 945 763 695 630 370 163 86 128 120 147 168 190 149 104 63 54 24 0 0 0 0 0 4 0 7
0 0 0 0 0 0 0 0 0 0 0 0 0 0 0 0 0 0 0 53 231 410 448 661 722 500 223 80 31 55 63 85 104 109 109 98 49 7 16 18 0 0 0 0 0 0 1 8 23
0 0 0 0 0 0 0 0 0 0 0 0 0 0 0 0 0 0 45 229 342 434 391 401 275 111 25 0 23 63 80 87 85 65 58 12 2 0 0 0 0 0 0 0 0 0 1 25 7
0 0 0 0 0 0 0 0 0 0 0 0 0 0 0 0 0 10 200 334 364 378 358 244 105 28 16 13 18 27 60 70 29 8 0 0 0 0 0 0 0 10 3 0 0 1 6 9 1
0 0 0 0 0 0 0 0 0 0 0 0 0 0 0 0 0 163 302 334 342 286 217 135 47 9 2 0 0 25 28 34 12 0 0 0 0 0 0 20 45 2 18 0 0 0 7 5 0

GFSSGP_con_mlcape_045.txt.gz
CAPE
0 0 0 0 0 0 0 0 0 0 0 0 0 0 0 0 0 0 0 0 0 0 32 0 0 0 0 0 0 0 0 0 0 0 0 0 0 0 0 0 0 0 0 0 0 0 0 0 0
0 0 0 0 0 0 0 0 0 0 0 0 0 0 0 0 0 0 0 0 0 0 5 0 0 0 0 0 0 0 0 0 0 0 0 0 0 0 0 0 0 0 0 0 0 0 0 0 0
0 0 0 0 0 0 0 0 0 0 0 0 0 0 0 0 0 0 0 0 0 0 0 0 0 0 0 0 0 0 0 0 0 0 0 0 0 0 0 0 0 0 0 0 0 0 0 0 0
0 0 0 0 0 0 0 0 0 0 0 0 0 0 0 0 0 0 0 0 0 0 0 0 0 0 0 0 0 0 0 0 0 0 0 0 0 0 0 0 0 0 0 0 0 28 34 49 67
0 0 0 0 0 0 0 0 0 0 0 0 0 0 0 0 0 0 0 0 0 0 35 0 0 0 0 0 0 0 0 0 0 0 0 0 0 0 0 0 0 0 4 13 16 71 132 195 303
0 0 0 0 0 0 0 0 0 0 0 0 0 0 0 0 0 0 0 0 30 0 18 0 37 0 0 0 0 0 0 0 0 0 0 0 0 0 0 0 0 22 67 104 140 207 230 351 193
0 0 0 0 0 0 0 0 0 0 0 0 0 0 0 0 0 0 0 11 39 36 26 7 46 20 0 30 0 0 0 0 0 0 0 0 0 0 0 0 0 11 64 148 279 314 437 395 269
0 0 0 0 0 0 0 0 0 0 0 0 0 0 0 0 1 43 14 0 11 58 89 4 6 145 19 51 47 6 0 0 0 0 0 16 19 7 0 0 4 23 92 234 333 431 598 516 300
0 0 0 0 0 0 0 0 0 0 0 0 0 0 0 0 6 62 54 39 11 10 14 11 0 68 139 119 272 191 76 1 0 1 14 42 49 63 34 21 32 90 172 268 447 657 722 635 419
0 0 0 0 0 0 0 0 0 0 0 0 0 0 0 0 0 13 66 19 12 51 50 0 0 0 47 7 95 359 245 172 79 63 131 133 119 146 72 91 70 168 239 280 494 740 888 747 515
0 0 0 0 0 0 0 0 0 0 0 0 0 0 0 0 0 0 0 5 37 58 81 35 0 0 10 30 42 107 317 260 281 204 263 262 228 231 195 149 180 209 310 235 349 570 864 809 678
0 0 0 0 0 0 0 0 0 0 0 0 0 0 0 0 0 0 0 0 0 0 0 62 76 28 34 45 39 56 103 197 157 200 310 218 315 256 165 166 103 329 222 325 507 624 903 1068 965
0 0 0 0 0 0 0 0 0 0 0 0 0 0 0 0 0 0 0 0 0 0 0 0 24 44 70 57 49 69 63 100 139 160 307 243 153 268 222 197 122 187 288 324 429 678 999 1025 1089
0 0 0 0 0 0 0 0 0 0 0 0 0 0 0 0 0 0 0 0 0 0 0 0 0 6 48 32 76 96 102 96 175 181 225 328 177 267 239 197 206 109 42 67 283 495 891 1036 930
0 0 0 0 0 0 0 0 0 0 0 0 0 0 0 0 0 0 0 0 0 0 0 0 0 0 0 3 18 74 121 123 163 213 242 298 280 301 240 135 127 62 138 88 159 211 704 985 765
0 0 0 0 0 0 0 0 0 0 0 0 0 0 0 0 0 0 0 0 0 0 0 0 0 0 0 0 1 37 129 139 195 250 259 322 339 300 288 186 114 90 170 87 115 87 845 903 632
0 0 0 0 0 0 0 0 0 0 0 0 0 0 0 0 0 0 0 0 0 0 0 0 0 0 0 0 5 76 133 159 241 323 325 389 388 349 347 277 218 95 75 50 72 176 843 627 522
0 0 0 0 0 0 0 0 0 0 0 0 0 0 0 0 0 0 0 0 0 0 0 0 0 0 0 0 5 85 294 369 428 445 459 452 519 501 477 400 303 231 83 46 53 529 715 680 772
0 0 0 0 0 0 0 0 0 0 0 0 0 0 0 0 0 0 0 0 0 0 0 0 0 0 0 0 0 29 152 465 547 614 640 647 738 657 562 542 393 256 80 64 243 795 726 609 207
0 0 0 0 0 0 0 0 0 0 0 0 0 0 0 0 0 0 0 0 0 0 0 0 0 0 0 0 0 216 397 354 408 689 786 842 826 716 726 654 297 128 185 554 726 569 558 620 209
0 0 0 0 0 0 0 0 0 0 0 0 0 0 0 0 0 0 0 0 0 0 0 0 0 0 0 0 39 212 394 377 505 738 854 846 867 796 772 553 380 501 874 821 632 618 543 97 1
0 0 0 0 0 0 0 0 0 0 0 0 0 0 0 0 0 0 0 0 0 0 0 0 0 0 0 0 56 196 317 309 622 745 1009 968 1022 948 696 594 756 903 930 756 622 360 160 73 36
0 0 0 0 0 0 0 0 0 0 0 0 0 0 0 0 0 0 0 0 0 0 0 0 0 0 0 7 127 259 334 566 748 895 1079 1154 1128 980 762 890 903 804 593 605 720 265 20 2 189
0 0 0 0 0 0 0 0 0 0 0 0 0 0 0 0 0 0 0 0 0 0 0 0 0 44 149 201 354 487 534 656 921 1127 1191 1115 1036 917 710 448 425 558 577 611 476 364 108 2 75
0 0 0 0 0 0 0 0 0 0 0 0 0 0 0 0 0 0 0 0 0 0 0 0 21 214 422 482 584 735 787 933 1069 1028 816 597 504 668 773 607 614 648 501 335 186 82 44 53 28
0 0 0 0 0 0 0 0 0 0 0 0 0 0 0 0 0 0 0 0 0 0 0 10 289 553 653 602 555 574 613 663 676 568 484 460 422 416 522 558 545 384 253 117 101 87 48 48 55
0 0 0 0 0 0 0 0 0 0 0 0 0 0 0 0 0 0 0 0 0 0 1 320 719 772 724 627 483 449 446 449 399 316 317 329 408 442 468 486 457 298 172 91 93 63 56 119 90
3 0 0 0 0 0 0 0 0 0 0 0 0 0 0 0 0 0 0 0 0 85 496 838 866 815 629 526 506 428 278 174 150 179 239 315 347 323 358 318 292 241 119 182 277 136 195 174 95
16 19 0 0 0 0 0 0 0 0 0 0 0 0 0 0 0 3 0 43 271 591 840 863 746 611 508 382 187 127 140 166 211 245 219 256 223 188 159 111 62 99 198 375 348 258 189 116 50
1 12 4 16 0 0 0 0 0 0 0 0 0 0 0 0 0 23 57 181 517 845 782 751 584 495 369 198 175 147 122 130 148 160 157 79 4 5 2 26 87 184 300 343 301 235 139 62 13

GFSSGP_con_mlcape_051.txt.gz
CAPE
0 0 0 0 0 0 0 0 0 0 0 0 0 0 0 0 21 81 100 0 0 5 559 0 0 0 0 0 0 0 0 25 296 612 686 447 140 30 0 0 0 0 0 0 0 0 0 0 0
0 0 0 0 0 0 0 0 0 0 0 0 0 0 10 0 0 0 66 0 0 119 361 0 0 0 0 0 0 0 0 0 4 86 206 126 43 0 0 0 0 0 0 0 0 0 0 0 0
0 0 0 0 0 0 0 0 0 0 0 0 0 0 1 2 0 0 0 8 20 242 338 83 0 0 0 0 0 0 0 0 0 0 0 0 0 0 0 0 0 0 0 0 0 0 0 7 10
0 0 0 0 0 0 0 0 0 0 0 0 0 0 0 2 72 0 0 0 45 134 231 205 4 0 0 0 0 0 0 0 0 0 0 0 0 0 0 0 0 0 0 0 0 3 16 48 83
0 0 0 0 0 0 0 0 0 0 2 0 0 0 0 0 2 27 0 4 29 52 160 500 96 0 0 0 0 0 0 0 0 0 0 0 0 0 0 0 0 0 0 0 0 21 50 104 199
0 0 0 0 0 0 0 0 0 0 0 0 0 5 4 0 53 27 0 0 0 36 126 757 315 5 0 0 0 0 0 0 0 0 0 0 0 0 0 0 0 0 18 23 36 86 118 179 361
0 0 0 0 0 0 0 0 0 0 0 0 0 1 59 5 58 33 0 0 0 37 113 925 869 165 87 0 0 0 0 0 0 0 0 0 0 0 0 0 0 11 49 75 106 183 237 271 382
0 0 0 0 0 0 0 0 0 0 0 0 0 25 117 58 60 30 0 0 0 15 103 186 1130 234 75 40 0 0 0 0 0 0 0 0 0 0 0 0 0 2 50 158 244 297 410 455 530
0 0 0 0 0 0 0 0 0 0 0 0 0 39 20 8 215 79 0 0 0 0 29 195 330 335 140 25 131 83 1 0 0 11 3 9 2 12 0 0 0 0 80 211 268 473 609 668 791
0 0 0 0 0 0 0 0 0 0 0 0 0 0 0 46 127 63 9 8 0 2 51 184 267 308 352 89 69 422 85 57 40 1 6 25 0 0 4 0 0 77 60 214 299 529 646 766 520
0 0 0 0 0 0 0 0 0 0 0 0 0 1 0 0 90 33 15 42 50 27 38 215 771 603 422 299 76 310 598 265 206 89 65 64 7 5 27 32 58 81 200 113 222 364 526 566 653
0 0 0 0 0 0 0 0 0 0 0 0 0 37 12 0 4 107 182 128 225 176 136 207 545 1372 1099 507 359 267 425 740 529 383 285 107 204 55 63 76 68 177 136 144 178 253 466 693 952
0 0 0 0 0 0 0 0 0 0 0 0 0 14 0 0 1 8 8 9 10 14 69 64 146 1451 1593 1323 647 651 678 607 644 683 848 466 219 229 137 209 165 200 202 225 282 292 582 806 878
0 0 0 0 0 0 0 0 0 0 0 0 0 0 0 0 0 4 0 0 0 0 0 3 4 556 1739 1517 1295 1293 1385 864 897 722 925 1094 695 565 334 413 382 235 256 240 329 399 533 672 776
0 0 0 0 0 0 0 0 0 0 0 0 0 0 0 0 10 0 0 0 0 0 0 1 58 151 1258 1938 1885 1783 1186 1293 1001 789 1043 1481 1338 1010 855 549 569 446 298 435 447 505 603 520 799
0 0 0 0 0 0 0 0 0 0 0 0 0 0 0 0 0 0 0 0 0 0 0 27 19 24 596 984 1363 1282 911 1050 796 888 921 1334 1694 1382 1170 683 733 687 565 387 355 451 321 545 431
0 0 0 0 0 0 0 0 0 0 0 0 0 0 0 0 0 0 0 0 0 0 1 54 29 5 22 187 309 401 571 666 609 711 892 1228 1364 1396 1385 908 858 971 670 519 480 463 326 239 203
0 0 0 0 0 0 0 0 0 0 0 0 0 0 0 0 0 1 2 0 0 0 0 39 49 8 99 101 218 135 106 369 741 798 934 1184 1492 1398 1429 1131 1214 1134 832 694 582 517 310 220 135
0 0 0 0 0 0 0 0 0 0 0 0 0 0 0 0 0 5 6 0 0 0 0 0 0 84 109 55 46 0 149 398 831 1005 1073 1208 1493 1420 1471 1215 1356 1293 1176 1155 854 510 347 196 1052
0 0 0 0 0 0 0 0 0 0 0 0 0 0 0 0 0 0 0 0 0 0 0 0 37 125 289 165 129 22 198 469 1000 1141 1316 1475 1517 1499 1502 1465 1552 1480 1381 1045 725 620 464 533 1084
0 0 0 0 0 0 0 0 0 0 0 0 0 0 0 0 0 0 0 0 0 0 0 0 16 99 366 187 173 483 848 1306 1147 1386 1653 1641 1512 1562 1412 1597 1637 1577 1371 1150 974 993 874 1198 1037
0 0 0 0 0 0 0 0 0 0 0 0 0 0 0 0 0 0 0 0 0 0 0 0 0 35 269 824 153 385 893 1184 1418 1496 1658 1678 1759 1638 1394 1558 1567 1601 1452 1384 1327 1432 1365 1185 873
3 1 0 0 0 0 0 0 0 0 0 0 0 0 0 0 0 0 0 0 0 0 0 0 0 9 118 563 319 531 1199 1259 1456 1538 2156 1769 1494 1523 1532 1661 1692 1572 1469 1528 1437 1307 1247 1101 1006
36 44 26 3 0 1 0 0 0 0 0 0 0 0 0 0 0 0 0 0 0 0 0 0 0 0 191 390 1110 1380 1528 1801 1761 2104 1875 1489 1429 1612 1529 1684 1586 1660 1499 1320 1224 1275 1252 1082 720
98 102 43 18 17 0 0 1 0 0 0 0 0 0 0 0 0 0 0 0 0 0 0 0 0 0 0 816 1317 1600 2108 2433 2374 2322 1998 1841 1566 1593 1656 1739 1763 1700 1360 1338 1300 1170 1131 939 589
7 16 51 29 33 21 1 1 1 0 0 0 0 0 0 0 0 0 0 0 0 0 0 0 0 0 647 1393 1591 1902 2109 2110 2221 2281 2122 1954 1952 1882 1934 1824 1632 1338 1110 1185 1141 1086 879 654 365
68 34 126 49 6 0 0 1 2 2 1 0 0 0 0 0 0 0 0 7 57 1 0 0 10 678 1436 1567 1849 2110 2324 2468 2212 2578 2286 1984 1897 2060 1720 1457 1231 1073 1087 969 954 759 467 327 405
85 132 72 47 4 2 3 3 14 0 0 0 0 0 0 0 0 0 58 358 562 276 0 4 200 1118 1589 1951 2221 2331 2497 2291 2300 2110 1800 1398 1197 1207 1376 1051 1010 921 968 780 569 310 407 203 239
11 56 40 114 50 6 0 15 2 1 0 0 1 0 0 0 0 0 459 666 709 641 327 409 997 1572 1876 2012 2050 2137 2078 1887 1809 1407 1116 1041 982 844 644 761 798 847 693 440 470 431 261 99 458
132 254 82 46 46 0 1 0 0 0 2 0 28 1 0 0 0 0 820 698 1325 895 1048 1338 1528 1672 1727 1817 1865 1805 1672 1369 1102 1015 954 912 693 460 384 515 596 350 289 290 201 171 144 224 210

GFSSGP_con_mlcape_054.txt.gz
CAPE
0 0 0 0 0 0 0 0 0 0 0 0 0 0 0 0 60 146 0 0 412 0 0 0 0 0 0 0 0 0 41 442 925 1096 1016 729 267 64 0 0 0 0 0 0 0 0 0 0 0
0 0 0 0 0 0 0 0 0 0 0 0 0 0 0 31 45 90 0 0 628 11 0 0 0 0 0 0 0 0 0 200 672 779 735 382 177 42 0 0 0 0 0 0 0 0 0 0 0
0 0 0 0 0 0 0 0 0 0 5 0 0 0 0 53 8 59 2 9 643 76 0 0 0 0 0 0 0 0 0 2 154 305 233 156 76 0 0 0 0 0 0 0 0 0 0 0 0
0 0 0 0 0 0 0 0 0 0 0 0 0 0 0 73 79 62 11 1 380 199 0 2 0 0 0 0 0 0 0 0 0 1 22 43 3 0 0 0 0 0 0 0 0 0 0 2 30
0 0 0 0 0 0 0 0 0 0 8 0 0 0 3 72 62 0 35 51 163 323 125 148 0 0 0 0 0 0 0 0 0 0 0 0 0 0 0 0 0 0 0 0 0 7 24 54 120
0 0 0 0 0 0 0 0 0 0 0 26 1 1 22 3 93 14 26 59 84 245 370 469 39 0 0 0 0 0 0 0 0 0 0 0 0 0 0 0 0 0 0 0 2 29 36 67 195
0 0 0 0 0 0 0 0 0 0 0 0 8 14 28 26 43 40 0 5 18 226 751 619 242 0 0 0 0 0 0 0 0 0 0 0 0 0 0 0 0 0 0 12 13 37 73 116 176
0 0 0 0 0 0 0 0 0 0 0 0 2 15 39 179 66 28 0 0 9 192 1000 875 529 171 0 0 0 0 0 0 0 0 0 0 0 0 0 0 0 0 0 48 40 80 181 226 290
0 0 0 0 0 0 0 0 0 0 0 0 0 3 106 140 44 50 0 0 0 27 744 1451 1065 379 43 19 66 4 0 0 0 0 0 0 0 0 0 0 0 0 3 96 108 183 320 430 523
0 0 0 0 0 0 0 0 0 0 0 0 0 0 2 78 174 182 5 0 16 0 51 572 1122 619 132 38 89 121 56 66 7 0 0 0 4 0 1 10 0 16 0 103 177 287 571 722 620
0 0 0 0 0 0 0 0 0 0 0 0 0 0 16 12 99 213 92 20 1 16 2 186 594 773 408 168 225 322 159 65 75 12 22 95 20 0 0 4 7 1 74 82 172 332 628 619 564
0 0 0 0 0 0 0 0 0 0 0 0 0 0 47 1 55 212 181 64 51 60 61 321 609 913 783 631 355 676 599 506 281 181 92 44 119 12 0 8 50 1 48 86 62 182 386 478 698
0 0 0 0 0 0 0 0 0 0 0 0 0 0 22 100 5 93 197 77 2 7 2 262 489 952 1024 685 967 443 632 1085 840 640 449 205 200 135 112 65 36 100 68 226 91 250 284 548 765
0 0 0 0 0 0 0 0 0 0 0 0 0 0 0 18 4 3 55 29 52 29 13 28 1221 1603 1591 1241 796 1346 891 801 1071 1167 1045 598 327 467 288 155 254 123 170 204 242 148 393 643 912
0 0 0 0 0 0 0 0 0 0 0 0 0 0 0 1 17 0 7 30 19 5 25 7 128 1367 1562 1286 1432 949 1586 1471 954 1445 1317 1222 823 436 617 425 165 541 313 402 392 330 428 925 883
0 0 0 0 0 0 0 0 0 0 0 0 0 0 0 0 0 2 18 73 18 1 11 5 0 319 725 1239 1519 1434 1165 1288 1793 1542 1325 1887 1452 1131 740 924 755 492 695 402 610 703 750 707 628
0 0 0 0 0 0 0 0 0 0 0 0 0 0 0 3 5 7 3 68 7 0 2 50 39 141 1378 1387 1553 1901 1972 2003 1798 1300 1357 1481 2022 1653 1582 1229 1026 1064 778 747 629 414 603 556 695
0 0 0 0 0 0 0 0 0 0 0 0 0 0 0 0 0 1 41 18 10 63 56 82 151 245 490 671 1443 1267 832 624 720 839 1151 1275 1774 2130 1516 1620 1294 1196 1076 871 806 656 617 560 505
0 0 0 0 0 0 0 0 0 0 0 0 0 0 0 0 1 0 5 11 36 0 0 0 17 71 130 21 53 35 70 87 307 821 1155 1419 1856 1815 1956 1471 1684 1182 1273 1040 1067 834 676 685 388
0 0 0 0 0 0 0 0 0 0 0 0 0 0 0 0 0 4 88 88 20 7 1 0 0 0 0 31 216 330 355 264 500 965 1340 1539 1821 1846 1832 1697 1524 1400 1423 1175 1225 969 652 520 559
0 0 0 0 0 0 0 0 0 0 0 0 0 0 0 0 0 6 16 34 56 0 0 0 1 2 23 60 533 671 378 256 891 1315 1506 1596 1815 1907 1875 1547 1576 1618 1348 1320 1268 883 675 680 471
0 0 0 0 0 0 0 0 0 0 0 0 0 0 0 0 0 0 0 1 0 0 0 0 0 3 20 99 846 466 440 261 484 1398 1731 1810 1807 1856 1772 1539 1607 1694 1359 1652 1141 1063 720 872 1025
0 0 0 0 0 0 0 0 0 0 0 0 0 0 0 0 0 0 0 0 0 0 0 0 0 0 2 280 462 681 698 1043 1382 1721 2038 1938 1822 1817 1625 1421 1794 1742 1356 1690 1351 1325 1129 1248 878
3 3 5 4 9 3 0 0 0 0 0 0 0 0 0 0 0 0 0 0 0 0 0 0 0 0 14 281 846 733 627 670 1567 1606 2215 1974 1754 1728 1518 1463 1677 1763 1594 1560 1414 1430 1232 908 840
23 54 0 8 6 5 0 0 0 0 0 0 0 3 6 9 3 0 0 0 0 0 0 0 0 0 20 513 1232 577 244 1379 2511 2260 2274 1830 1554 1377 1437 1481 1642 1602 1597 1499 1267 1225 1060 1033 930
7 23 5 0 0 9 3 11 0 0 0 0 0 1 0 0 0 0 0 0 0 0 0 0 0 0 170 702 468 1311 1099 2385 2863 2371 2078 1553 1288 1498 1426 1509 1725 1702 1530 1369 1267 1067 1013 854 564
32 42 96 122 37 10 0 0 0 0 0 0 0 2 9 12 0 0 0 0 0 0 51 0 0 0 29 108 731 1806 2156 2477 2791 2243 2124 1662 1582 1513 1522 1983 1742 1530 1224 1158 1020 850 489 497 576
170 142 125 83 10 19 5 7 0 6 30 2 0 12 3 15 0 0 0 0 286 313 317 0 0 4 55 1363 2020 2255 2828 2649 2654 2280 2311 2045 2216 2031 1958 1756 1392 1173 1067 895 820 539 461 332 243
12 136 100 22 11 0 3 0 3 0 74 1 59 5 55 55 0 0 4 339 611 1006 1032 9 24 976 1813 2052 2189 2531 2368 2906 2794 2586 2106 2023 2052 1887 1535 1449 1099 945 888 798 375 387 550 89 213
73 17 70 0 5 66 33 0 2 0 0 0 0 83 83 1 0 0 454 1109 854 775 900 327 531 1690 2088 2413 2527 2688 2431 2276 2237 1637 1386 1139 1151 1043 936 933 619 636 819 435 344 192 370 171 86

GFSSGP_con_mlcape_057.txt.gz
CAPE
0 0 0 0 0 0 0 0 0 0 0 0 0 0 0 7 71 26 1 17 0 0 0 0 0 0 0 0 0 4 281 591 806 778 652 357 82 0 0 0 0 0 0 0 0 0 0 0 0
0 0 0 0 0 0 0 0 0 0 0 0 0 0 0 89 60 0 78 3 0 0 0 0 0 0 0 0 0 0 84 519 744 842 697 403 78 21 0 0 0 0 0 0 0 0 0 0 0
0 0 0 0 0 0 0 0 0 0 0 0 0 0 0 110 29 0 183 0 0 0 0 0 0 0 0 0 0 0 5 141 495 604 480 189 46 1 0 0 0 0 0 0 0 0 0 0 0
0 0 0 0 0 0 0 0 0 0 15 48 0 0 57 78 12 8 407 3 0 0 0 0 0 0 0 0 0 0 0 0 77 194 198 95 33 0 0 0 0 0 0 0 0 0 0 0 11
0 0 0 0 0 0 0 0 0 0 0 94 3 0 72 71 33 228 347 24 0 0 0 0 0 0 0 0 0 0 0 0 0 5 35 26 18 0 0 0 0 0 0 0 0 0 15 26 61
0 0 0 0 0 0 0 0 0 0 0 0 1 0 15 42 39 67 246 98 0 0 0 0 0 0 0 0 0 0 0 0 0 0 0 0 0 0 0 0 0 0 0 0 0 9 21 36 101
0 0 0 0 0 0 0 0 0 0 0 0 0 0 39 10 16 40 115 138 0 8 0 0 0 0 0 0 0 0 0 0 0 0 0 0 0 0 0 0 0 0 0 0 0 16 32 55 120
0 0 0 0 0 0 0 0 0 0 0 0 0 0 20 17 0 16 53 47 208 246 143 1 0 0 0 0 0 0 0 0 0 0 0 0 0 0 0 0 0 0 0 0 2 28 133 144 151
0 0 0 0 0 0 0 0 0 0 0 0 0 2 156 83 3 0 21 28 363 465 313 253 2 0 0 0 0 0 0 0 0 0 0 0 0 0 0 0 0 0 0 0 13 70 182 232 258
0 0 0 0 0 0 0 0 0 0 0 0 0 0 38 138 1 0 3 28 204 495 533 345 202 5 0 0 0 0 0 0 0 0 0 0 0 0 0 0 0 0 0 0 32 142 261 339 388
0 0 0 0 0 0 0 0 0 0 0 0 0 0 43 71 190 87 0 2 49 357 481 535 430 134 0 0 0 0 0 0 0 0 0 0 0 0 0 0 0 0 0 0 24 156 401 412 477
0 0 0 0 0 0 0 0 0 0 0 0 0 0 0 0 89 195 106 2 4 101 302 753 575 294 44 0 12 16 6 0 0 0 0 0 0 0 0 0 0 0 0 0 0 5 99 298 365
0 0 0 0 0 0 0 0 0 0 0 0 0 0 0 0 27 123 151 85 27 88 152 737 899 583 250 197 232 217 197 140 92 83 27 1 0 0 0 0 0 0 0 0 0 0 25 80 121
0 0 0 0 0 0 0 0 0 0 0 0 0 0 0 0 0 13 1 14 44 26 135 500 532 842 596 510 389 464 416 370 343 323 329 208 74 75 3 0 0 6 0 8 12 12 34 112 238
0 0 0 0 0 0 0 0 0 0 0 0 0 0 0 0 0 0 1 0 22 0 89 0 19 11 469 914 916 866 824 658 750 703 665 477 246 180 107 64 11 16 11 20 62 65 35 174 335
0 0 0 0 0 0 0 0 0 0 0 0 0 0 0 1 0 0 0 0 0 1 0 42 152 155 415 1239 867 735 830 1257 1186 1028 1069 974 604 332 339 224 169 40 84 91 77 139 147 114 337
0 0 0 0 0 0 0 0 0 0 0 0 0 0 0 0 0 0 0 0 57 3 0 0 216 1498 1643 1571 1479 987 580 247 930 1403 1245 1247 1069 753 437 480 307 266 180 309 290 278 272 301 312
0 0 0 0 0 0 0 0 0 0 0 0 0 0 0 0 0 0 0 0 0 26 30 21 83 1126 1540 1644 1522 1122 955 900 933 913 1180 1232 1494 1237 821 641 806 662 530 458 494 400 352 362 532
0 0 0 0 0 0 0 0 0 0 0 0 0 0 0 0 0 0 0 0 2 77 108 163 97 291 631 590 713 937 958 1121 1294 1114 840 1013 1463 1526 1427 1151 943 950 972 767 636 648 485 447 370
0 0 0 0 0 0 0 0 0 0 0 0 0 0 0 0 0 0 0 2 0 24 56 49 10 36 123 72 14 0 0 10 39 14 158 592 1237 1628 1614 1489 1380 1362 1116 967 865 750 682 517 385
0 0 0 0 0 0 0 0 0 0 0 0 0 0 0 0 0 0 0 0 4 20 19 1 0 0 0 19 1 0 0 40 145 495 534 882 1441 1643 1762 1466 1261 1300 1318 1066 1009 904 736 571 340
0 0 0 0 0 0 0 0 0 0 0 0 0 0 0 0 0 0 0 0 0 63 11 0 0 0 0 0 0 0 0 0 0 58 586 1345 1601 1608 1587 1527 1438 1323 1403 1175 1124 1031 776 573 481
0 0 0 0 0 0 0 0 0 0 0 0 0 0 0 0 0 0 0 0 0 15 12 6 0 0 0 0 0 0 0 5 286 295 1135 1422 1513 1644 1613 1537 1394 1363 1494 1243 1122 1065 756 468 590
4 0 0 0 0 0 0 0 0 0 0 0 0 0 0 0 0 0 0 0 0 0 0 0 0 0 0 0 0 0 0 67 427 775 1514 1564 1521 1541 1576 1462 1293 1336 1549 1274 1277 1071 826 822 688
0 0 0 0 0 0 0 5 0 0 0 0 0 0 0 0 0 0 0 0 0 0 0 0 0 0 0 0 0 0 6 106 237 989 1828 1747 1642 1545 1455 1340 1232 1317 1521 1300 1356 1086 1060 830 693
0 0 1 0 0 0 0 0 0 0 0 0 0 0 0 0 0 0 0 0 0 0 0 0 0 0 0 0 2 159 289 343 391 1263 1731 1623 1583 1497 1341 1182 1226 1375 1488 1271 1125 1010 932 795 648
0 0 13 6 0 0 0 0 0 0 2 22 0 0 0 0 0 1 1 0 0 0 0 0 0 0 0 0 192 314 317 264 547 1789 1805 1654 1549 1485 1254 1116 1231 1483 1210 1146 908 854 712 583 395
10 8 0 2 4 0 0 0 12 42 23 3 0 0 0 0 0 35 1 0 0 8 81 123 80 1 0 11 297 715 924 792 1599 2008 1925 1651 1347 1174 1125 1158 1361 1365 1126 972 829 530 395 328 250
2 0 0 0 0 3 0 0 60 3 2 0 0 0 0 0 0 10 4 158 415 659 547 503 416 7 0 318 634 865 1406 1569 2411 2207 1854 1472 1279 1222 1308 1307 1482 1117 833 705 494 284 288 312 190
0 0 0 0 0 8 33 0 3 0 0 0 0 0 0 0 0 0 0 385 619 425 508 550 451 11 139 488 1330 1669 1698 2479 2394 2133 2088 1850 1477 1521 1416 1333 942 814 645 491 175 238 299 204 50

GFSSGP_con_mlcape_060.txt.gz
CAPE
0 0 0 0 0 0 0 0 0 0 0 0 0 0 3 86 97 44 0 0 0 0 0 13 12 0 0 0 8 41 119 180 292 292 146 0 0 0 0 0 0 0 0 0 0 0 0 0 0
0 0 0 0 0 0 0 0 0 0 0 0 0 0 25 100 49 79 5 0 0 0 0 0 0 0 0 0 0 27 68 166 263 281 201 10 0 0 0 0 0 0 0 0 0 0 0 0 0
0 0 0 0 0 0 0 0 0 0 0 0 0 0 53 79 65 74 42 0 0 0 0 0 0 0 0 0 0 8 47 110 214 284 243 70 0 0 0 0 0 0 0 0 0 0 0 0 0
0 0 0 0 0 0 0 0 0 0 0 0 0 4 77 20 81 35 4 0 0 0 0 0 0 0 0 0 0 0 19 86 125 239 222 113 35 0 0 0 0 0 0 0 0 0 0 0 3
0 0 0 0 0 0 0 0 0 0 0 0 0 11 72 17 34 37 0 0 0 0 0 0 0 0 0 0 0 0 0 29 109 176 136 89 25 0 0 0 0 0 0 0 0 0 0 17 42
0 0 0 0 0 0 0 0 0 0 0 0 0 16 63 67 55 9 0 0 0 0 0 0 5 0 0 0 0 0 0 0 49 136 69 20 0 0 0 0 0 0 0 0 10 2 17 43 67
0 0 0 0 0 0 0 0 0 0 0 0 0 0 3 74 175 33 0 0 0 0 0 0 0 0 0 0 0 0 0 0 0 0 0 0 0 0 0 0 0 0 0 0 20 25 33 50 66
0 0 0 0 0 0 0 0 0 0 0 0 0 2 11 12 341 200 0 0 0 0 0 0 0 0 0 0 0 0 0 0 0 0 0 0 0 0 0 0 0 0 0 0 13 37 49 71 84
0 0 0 0 0 0 0 0 0 0 0 0 0 0 78 31 25 106 7 0 0 0 0 0 0 0 0 0 0 0 0 0 0 0 0 0 0 0 0 0 0 0 0 0 0 40 60 113 171
0 0 0 0 0 0 0 0 0 0 0 0 0 0 10 26 61 117 97 2 0 0 0 0 0 0 0 0 0 0 0 0 0 0 0 0 0 0 0 0 0 0 0 0 0 45 96 182 176
0 0 0 0 0 0 0 0 0 0 0 0 0 0 0 0 4 45 67 61 0 4 24 16 0 0 0 0 0 0 0 0 0 0 0 0 0 0 0 0 0 0 0 0 1 34 149 126 175
0 0 0 0 0 0 0 0 0 0 0 0 0 0 0 0 0 0 0 43 168 282 205 110 23 0 0 0 0 0 0 0 0 0 0 0 0 0 0 0 0 0 0 0 0 0 0 64 148
0 0 0 0 0 0 0 0 0 0 0 0 0 0 0 0 0 0 0 0 85 459 601 432 273 8 0 0 0 0 0 0 0 0 0 0 0 0 0 0 0 0 0 0 0 0 0 2 35
0 0 0 0 0 0 0 0 0 0 0 0 0 0 0 0 0 0 0 3 0 96 738 806 522 205 5 0 0 0 0 0 0 0 0 0 0 0 0 0 0 0 0 0 0 0 0 4 25
0 0 0 0 0 0 0 0 0 0 0 0 0 0 0 0 0 0 0 4 23 95 229 611 762 456 118 28 50 95 92 120 128 112 85 89 76 62 3 0 0 0 0 0 0 0 0 11 43
0 0 0 0 0 0 0 0 0 0 0 0 0 0 0 0 0 0 0 0 1 48 156 376 795 562 477 317 333 411 379 373 336 265 248 273 298 198 202 118 44 0 0 0 0 15 21 17 54
0 0 0 0 0 0 0 0 0 0 0 0 0 0 0 0 0 0 0 0 0 28 48 206 273 244 472 815 670 685 763 688 655 596 628 639 600 437 304 340 204 39 17 0 6 28 40 76 94
0 0 0 0 0 0 0 0 0 0 0 0 0 0 0 0 0 0 0 0 0 0 67 117 53 7 59 181 682 964 990 1050 1034 1157 1141 1050 982 761 517 605 418 263 81 48 32 66 96 151 210
0 0 0 0 0 0 0 0 0 0 0 0 0 0 0 0 0 0 0 0 0 0 0 9 11 77 217 635 644 848 979 952 786 563 486 1047 1184 1127 912 723 650 462 429 245 197 183 254 282 298
0 0 0 0 0 0 0 0 0 0 0 0 0 0 0 0 0 0 0 0 0 0 0 8 16 216 502 584 591 752 881 704 624 737 869 1004 1234 1419 1230 934 799 792 711 513 477 466 417 342 167
0 0 0 0 0 0 0 0 0 0 0 0 0 0 0 0 0 0 0 0 0 0 24 55 60 174 692 795 758 543 549 318 356 316 192 168 376 818 1011 984 1093 1013 875 854 794 655 601 565 283
0 0 0 0 0 0 0 0 0 0 0 0 0 0 0 0 0 0 0 0 0 0 5 68 135 290 587 367 259 310 7 1 0 0 30 72 447 807 1089 1210 1295 1308 1113 1110 975 785 655 556 546
0 0 0 0 0 0 0 0 0 0 0 0 0 0 0 0 0 0 0 0 0 0 0 0 13 46 158 228 72 19 0 0 0 0 0 137 410 1073 1383 1432 1397 1339 1172 1114 1057 856 743 615 616
0 0 0 0 0 0 0 0 0 0 0 0 0 0 0 0 0 0 0 0 0 0 0 0 0 26 19 4 0 0 0 0 0 0 16 282 757 1360 1544 1458 1363 1311 1201 1188 1098 932 768 665 542
0 0 0 0 0 0 0 0 0 0 0 0 0 0 0 0 0 0 0 0 0 0 0 2 0 0 0 0 0 0 0 0 0 0 104 327 1095 1372 1416 1358 1333 1285 1183 1243 1055 996 911 709 509
0 0 0 0 0 0 0 0 0 0 0 0 0 0 0 0 0 0 0 0 0 0 0 0 0 0 0 0 0 0 0 0 0 5 155 666 1293 1398 1313 1349 1205 1062 1191 1239 1049 1145 880 596 598
0 0 0 15 0 0 0 0 0 0 0 0 0 0 0 0 0 0 0 0 0 0 0 0 0 0 0 0 0 0 0 1 3 50 510 1042 1378 1374 1336 1273 1050 1006 1133 1089 1039 965 802 696 518
0 1 3 1 0 0 0 0 0 0 0 0 0 0 0 0 0 0 0 0 0 0 0 0 0 0 0 0 0 0 0 49 160 411 616 1067 1348 1416 1273 1032 925 1005 1151 908 848 736 638 552 356
0 0 1 0 0 0 2 0 0 0 0 0 0 0 0 0 0 0 0 0 0 249 4 32 60 6 0 0 0 3 57 254 711 798 731 898 1423 1361 1209 987 939 1124 982 756 683 562 353 234 81
0 0 0 0 0 0 1 0 0 0 0 0 0 0 0 0 0 0 0 0 24 633 647 584 501 277 137 86 100 179 516 856 978 899 778 1427 1464 1205 1040 1015 1008 1099 926 678 510 256 119 123 78

GFSSGP_con_mlcape_063.txt.gz
CAPE
0 0 0 0 0 0 0 0 0 0 0 0 0 0 0 0 7 8 0 0 0 0 27 76 60 181 91 74 72 46 44 48 35 17 0 0 0 0 0 0 0 0 0 0 0 0 0 0 0
0 0 0 0 0 0 0 0 0 0 0 0 0 0 0 8 0 18 4 0 0 0 18 25 34 112 47 30 31 22 49 80 64 15 0 0 0 0 0 0 0 0 0 0 0 0 0 0 0
0 0 0 0 0 0 0 0 0 0 0 0 0 0 0 34 8 13 2 0 0 0 11 16 8 68 38 7 0 28 46 114 66 45 23 0 0 0 0 0 0 0 0 0 0 0 0 0 0
0 0 0 0 0 0 0 0 0 0 0 0 0 0 10 2 77 32 0 0 0 0 0 15 0 2 46 17 0 25 57 60 49 59 28 0 0 0 0 0 0 0 0 0 0 0 0 0 6
0 0 0 0 0 0 0 0 0 0 0 0 0 0 0 7 92 71 0 0 0 0 0 13 0 0 66 27 0 13 35 51 46 68 56 3 0 0 0 0 0 0 0 0 0 0 0 3 19
0 0 0 0 0 0 0 0 0 0 0 0 0 0 32 57 83 24 0 0 0 0 0 0 0 0 60 50 0 7 32 34 66 80 59 17 3 0 0 0 0 0 0 0 0 0 0 19 45
0 0 0 0 0 0 0 0 0 0 0 0 0 0 0 100 131 0 0 0 0 0 0 0 0 0 47 48 16 27 39 41 53 56 43 10 0 0 0 0 0 0 0 0 2 9 7 29 68
0 0 0 0 0 0 0 0 0 0 0 0 0 0 1 14 179 0 0 0 0 0 0 0 0 0 0 30 80 8 15 48 68 30 45 9 0 0 0 0 0 0 0 0 0 13 33 50 76
0 0 0 0 0 0 0 0 0 0 0 0 0 0 0 177 203 2 0 0 0 0 0 0 0 0 0 0 15 24 35 40 63 52 7 8 0 9 0 0 0 0 0 0 0 0 59 67 82
0 0 0 0 0 0 0 0 0 0 0 0 0 0 0 46 179 33 0 0 0 0 0 0 0 0 0 0 0 0 0 13 5 8 1 0 0 0 0 0 0 0 0 0 0 0 57 89 61
0 0 0 0 0 0 0 0 0 0 0 0 0 0 0 0 92 154 3 0 0 0 0 0 0 0 0 0 0 0 0 0 0 0 0 0 0 0 0 0 0 0 0 0 0 1 53 25 55
0 0 0 0 0 0 0 0 0 0 0 0 0 0 0 0 0 0 58 13 1 0 0 0 0 0 0 0 0 0 0 0 0 0 0 0 0 0 0 0 0 0 0 0 0 0 0 5 29
0 0 0 0 0 0 0 0 0 0 0 0 0 0 0 0 0 0 0 0 52 55 54 0 0 0 0 0 0 0 0 0 0 0 0 0 0 0 0 0 0 0 0 0 0 0 0 0 0
0 0 0 0 0 0 0 0 0 0 0 0 0 0 0 0 0 0 0 0 0 113 327 356 15 0 0 0 0 0 0 0 0 0 0 0 0 0 0 0 0 0 0 0 0 0 0 0 0
0 0 0 0 0 0 0 0 0 0 0 0 0 0 0 0 0 0 0 0 3 5 297 549 376 145 0 0 0 0 0 0 0 0 0 0 0 0 0 0 0 0 0 0 0 0 0 0 0
0 0 0 0 0 0 0 0 0 0 0 0 0 0 0 0 0 0 0 0 1 10 105 500 745 481 190 1 0 0 0 0 0 0 0 0 1 3 4 0 0 0 0 0 0 0 0 0 0
0 0 0 0 0 0 0 0 0 0 0 0 0 0 0 0 0 0 0 0 0 0 73 299 758 687 472 220 66 15 1 0 11 34 102 165 175 149 167 139 120 48 35 9 4 7 0 0 8
0 0 0 0 0 0 0 0 0 0 0 0 0 0 0 0 0 0 0 0 0 0 5 123 328 606 646 444 305 233 186 311 312 391 414 416 382 345 276 288 238 146 117 78 20 30 0 19 32
0 0 0 0 0 0 0 0 0 0 0 0 0 0 0 0 0 0 0 0 0 0 0 7 45 216 552 732 663 570 498 564 664 749 736 784 770 614 473 527 406 267 238 295 125 34 50 52 42
0 0 0 0 0 0 0 0 0 0 0 0 0 0 0 0 0 0 0 0 0 0 0 0 23 93 225 378 639 591 513 420 341 1028 986 972 855 623 877 819 625 487 440 326 241 125 111 118 80
0 0 0 0 0 0 0 0 0 0 0 0 0 0 0 0 0 0 0 0 0 0 0 0 0 4 119 222 304 310 366 353 574 725 748 815 440 559 823 786 756 752 615 540 397 288 295 392 161
0 0 0 0 0 0 0 0 0 0 0 0 0 0 0 0 0 0 0 0 0 0 0 0 0 0 0 86 245 276 230 284 349 385 472 481 579 693 848 810 706 713 666 691 648 465 449 412 449
0 0 0 0 0 0 0 0 0 0 0 0 0 0 0 0 0 0 0 0 0 0 0 0 0 0 4 114 280 359 236 216 175 177 228 173 117 245 372 473 588 707 750 895 855 705 609 491 464
0 0 0 0 0 0 0 0 0 0 0 0 0 0 0 0 0 0 0 0 0 0 0 0 0 0 9 137 167 224 207 145 201 77 33 0 30 258 570 770 814 935 1068 1109 987 886 763 597 478
0 0 0 0 0 0 0 0 0 0 0 0 0 0 0 0 0 0 0 0 0 0 0 0 0 0 0 33 41 110 180 186 139 71 0 1 45 192 474 992 1151 1217 1225 1089 948 874 719 647 535
0 0 0 0 0 0 0 0 0 0 0 0 0 0 0 0 0 0 0 0 0 0 0 0 0 0 0 0 12 59 98 107 47 0 0 0 0 153 630 1239 1244 1203 1143 1042 887 765 697 635 445
0 0 0 0 0 0 0 0 0 0 0 0 0 0 0 0 0 0 0 0 0 0 0 0 0 0 0 0 0 39 94 18 0 0 0 0 98 431 931 1225 1221 1219 1136 982 940 808 791 647 394
0 0 0 0 0 0 0 0 0 0 0 0 0 0 0 0 0 0 0 0 0 0 0 0 0 0 0 0 0 0 0 0 0 0 0 101 312 684 1089 1236 1186 1088 924 993 883 818 654 456 346
0 0 0 0 0 0 0 0 0 0 0 0 0 0 0 0 0 0 0 0 0 0 0 111 0 0 0 0 0 0 0 0 0 4 93 265 539 911 1172 1241 1152 882 899 901 756 711 542 493 358
0 0 0 0 0 4 6 0 0 0 0 0 0 0 0 0 0 0 0 0 0 0 0 4 378 0 0 0 0 0 0 1 25 61 280 510 644 1088 1200 1195 963 853 802 794 663 614 449 362 110

GFSSGP_con_mlcape_066.txt.gz
CAPE
0 0 0 0 0 0 0 0 0 0 0 0 0 0 0 0 0 0 0 0 0 0 152 1039 937 794 549 303 158 45 3 0 0 0 0 0 0 0 0 0 0 0 0 0 0 0 0 0 0
0 0 0 0 0 0 0 0 0 0 0 0 0 0 0 0 0 0 0 0 0 0 72 612 838 476 414 255 134 68 34 9 0 0 0 0 0 0 0 0 0 0 0 0 0 0 0 0 0
0 0 0 0 0 0 0 0 0 0 0 0 0 0 0 0 15 0 0 0 0 0 50 252 881 370 277 172 123 74 49 33 12 0 0 0 0 0 0 0 0 0 0 0 0 0 0 0 0
0 0 0 0 0 0 0 0 0 0 0 0 0 0 0 10 21 22 0 0 0 0 11 161 730 281 324 177 107 85 54 34 30 4 0 0 0 0 0 0 0 0 0 0 0 0 0 0 0
0 0 0 0 0 0 0 0 0 0 0 0 0 0 0 10 34 8 0 0 0 0 0 180 598 258 280 235 171 125 81 63 53 47 19 7 0 0 0 0 0 0 0 0 0 0 0 0 0
0 0 0 0 0 0 0 0 0 0 0 0 0 0 0 29 44 5 0 0 0 0 0 138 544 211 259 332 276 238 152 113 107 71 45 31 2 0 0 0 0 0 0 0 0 0 0 0 0
0 0 0 0 0 0 0 0 0 0 0 0 0 0 0 0 33 0 0 0 0 0 0 74 312 259 224 342 409 388 239 200 160 122 56 23 0 0 0 0 0 0 0 0 0 0 0 0 0
0 0 0 0 0 0 0 0 0 0 0 0 0 0 0 0 0 0 0 0 0 0 0 0 76 173 83 195 425 493 415 303 237 166 74 17 0 0 0 0 0 0 0 0 0 0 0 0 0
0 0 0 0 0 0 0 0 0 0 0 0 0 0 0 15 23 0 0 0 0 0 0 0 0 47 11 8 248 731 768 538 490 376 199 89 49 23 0 0 0 0 0 0 0 0 0 0 6
0 0 0 0 0 0 0 0 0 0 0 0 0 0 0 0 145 14 0 0 0 0 0 0 0 0 0 0 48 305 570 689 496 422 300 209 68 13 0 0 0 0 0 0 0 0 1 31 18
0 0 0 0 0 0 0 0 0 0 0 0 0 0 0 0 2 14 9 0 0 0 0 3 3 0 0 0 0 7 79 200 241 213 149 131 23 5 34 0 0 0 0 0 23 6 7 4 4
0 0 0 0 0 0 0 0 0 0 0 0 0 0 0 0 0 0 0 6 0 0 0 0 3 0 0 0 0 0 0 0 0 0 49 0 0 0 0 0 0 0 0 0 0 0 0 6 3
0 0 0 0 0 0 0 0 0 0 0 0 0 0 0 0 0 0 0 0 19 0 0 0 0 0 0 0 0 0 0 0 0 0 0 0 0 0 0 0 0 0 0 0 0 0 0 0 0
0 0 0 0 0 0 0 0 0 0 0 0 0 0 0 0 0 0 0 0 0 3 2 0 0 0 0 0 0 0 0 0 0 0 0 0 0 0 0 0 0 0 0 0 0 0 0 0 0
0 0 0 0 0 0 0 0 0 0 0 0 0 0 0 0 0 0 0 0 0 0 18 75 0 0 0 0 0 0 0 0 0 0 0 0 0 0 0 0 0 0 0 0 0 0 0 0 0
0 0 0 0 0 0 0 0 0 0 0 0 0 0 0 0 0 0 0 0 0 0 0 175 340 119 1 0 0 0 0 0 0 0 0 0 0 0 0 0 0 0 0 0 0 0 0 0 0
0 0 0 0 0 0 0 0 0 0 0 0 0 0 0 0 0 0 0 0 0 0 0 3 245 356 260 22 0 0 0 0 0 0 0 0 0 0 0 0 0 0 0 7 0 0 0 0 0
0 0 0 0 0 0 0 0 0 0 0 0 0 0 0 0 0 0 0 0 0 0 0 0 19 462 373 305 56 0 0 0 0 0 0 0 0 0 0 6 35 36 73 105 25 40 0 0 9
0 0 0 0 0 0 0 0 0 0 0 0 0 0 0 0 0 0 0 0 0 0 0 0 0 29 513 365 293 189 126 48 53 16 6 14 24 72 26 92 168 129 233 282 139 78 59 14 0
0 0 0 0 0 0 0 0 0 0 0 0 0 0 0 0 0 0 0 0 0 0 0 0 0 0 1 336 435 411 415 263 208 220 147 152 114 311 325 330 351 313 347 288 201 128 159 55 0
0 0 0 0 0 0 0 0 0 0 0 0 0 0 0 0 0 0 0 0 0 0 0 0 0 0 0 4 278 434 416 406 451 401 507 349 518 668 739 559 405 441 462 320 289 242 230 383 67
0 0 0 0 0 0 0 0 0 0 0 0 0 0 0 0 0 0 0 0 0 0 0 0 0 0 0 0 21 251 602 618 539 455 555 673 669 865 819 486 479 557 448 475 391 268 288 257 406
0 0 0 0 0 0 0 0 0 0 0 0 0 0 0 0 0 0 0 0 0 0 0 0 0 0 0 0 0 43 217 399 365 289 410 413 619 634 494 698 779 544 490 539 475 411 377 273 430
0 0 0 0 0 0 0 0 0 0 0 0 0 0 0 0 0 0 0 0 0 0 0 0 0 0 0 0 0 0 82 287 147 163 224 368 421 381 334 287 300 321 350 410 543 586 444 471 481
0 0 0 0 0 0 0 0 0 0 0 0 0 0 0 0 0 0 0 0 0 0 0 0 0 0 0 0 0 0 31 156 107 88 216 288 187 92 30 93 146 297 435 560 694 705 639 615 604
0 0 0 0 0 0 0 0 0 0 0 0 0 0 0 0 0 0 0 0 0 0 0 0 0 0 0 0 0 0 7 190 241 165 136 256 110 36 46 76 293 514 733 789 814 798 792 659 532
0 0 0 0 0 0 0 0 0 0 0 0 0 0 0 0 0 0 0 0 0 0 0 0 0 0 0 0 0 0 0 20 3 106 200 185 122 45 61 181 408 839 970 971 818 811 724 550 514
0 0 0 0 0 0 0 0 0 0 0 0 0 0 0 0 0 0 0 0 0 0 0 0 0 0 0 0 0 0 0 0 0 25 209 149 94 45 83 345 686 1066 1000 866 758 722 630 574 418
0 0 0 0 0 0 0 0 0 0 0 0 0 0 0 0 0 0 0 0 0 0 0 0 0 0 0 0 0 0 0 0 0 13 101 110 16 69 214 436 852 1100 1012 823 800 827 631 592 382
0 0 0 0 0 0 0 0 0 0 0 0 0 0 0 0 0 0 0 0 0 0 0 0 0 0 49 0 0 0 0 0 0 99 15 0 26 248 392 580 1019 1079 943 739 823 683 652 460 376

GFSSGP_con_mlcape_069.txt.gz
CAPE
0 0 0 0 0 0 0 0 0 0 0 0 0 0 0 0 0 0 0 28 0 1 759 1498 881 516 146 26 27 199 632 792 924 871 627 441 416 273 190 16 0 0 0 0 0 0 0 0 0
0 0 0 0 0 0 0 0 0 0 0 0 0 0 0 0 0 0 0 3 0 61 684 1195 979 850 412 91 18 4 41 86 133 102 92 81 79 8 0 0 0 0 0 0 0 0 0 0 0
0 0 0 0 0 0 0 0 0 0 0 0 0 0 0 0 17 0 2 0 0 126 495 1057 1106 1129 663 229 68 6 0 0 0 0 0 0 0 0 0 0 0 0 0 0 0 0 0 0 0
0 0 0 0 0 0 0 0 0 0 0 0 0 0 0 0 11 66 3 0 0 76 292 913 950 1331 835 479 142 63 0 0 0 0 0 0 0 0 0 0 0 0 0 0 0 0 0 0 0
0 0 0 0 0 0 0 0 0 0 0 0 0 0 0 0 87 45 17 0 0 41 189 834 922 1306 1019 698 333 187 59 16 0 0 0 0 0 0 0 0 0 0 0 0 0 0 0 0 0
0 0 0 0 0 0 0 0 0 0 0 0 0 0 0 0 46 36 6 0 0 72 225 580 780 1124 1098 849 631 326 156 67 7 0 0 0 0 0 0 0 0 0 0 0 0 0 0 0 0
0 0 0 0 0 0 0 0 0 0 0 0 0 0 0 0 14 13 7 0 0 53 123 619 653 893 995 886 793 598 338 194 67 26 0 0 0 0 0 0 0 0 0 0 0 0 0 0 0
0 0 0 0 0 0 0 0 0 0 0 0 0 0 0 0 45 23 32 0 0 4 24 320 619 674 843 832 832 687 564 446 296 172 108 46 23 0 0 0 0 0 0 0 0 0 0 0 0
0 0 0 0 0 0 0 0 0 0 0 0 0 0 0 0 98 34 34 6 0 0 48 169 338 495 563 612 902 767 644 695 646 521 410 263 248 228 98 0 0 0 0 0 0 0 0 0 0
0 0 0 0 0 0 0 0 0 0 0 0 0 0 0 0 1 20 38 7 0 0 5 116 310 479 555 536 828 873 883 903 909 858 872 665 514 471 241 168 14 0 0 0 0 10 18 14 1
0 0 0 0 0 0 0 0 0 0 0 0 0 0 0 0 0 0 1 44 0 0 0 89 243 374 361 245 493 720 839 916 1040 990 1019 851 693 422 320 218 185 109 49 4 19 23 4 2 15
0 0 0 0 0 0 0 0 0 0 0 0 0 0 0 0 0 0 0 6 0 0 0 24 196 189 211 238 191 330 417 461 371 452 623 458 242 237 177 156 99 163 24 21 31 19 16 18 31
0 0 0 0 0 0 0 0 0 0 0 0 0 0 0 0 0 0 0 0 0 2 0 0 0 4 70 105 54 116 174 109 89 199 332 353 181 124 116 51 21 4 19 9 16 9 29 18 30
0 0 0 0 0 0 0 0 0 0 0 0 0 0 0 0 0 0 0 0 0 0 0 0 0 0 18 4 8 4 13 3 64 73 74 122 82 100 20 0 0 0 0 6 8 0 2 8 0
0 0 0 0 0 0 0 0 0 0 0 0 0 0 0 0 0 0 0 0 0 0 0 1 15 3 1 5 17 0 0 0 0 0 0 0 1 2 0 0 0 0 1 10 5 0 0 0 9
0 0 0 0 0 0 0 0 0 0 0 0 0 0 0 0 0 0 0 0 0 0 0 0 27 77 9 0 0 0 0 0 0 0 0 0 0 0 0 0 0 0 0 0 7 0 0 0 15
0 0 0 0 0 0 0 0 0 0 0 0 0 0 0 0 0 0 0 0 0 0 0 0 0 216 222 33 0 0 0 0 0 0 0 0 0 0 0 0 0 0 0 0 1 25 5 48 69
0 0 0 0 0 0 0 0 0 0 0 0 0 0 0 0 0 0 0 0 0 0 0 0 0 0 40 476 166 14 0 0 0 0 0 0 0 0 0 0 0 0 4 12 12 65 147 132 195
0 0 0 0 0 0 0 0 0 0 0 0 0 0 0 0 0 0 0 0 0 0 0 0 0 0 0 412 496 323 145 46 9 0 0 1 3 0 0 0 0 2 9 85 171 216 269 225 132
0 0 0 0 0 0 0 0 0 0 0 0 0 0 0 0 0 0 0 0 0 0 0 0 0 0 0 57 370 588 549 474 334 229 136 72 4 1 69 8 0 37 70 363 370 258 348 332 177
0 0 0 0 0 0 0 0 0 0 0 0 0 0 0 0 0 0 0 0 0 0 0 0 0 0 0 0 76 559 645 677 617 574 514 377 117 179 91 1 35 146 406 541 525 431 427 576 270
0 0 0 0 0 0 0 0 0 0 0 0 0 0 0 0 0 0 0 0 0 0 0 0 0 0 0 0 0 0 73 349 489 854 888 761 396 477 382 121 160 416 675 665 715 539 517 555 783
0 0 0 0 0 0 0 0 0 0 0 0 0 0 0 0 0 0 0 0 0 0 0 0 0 0 0 0 0 0 5 228 606 1046 1223 1114 1004 906 641 516 590 852 892 945 728 505 494 581 906
0 0 0 0 0 0 0 0 0 0 0 0 0 0 0 0 0 0 0 0 0 0 0 0 0 0 0 0 0 0 0 0 76 530 636 952 1013 1068 1133 1226 1345 1100 996 971 654 662 677 714 877
0 0 0 0 0 0 0 0 0 0 0 0 0 0 0 0 0 0 0 0 0 0 0 0 0 0 0 0 0 0 0 0 0 184 231 559 759 978 1057 1311 1159 1087 1015 588 657 647 823 838 968
0 0 0 0 0 0 0 0 0 0 0 0 0 0 0 0 0 0 0 0 0 0 0 0 0 0 0 0 0 0 0 0 0 38 203 257 341 574 935 1060 985 609 533 534 710 847 1069 1079 893
0 0 0 0 0 0 0 0 0 0 0 0 0 0 0 0 0 0 0 0 0 0 0 0 0 0 0 0 0 0 0 0 0 5 172 194 287 536 686 692 413 531 406 643 1028 1318 1422 1168 959
0 0 0 0 0 0 0 0 0 0 0 0 0 0 0 0 0 0 0 0 0 0 0 0 0 0 0 0 0 0 0 0 0 4 68 122 292 536 613 455 611 344 507 1267 1517 1604 1443 1272 835
0 0 0 0 0 0 0 0 0 0 0 0 0 0 0 0 0 0 0 0 0 0 0 0 0 0 0 3 25 15 0 0 0 0 0 72 354 532 531 463 371 395 862 1651 1655 1569 1311 1049 567
0 0 5 6 1 0 0 0 0 0 0 0 0 0 0 0 0 0 0 0 0 0 0 0 0 0 0 0 0 72 2 0 0 0 0 156 345 553 534 572 451 716 1474 1642 1577 1434 1105 775 546

GFSSGP_con_mlcape_072.txt.gz
CAPE
0 0 0 0 0 0 0 0 0 0 0 0 0 0 0 0 0 1 143 133 25 48 649 637 231 117 585 1009 1173 1065 930 983 998 888 756 666 547 449 224 157 0 0 0 0 0 0 0 0 0
0 0 0 0 0 0 0 0 0 0 0 0 0 0 0 0 0 0 0 133 0 133 631 459 286 117 332 932 977 988 1022 1151 1124 1010 895 610 466 175 38 0 0 0 0 0 0 0 0 0 0
0 0 0 0 0 0 0 0 0 0 0 0 0 0 0 0 0 0 84 106 9 236 498 459 319 182 181 466 855 858 1017 1119 1046 954 678 369 202 5 0 0 0 0 0 0 0 0 0 0 0
0 0 0 0 0 0 0 0 0 0 0 0 0 0 0 0 0 64 132 93 0 200 409 1110 441 317 208 137 444 701 868 926 720 378 153 89 29 0 0 0 0 0 0 0 0 0 0 0 0
0 0 0 0 0 0 0 0 0 0 0 0 0 0 0 0 1 140 179 105 11 131 194 1440 707 452 345 257 106 155 294 338 133 69 53 0 0 0 0 0 0 0 0 0 0 0 0 0 0
0 0 0 0 0 0 0 0 0 0 0 0 0 0 0 0 0 132 159 133 17 61 180 1040 1077 597 503 526 278 127 80 43 26 7 0 0 0 0 0 0 0 0 0 0 0 0 0 0 0
0 0 0 0 0 0 0 0 0 0 0 0 0 0 0 0 0 84 141 80 30 43 178 772 1012 972 746 670 556 275 197 107 42 21 0 0 0 0 0 0 0 0 0 0 0 0 0 0 0
0 0 0 0 0 0 0 0 0 0 0 0 0 0 0 0 0 44 172 56 37 83 148 438 626 763 884 831 875 616 504 380 240 146 87 76 71 21 0 0 0 0 0 0 0 0 0 0 0
0 0 0 0 0 0 0 0 0 0 0 0 0 0 0 0 0 0 114 120 22 34 104 219 254 337 431 326 781 878 866 714 547 343 272 180 41 101 48 0 0 0 8 10 5 0 0 0 0
0 0 0 0 0 0 0 0 0 0 0 0 0 0 0 0 0 0 0 201 31 10 17 101 201 249 297 213 329 707 637 611 384 267 303 217 77 145 68 70 18 7 1 58 53 44 27 4 0
0 0 0 0 0 0 0 0 0 0 0 0 0 0 0 0 0 0 0 4 105 3 1 50 285 357 321 195 256 454 342 381 407 437 494 473 246 292 283 171 246 80 13 1 27 27 12 0 0
0 0 0 0 0 0 0 0 0 0 0 0 0 0 0 0 0 0 0 0 10 75 1 0 250 586 663 344 297 331 264 348 417 581 961 826 716 488 294 105 86 107 33 14 10 8 14 13 13
0 0 0 0 0 0 0 0 0 0 0 0 0 0 0 0 0 0 0 0 0 36 98 7 78 367 595 686 285 304 392 375 429 504 959 903 555 349 287 160 86 34 39 9 13 8 0 16 21
0 0 0 0 0 0 0 0 0 0 0 0 0 0 0 0 0 0 0 0 0 0 1 30 103 246 405 442 437 279 328 315 431 388 403 829 483 328 240 216 102 15 1 0 0 1 3 15 2
0 0 0 0 0 0 0 0 0 0 0 0 0 0 0 0 0 0 0 0 0 0 0 0 74 224 397 334 362 295 183 262 151 170 317 479 685 359 281 81 31 0 0 26 13 14 18 34 37
0 0 0 0 0 0 0 0 0 0 0 0 0 0 0 0 0 0 0 0 0 0 0 0 24 194 433 502 452 199 99 68 29 152 116 253 354 301 245 7 1 0 0 6 17 56 91 128 188
0 0 0 0 0 0 0 0 0 0 0 0 0 0 0 0 0 0 0 0 0 0 0 0 0 51 453 608 595 333 169 133 16 13 0 0 60 140 34 0 0 0 0 27 60 195 307 251 492
0 0 0 0 0 0 0 0 0 0 0 0 0 0 0 0 0 0 0 0 0 0 0 0 0 0 89 412 773 506 284 178 82 17 5 10 53 57 75 0 0 0 17 31 56 171 284 627 682
0 0 0 0 0 0 0 0 0 0 0 0 0 0 0 0 0 0 0 0 0 0 0 0 0 0 0 173 125 306 398 685 388 177 56 96 114 79 147 0 4 42 7 6 32 71 341 913 972
0 0 0 0 0 0 0 0 0 0 0 0 0 0 0 0 0 0 0 0 0 0 0 0 0 0 0 0 18 93 179 688 1041 578 205 170 135 165 210 28 177 225 117 268 260 428 762 1146 1208
0 0 0 0 0 0 0 0 0 0 0 0 0 0 0 0 0 0 0 0 0 0 0 0 0 0 0 0 0 0 40 102 793 1261 895 614 427 365 229 216 319 300 464 289 540 792 998 1037 1206
0 0 0 0 0 0 0 0 0 0 0 0 0 0 0 0 0 0 0 0 0 0 0 0 0 0 0 0 0 0 0 176 350 759 983 1228 953 589 416 699 450 619 501 525 955 1416 1441 1459 1289
0 0 0 0 0 0 0 0 0 0 0 0 0 0 0 0 0 0 0 0 0 0 0 0 0 0 0 0 0 0 0 2 13 270 933 1710 1762 1226 808 927 965 961 891 811 1161 1747 1706 1484 1360
0 0 0 0 0 0 0 0 0 0 0 0 0 0 0 0 0 0 0 0 0 0 0 0 0 0 0 0 0 0 0 0 0 8 360 1080 1870 1944 1701 1297 1486 1260 1151 1198 1964 2067 1746 1404 1321
0 0 1 0 0 0 0 0 0 0 0 0 0 0 0 0 0 0 0 0 0 0 0 0 0 0 0 0 0 0 0 0 0 5 0 243 882 1582 2133 2048 1873 1828 2060 2086 2231 2097 1766 1604 1501
16 15 13 1 0 0 0 0 0 0 0 0 0 0 0 0 0 0 0 0 0 0 0 0 0 0 0 0 0 0 0 0 0 0 0 16 324 721 1657 2529 2446 2261 2335 2308 2226 1976 1589 1624 1703
6 9 11 5 0 0 0 0 0 0 0 0 0 0 0 0 0 0 0 0 0 0 0 0 0 0 0 0 0 0 0 0 0 1 26 35 255 596 1325 1919 2198 2447 2312 2254 2004 1530 1618 1811 2094
2 9 14 5 0 0 0 1 4 0 0 0 0 0 0 0 0 0 0 0 0 0 0 0 0 0 0 0 0 0 0 6 5 20 14 37 234 708 826 1799 2174 2338 2167 1732 1695 1562 2017 2298 2263
14 8 14 17 18 22 3 9 1 0 0 0 0 0 0 0 0 0 0 0 0 0 0 0 0 0 0 0 0 0 0 0 58 139 98 209 620 704 631 1399 1890 1950 1658 1704 1933 2060 2308 2435 2333
25 26 24 25 11 24 27 0 6 0 0 0 3 6 2 0 0 0 0 0 0 0 0 0 0 0 0 0 0 0 0 0 1 114 169 210 371 635 781 1218 1574 1465 1330 1898 2276 2390 2147 2272 2188

GFSSGP_con_mlcape_075.txt.gz
CAPE
0 0 0 0 0 0 0 0 0 0 0 0 0 0 0 0 0 14 43 12 0 468 222 492 207 149 715 1374 1135 799 563 447 472 453 442 468 535 516 252 215 169 89 26 0 0 0 0 0 0
0 0 0 0 0 0 0 0 0 0 0 0 0 0 0 0 0 0 12 53 0 704 364 226 148 92 367 1290 1390 1006 760 678 685 655 578 541 585 403 178 81 25 2 0 0 0 0 0 0 0
0 0 0 0 0 0 0 0 0 0 0 0 0 0 0 0 0 0 6 192 0 626 514 238 218 51 229 1167 1359 1159 946 890 917 863 767 660 508 267 54 4 0 0 0 0 0 0 0 0 0
0 0 0 0 0 0 0 0 0 0 0 0 0 0 0 0 0 13 126 205 89 306 600 666 288 68 79 837 1252 1275 1073 1026 1124 1030 854 611 365 62 0 0 0 0 0 0 0 0 0 0 0
0 0 0 0 0 0 0 0 0 0 0 0 0 0 0 0 0 18 233 251 159 227 466 1000 313 174 54 302 1017 1117 1232 1157 1185 1101 898 513 239 7 0 0 0 0 0 0 0 0 0 0 0
0 0 0 0 0 0 0 0 0 0 0 0 0 0 0 0 0 37 293 309 194 241 401 1349 434 495 110 71 522 849 1060 1219 1199 1132 832 366 112 2 0 0 0 0 0 0 0 0 0 0 0
0 0 0 0 0 0 0 0 0 0 0 0 0 0 0 0 0 21 262 217 202 271 328 1508 506 729 433 138 90 295 670 879 955 800 526 172 63 0 0 0 0 0 0 0 0 0 0 0 0
0 0 0 0 0 0 0 0 0 0 0 0 0 0 0 0 0 0 130 171 163 187 249 1162 421 582 565 425 220 116 148 234 355 382 281 116 24 0 0 0 0 0 0 0 3 4 0 0 0
0 0 0 0 0 0 0 1 0 0 0 1 0 0 0 0 0 0 0 295 143 167 236 619 366 406 361 272 606 418 250 233 253 183 188 74 0 42 6 0 0 0 0 0 0 2 2 0 0
0 0 0 0 0 0 0 10 0 0 0 0 0 0 0 0 0 0 0 80 179 161 232 269 260 362 305 158 374 514 304 233 151 76 144 92 0 27 20 0 0 0 0 0 5 0 0 0 0
0 0 0 0 0 0 0 1 15 3 0 0 0 0 0 0 0 0 0 0 150 94 148 189 294 464 327 167 227 485 179 205 242 195 222 226 37 51 131 109 75 64 12 0 5 3 0 0 0
0 0 0 0 0 0 0 0 0 8 5 0 0 0 0 0 0 0 0 0 10 172 56 100 266 380 482 247 192 366 192 278 252 288 654 581 318 308 371 175 197 250 51 52 2 12 28 25 13
0 0 0 0 0 0 0 0 0 0 0 1 0 0 0 0 0 0 0 0 0 53 175 17 156 560 933 1022 432 319 385 252 290 349 660 679 682 573 568 331 117 77 49 42 56 22 2 14 64
0 0 0 0 0 0 0 0 0 0 0 0 0 0 0 0 0 0 0 0 0 95 101 242 85 369 801 1085 1331 994 780 386 402 410 601 1265 921 976 464 363 216 78 10 0 7 16 17 83 130
0 0 0 0 0 0 0 0 0 0 0 0 0 0 0 0 0 0 0 0 0 2 26 10 101 272 556 867 918 1043 585 635 486 484 842 1118 1367 1026 540 319 250 72 12 2 23 29 48 118 181
0 0 0 0 0 0 0 0 0 0 0 0 0 0 0 0 0 0 0 0 0 0 0 0 2 242 508 797 866 642 400 429 399 451 397 639 1327 1160 872 261 139 14 0 5 107 167 245 307 399
0 0 0 0 0 0 0 0 0 0 0 0 0 0 0 0 0 0 0 0 0 0 0 0 0 7 587 754 855 811 563 347 169 181 99 382 597 843 856 332 44 42 0 69 208 285 327 451 253
0 0 0 0 0 0 0 0 0 0 0 0 0 0 0 0 0 0 0 0 0 0 0 0 0 0 3 965 960 1056 723 502 374 204 189 236 378 437 458 242 67 106 41 131 265 384 446 654 680
0 0 0 0 0 0 0 0 0 0 0 0 0 0 0 0 0 0 0 0 0 0 0 0 0 0 0 9 686 941 488 642 493 443 291 309 391 335 488 175 133 254 54 113 384 823 865 722 944
0 0 0 0 0 0 0 0 0 0 0 0 0 0 0 0 0 0 0 0 0 0 0 0 0 0 0 0 7 568 678 989 982 833 732 541 350 546 606 425 139 266 103 343 902 954 707 938 1184
0 0 0 0 0 0 0 0 0 0 0 0 0 0 0 0 0 0 0 0 0 0 0 0 0 0 0 0 0 0 168 551 442 1234 1312 1337 767 616 625 630 270 375 339 578 708 928 683 624 1498
0 0 0 0 0 0 0 0 0 0 0 0 0 0 0 0 0 0 0 0 0 0 0 0 0 0 0 0 0 0 0 1 147 145 384 1014 1555 908 671 738 595 545 1172 748 1235 1176 1537 1606 950
0 0 0 0 0 0 0 0 0 0 0 0 0 0 0 0 0 0 0 0 0 0 0 0 0 0 1 0 0 0 0 0 0 10 259 79 1361 1551 1203 1296 988 1294 1251 917 946 1825 1922 1770 1969
0 0 0 0 0 0 0 0 0 0 0 0 0 0 0 0 0 0 0 0 0 0 0 0 0 0 0 0 0 0 0 1 0 4 84 99 465 1289 141 1596 1373 1504 1565 1170 1569 1726 1324 289 1864
1 5 1 14 21 14 6 0 0 0 0 0 0 0 0 0 0 0 0 0 0 0 0 0 0 0 0 0 0 0 0 1 2 0 0 13 185 1109 2528 2209 1959 1927 1937 1744 1896 1977 1338 2132 2324
22 20 51 22 24 12 0 0 0 0 0 0 0 0 0 0 0 0 1 0 0 0 0 0 0 0 0 0 0 0 0 0 0 0 0 0 4 27 784 2896 2838 2634 2438 2177 2162 2376 2844 2763 2579
30 21 18 21 17 29 14 0 9 0 0 0 0 0 0 0 0 0 0 0 0 0 0 0 0 0 0 0 0 0 0 13 7 26 73 44 107 115 134 1458 3394 3029 2910 2811 2914 2820 2975 2637 2433
12 15 10 34 29 17 8 6 10 8 0 0 0 0 0 1 0 0 1 0 0 1 0 0 0 0 0 0 0 0 0 0 2 114 225 170 239 218 341 624 2002 3203 3154 3269 3292 2916 2860 2302 2099
38 32 53 32 15 44 26 14 15 2 0 0 14 5 4 4 8 3 3 5 6 3 1 0 0 0 0 0 0 0 0 0 0 3 43 223 574 654 564 526 1500 2389 3251 3445 3237 2775 2228 2010 2032
122 98 121 139 58 57 63 17 0 23 6 16 9 6 14 31 12 14 14 0 0 0 0 8 0 0 0 0 0 0 0 0 0 4 0 60 278 619 871 935 731 1656 2492 2969 2871 2531 1554 2205 2544

GFSSGP_con_mlcape_078.txt.gz
CAPE
0 0 0 0 0 0 0 0 0 0 0 0 0 0 0 0 0 61 73 14 858 308 356 551 658 489 954 1146 697 386 187 142 210 293 151 257 301 237 327 209 170 50 0 0 0 0 0 0 0
0 0 0 0 0 0 0 0 0 0 0 0 0 0 0 0 0 0 55 77 984 484 326 470 604 370 639 939 950 610 375 286 351 359 270 320 386 212 163 67 32 0 0 0 0 0 0 0 0
0 0 0 0 0 0 0 0 0 0 0 0 0 0 0 0 0 0 23 102 1137 667 392 693 501 605 467 883 1139 839 614 489 499 497 454 436 502 168 39 4 0 0 0 0 0 0 0 0 0
0 0 0 0 0 0 0 0 0 0 0 0 0 0 0 0 0 0 80 206 226 986 346 840 321 675 366 786 1200 1188 918 711 711 693 617 611 429 103 0 0 0 0 0 0 0 0 0 0 0
0 0 0 0 0 0 0 0 0 0 0 0 0 0 0 0 0 0 146 202 216 783 490 808 219 531 481 504 956 1341 1302 1113 1065 962 865 711 318 26 0 0 0 0 0 0 0 0 0 0 0
0 0 0 0 0 0 0 0 0 0 0 0 0 0 0 1 0 0 191 241 247 472 805 851 236 430 572 427 482 1197 1253 1274 1434 1340 1132 819 333 8 0 0 0 0 0 0 0 0 0 0 0
0 0 0 0 0 0 0 0 0 0 0 0 0 0 0 0 0 0 71 161 405 432 1354 1056 307 398 650 354 317 655 1060 1132 1280 1342 1227 818 340 18 0 0 0 0 0 0 0 0 0 0 0
0 0 0 0 0 0 0 0 0 0 0 0 0 0 0 0 0 0 0 179 257 233 1668 1566 498 424 592 552 466 416 681 882 1034 1039 924 546 148 7 0 0 0 0 0 0 0 0 0 0 0
0 0 0 0 0 0 0 0 0 0 0 0 0 0 0 0 0 0 0 165 159 205 1392 1481 441 490 489 404 604 350 387 545 678 646 494 210 63 0 0 0 0 0 0 0 0 0 0 0 0
0 0 0 0 0 0 0 0 3 0 0 0 0 1 0 0 0 0 0 0 237 190 305 1146 287 400 449 233 621 256 239 186 148 143 182 73 0 23 0 0 0 0 0 0 0 0 0 0 0
0 0 0 0 0 0 0 0 0 3 0 0 0 0 0 0 0 0 0 0 0 176 221 724 335 456 429 262 784 452 450 324 216 123 151 132 35 34 66 46 0 0 0 0 0 0 0 0 0
0 0 0 0 0 0 0 0 0 0 1 0 0 1 0 0 0 0 0 0 0 79 194 536 635 716 480 327 658 752 284 359 376 285 250 436 78 155 220 192 91 123 115 2 6 24 59 77 36
0 0 0 0 0 0 0 0 0 0 0 0 0 0 0 0 0 0 0 0 0 0 107 163 640 1089 713 714 1000 864 255 361 376 491 499 408 764 199 270 560 363 506 307 112 102 30 114 174 165
0 0 0 0 0 0 0 0 0 0 0 0 0 0 0 0 0 0 0 0 0 39 157 190 605 953 1087 1119 1513 1765 1359 273 408 481 602 796 688 927 789 636 699 255 262 229 206 98 97 69 51
0 0 0 0 0 0 0 0 0 0 0 0 0 0 0 0 0 0 0 0 0 0 82 88 245 650 575 708 1112 1316 1128 900 800 659 986 1040 1144 1131 973 918 431 359 222 57 29 56 166 103 277
0 0 0 0 0 0 0 0 0 0 0 0 0 0 0 0 0 0 0 0 0 0 0 11 57 411 671 856 772 1182 1069 911 731 807 1249 1736 1365 1395 1841 777 712 465 309 101 24 56 24 95 169
0 0 0 0 0 0 0 0 0 0 0 0 0 0 0 0 0 0 0 0 0 0 0 0 19 134 828 845 1095 826 746 736 634 504 499 994 1847 1411 1178 984 769 522 271 80 75 171 303 327 479
0 0 0 0 0 0 0 0 0 0 0 0 0 0 0 0 0 1 0 0 0 0 0 0 0 8 549 1326 1285 1082 1206 772 774 354 347 286 739 1491 1260 1328 896 569 178 107 106 197 466 511 616
0 0 0 0 0 0 0 0 0 0 0 0 0 0 0 0 0 0 0 0 0 0 0 0 4 0 0 244 978 735 886 1107 713 701 258 329 354 568 914 1006 881 425 233 53 241 332 474 480 651
0 0 0 0 0 0 0 0 0 0 0 0 0 0 0 0 0 0 0 0 0 0 0 0 0 0 0 0 44 575 1035 1074 1180 697 544 352 463 378 420 469 457 233 301 355 238 389 469 894 1202
0 0 0 0 0 0 0 0 0 0 0 0 0 0 0 0 0 0 0 0 0 0 0 0 0 0 0 0 0 0 17 156 391 1006 766 1014 558 746 620 582 480 204 454 395 561 476 1418 922 1253
0 0 0 0 0 0 0 0 0 0 0 0 0 0 0 0 0 0 0 0 0 0 0 0 0 0 0 0 0 0 0 0 0 101 481 1102 1106 653 666 746 980 748 356 569 756 949 1089 948 25
0 0 0 0 0 0 0 0 0 0 0 0 0 0 0 0 0 0 0 0 0 0 0 0 0 0 0 0 0 13 1 0 2 63 179 409 833 1205 1000 955 821 901 677 455 341 1466 1213 661 48
0 0 0 0 0 1 0 0 0 0 1 0 0 0 0 0 0 0 0 0 0 0 0 0 0 0 7 5 0 9 91 21 11 29 27 146 289 896 1652 1186 929 805 774 1024 1104 987 777 449 157
0 0 0 5 13 2 0 15 15 0 0 0 0 0 0 0 0 5 0 0 0 0 0 0 0 0 0 4 5 2 0 21 14 2 0 0 0 60 1875 1650 1184 924 604 781 1496 1146 255 948 1103
3 0 6 21 8 45 36 34 0 2 0 0 0 0 0 0 0 0 8 4 1 9 21 6 5 3 0 0 1 11 3 1 12 54 42 13 2 20 31 348 884 294 526 469 523 977 645 1243 1913
5 28 28 19 42 33 12 8 12 6 2 0 0 0 0 0 0 0 3 1 0 4 13 27 11 0 0 0 0 4 15 73 156 127 91 51 56 17 65 96 96 1330 2144 1845 1168 1504 1669 1957 2040
4 21 59 16 3 9 10 9 36 47 44 4 0 0 0 0 0 0 0 0 12 16 32 27 9 1 5 0 0 0 0 14 48 83 41 215 378 197 104 41 98 316 2441 2590 2650 2419 2146 1972 2321
31 11 5 15 70 29 7 0 34 57 8 5 1 0 0 0 0 1 9 12 11 17 18 51 30 21 10 1 2 0 0 0 0 3 34 103 230 212 696 629 249 12 330 2779 2533 2754 2589 2759 2784
26 17 0 5 14 20 2 0 46 35 9 3 0 6 0 6 0 13 19 17 7 2 0 0 11 34 1 0 0 0 0 0 0 0 0 4 23 60 183 360 816 560 91 823 2725 2460 3031 2817 3111

GFSSGP_con_mlcape_081.txt.gz
CAPE
0 0 0 0 0 0 0 0 0 0 0 0 0 0 5 139 137 66 246 473 97 0 698 1498 1431 1106 800 447 377 135 52 79 98 48 101 30 58 159 127 54 27 0 0 0 0 0 0 0 0
0 0 0 0 0 0 0 0 0 0 0 0 0 0 0 0 0 7 224 517 7 2 391 1139 1432 1121 842 504 382 226 152 161 202 136 216 107 0 54 22 0 0 0 0 0 0 0 0 0 0
0 0 0 0 0 0 0 0 0 0 0 0 0 0 0 0 0 3 209 576 159 7 68 760 1173 1052 817 597 441 362 238 292 337 258 336 228 12 0 0 0 0 0 0 0 0 0 0 0 0
0 0 0 0 0 0 0 0 0 0 0 0 0 0 0 0 0 9 96 645 507 24 102 491 838 952 738 726 558 541 406 483 493 457 404 347 88 0 0 0 0 0 0 0 0 0 0 0 0
0 0 0 0 0 0 0 0 0 0 0 0 0 0 0 0 0 51 55 247 666 206 147 316 656 1009 889 798 672 723 737 742 719 653 581 468 181 1 0 0 0 0 0 0 0 0 0 0 0
0 0 0 0 0 0 0 0 0 0 0 0 0 0 0 0 0 0 32 121 270 489 234 170 460 982 1351 891 833 860 958 921 970 919 811 627 258 22 0 0 0 0 0 0 0 0 0 0 0
0 0 0 0 0 0 0 0 0 0 0 0 0 0 0 0 0 0 50 50 241 549 552 209 187 718 1344 1198 920 906 994 1110 1140 1040 957 723 305 47 0 0 0 0 0 0 0 0 0 0 0
0 0 0 0 0 0 0 0 0 0 0 0 0 0 0 0 0 0 0 61 470 808 745 305 98 309 830 1431 1102 983 1023 1068 1153 1124 978 735 310 51 0 0 0 0 0 0 0 0 0 0 0
0 0 0 0 0 0 0 0 0 0 0 0 0 0 0 0 0 0 0 0 604 1021 769 508 182 127 271 884 1302 1153 1181 1063 1029 1004 871 536 134 41 0 0 0 0 0 0 0 0 0 0 0
0 0 0 0 0 0 0 0 0 0 0 0 0 0 0 0 0 0 0 0 0 1423 1109 668 301 116 121 443 851 922 1050 991 825 745 576 172 55 0 0 0 0 0 0 0 0 0 0 0 0
0 0 0 0 0 0 0 0 0 0 0 0 0 0 0 2 0 0 0 0 0 19 1378 647 429 167 143 240 413 253 425 383 381 328 142 59 0 0 10 0 0 0 0 0 0 0 0 0 0
0 0 0 0 0 0 0 0 0 0 0 0 0 4 1 0 0 0 0 0 0 0 306 545 417 208 173 343 434 245 104 101 57 89 72 0 0 0 63 34 8 8 0 0 0 0 0 0 1
0 0 0 0 0 0 0 0 0 0 0 0 1 2 0 0 0 0 0 0 0 0 143 369 586 459 316 368 567 312 225 126 106 97 128 73 0 7 32 126 70 75 60 97 11 0 2 1 80
0 0 0 0 0 0 0 0 0 0 0 0 0 2 0 0 0 0 0 0 0 0 80 121 943 684 565 1162 1143 1029 375 336 266 199 173 251 163 28 267 285 326 256 319 260 102 68 55 35 120
0 0 0 0 0 0 0 0 0 0 0 0 0 0 0 0 0 0 0 0 0 0 0 11 885 1289 824 914 848 1069 1023 636 343 431 314 254 358 585 150 720 294 559 479 414 300 198 192 157 147
0 0 0 0 0 0 0 0 0 0 0 0 0 0 0 0 0 0 0 0 0 0 0 0 288 695 1114 956 1029 1051 942 938 839 640 584 578 397 661 1028 623 718 442 346 218 191 91 49 25 54
0 0 0 0 0 0 0 0 0 0 0 0 0 0 0 0 0 0 0 0 0 0 0 0 9 370 926 816 767 912 1109 889 791 698 1072 1025 940 930 982 1081 951 727 432 332 195 111 77 29 84
0 0 0 0 0 0 0 0 0 0 0 0 0 0 0 0 0 0 0 0 0 0 0 0 15 135 1021 739 853 1005 956 977 720 608 497 1564 1360 1117 1103 1099 1032 800 643 410 219 158 128 218 329
0 0 0 0 0 0 0 0 0 0 0 0 0 0 0 0 0 0 0 0 0 0 0 0 0 1 305 1110 693 86 411 762 738 599 387 377 806 1702 1223 956 1108 944 702 437 216 141 152 229 475
0 0 0 0 0 0 0 0 0 0 0 0 0 0 0 0 0 0 0 0 0 0 0 0 0 0 0 261 1256 852 272 577 1022 855 708 305 278 478 1051 1053 827 832 816 568 264 150 104 257 539
0 0 0 0 0 0 0 0 0 0 0 0 0 0 0 0 0 0 0 0 0 0 0 0 0 1 0 0 126 308 733 1135 1152 1014 894 720 539 413 469 519 564 373 339 171 237 277 157 88 388
0 0 0 0 0 0 0 0 0 0 0 0 0 0 0 0 0 0 0 0 0 0 0 0 0 0 0 0 0 0 14 271 611 551 689 988 1061 923 655 498 406 308 210 200 161 272 354 417 256
0 0 0 0 0 0 0 0 0 0 0 0 0 0 0 0 0 0 0 0 0 0 0 0 0 0 0 0 0 0 0 46 28 5 31 196 342 661 909 903 597 450 377 254 333 572 680 737 520
0 0 0 0 0 0 0 0 0 0 0 0 0 0 0 0 0 0 0 0 0 0 0 0 0 0 0 15 0 0 0 1 17 0 2 67 271 378 776 767 917 951 920 697 440 477 692 1005 768
0 0 0 0 0 0 0 0 0 0 0 0 0 0 0 0 0 0 0 0 0 0 0 0 0 0 0 0 0 0 0 9 0 0 0 0 3 10 2 96 844 976 872 917 811 528 717 1370 940
0 0 1 0 0 0 0 0 0 5 0 0 0 0 0 0 0 0 0 0 0 0 0 0 0 0 0 0 2 13 0 1 60 80 0 0 0 0 4 44 540 1018 1161 1107 1007 1030 850 827 707
0 0 0 0 0 0 0 0 0 0 1 0 0 0 0 0 0 0 0 0 0 0 0 0 0 0 0 0 0 0 0 0 60 113 169 183 215 140 78 54 42 467 895 901 1282 1296 873 934 489
0 0 1 1 8 0 0 0 0 16 51 10 26 0 0 0 0 0 0 0 0 0 0 0 1 2 1 0 0 0 0 0 0 99 135 87 54 106 249 349 214 67 69 67 981 1254 1271 1084 916
0 0 0 0 0 1 0 0 11 4 0 0 6 3 0 0 0 0 0 0 0 0 0 0 17 22 12 6 0 0 0 0 0 0 0 6 42 98 230 236 259 375 573 465 48 779 1682 1610 1566
3 13 5 0 2 1 3 0 0 0 0 0 0 1 0 0 0 0 0 6 0 0 0 0 26 23 15 29 2 0 0 0 0 0 0 0 0 0 7 96 64 55 102 492 455 70 1410 2469 2150

GFSSGP_con_mlcape_084.txt.gz
CAPE
0 0 0 0 0 0 0 0 0 0 0 0 1 49 70 54 64 6 148 265 133 241 1108 1175 1086 608 174 14 1 0 0 0 0 0 0 3 2 0 0 0 0 0 0 0 0 0 0 0 0
0 0 0 0 0 0 0 0 0 0 0 0 0 0 53 69 69 281 389 351 45 261 781 1141 1137 754 298 97 37 9 62 44 0 0 13 109 82 4 0 0 0 0 0 0 0 0 0 0 0
0 0 0 0 0 0 0 0 0 0 0 0 0 0 0 10 11 52 245 114 112 311 708 1047 1150 984 491 227 74 96 191 125 31 38 40 100 46 1 0 0 0 0 0 0 0 0 0 0 0
0 0 0 0 0 0 0 0 0 0 0 0 0 0 0 0 1 14 233 27 18 82 483 967 1152 1201 692 399 178 198 321 320 174 211 117 46 26 6 0 0 0 0 0 0 0 0 0 0 0
0 0 0 0 0 0 0 0 0 0 0 0 0 0 0 0 43 123 287 53 1 78 535 850 1064 1275 899 639 398 350 461 540 431 403 396 173 40 12 0 0 0 0 0 0 0 0 0 0 0
0 0 0 0 0 0 0 0 0 0 0 0 0 0 0 0 0 8 331 168 39 44 419 806 971 1209 1229 893 681 520 515 605 613 571 523 352 45 13 0 0 0 0 0 0 0 0 0 0 0
0 0 0 0 0 0 0 0 0 0 0 0 0 0 0 0 0 0 6 371 60 110 209 523 671 785 1130 1263 938 713 603 706 732 672 582 349 88 21 0 0 0 0 0 0 0 0 0 0 0
0 0 0 0 0 0 0 0 0 0 0 0 0 0 0 0 0 0 0 196 239 281 198 331 487 649 929 1342 1284 972 826 806 817 809 717 464 166 36 0 0 0 0 0 0 0 0 0 0 0
0 0 0 0 0 0 0 0 0 0 0 0 0 0 0 0 0 0 3 487 472 638 265 262 344 368 558 1109 1520 1424 1162 1001 1004 967 804 554 172 56 0 0 0 0 0 0 0 0 0 0 0
0 0 0 0 0 0 0 0 0 0 0 0 0 0 0 0 0 0 0 0 794 797 504 285 313 231 330 688 1291 1482 1496 1316 1176 1077 911 423 112 29 0 0 0 0 0 0 0 0 0 0 0
0 0 0 0 0 0 0 0 0 0 0 0 0 0 0 0 0 0 0 0 0 855 806 427 229 335 182 268 630 1021 1327 1131 1000 902 697 305 87 12 0 0 0 0 0 0 0 0 0 0 0
0 0 0 0 0 0 0 0 0 0 0 0 0 0 0 0 0 0 0 0 0 335 1202 696 364 172 284 299 180 462 669 748 711 739 526 197 17 0 0 0 0 0 0 0 0 0 0 0 0
0 0 0 0 0 0 0 0 0 0 0 0 0 0 0 0 0 0 0 0 0 0 606 1140 723 375 167 404 209 192 242 295 379 385 316 100 0 0 0 2 22 27 13 6 7 0 0 0 0
0 0 0 0 0 0 0 0 0 0 0 0 0 0 0 0 0 0 0 0 0 6 313 648 782 579 242 431 330 234 175 116 98 94 77 28 0 0 0 14 58 72 82 59 83 107 29 11 13
0 0 0 0 0 0 0 0 0 0 0 0 0 0 0 0 0 0 0 0 0 0 19 411 712 712 455 482 645 433 311 251 173 103 131 92 0 0 0 58 135 192 203 191 251 280 166 98 84
0 0 0 0 0 0 0 0 0 0 0 0 0 0 0 0 0 0 0 0 0 0 0 232 850 919 774 963 1073 871 681 424 439 335 186 201 135 48 0 53 290 314 333 500 422 362 224 103 67
0 0 0 0 0 0 0 0 0 0 0 0 0 0 0 0 0 0 0 0 0 0 0 6 892 1034 1037 1496 1635 1493 1011 806 495 466 415 439 291 331 336 189 285 562 363 373 390 260 165 69 38
0 0 0 0 0 0 0 0 0 0 0 0 0 0 0 0 0 0 0 0 0 0 0 0 257 700 1266 1364 1527 1539 1184 963 732 519 679 612 619 486 578 917 703 609 628 602 436 305 255 159 107
0 0 0 0 0 0 0 0 0 0 0 0 0 0 0 0 0 0 0 0 0 0 0 0 0 165 573 1372 1205 1014 744 758 814 663 538 1017 1034 901 754 780 961 903 952 800 573 370 294 199 186
0 0 0 0 0 0 0 0 0 0 0 0 0 0 0 0 0 0 0 0 0 0 0 0 0 0 53 589 1194 1211 977 796 512 418 411 420 587 1449 1216 1162 1141 1119 975 816 603 455 354 221 209
0 0 0 0 0 0 0 0 0 0 0 0 0 0 0 0 0 0 0 0 0 0 0 0 0 0 0 0 149 466 641 843 322 280 40 16 392 439 1100 1396 1292 1056 955 754 648 560 359 122 172
0 0 0 0 0 0 0 0 0 0 0 0 0 0 0 0 0 0 0 0 0 0 0 0 0 0 0 0 0 12 313 472 489 285 157 71 106 745 679 806 1083 1085 771 558 443 311 376 258 22
0 0 0 0 0 0 0 0 0 0 0 0 0 0 0 0 0 0 0 0 0 0 0 0 0 0 0 0 0 0 0 17 109 193 390 477 569 174 499 802 719 691 550 469 356 265 243 230 126
0 0 0 0 0 0 0 0 0 0 0 0 0 0 0 0 0 0 0 0 0 0 0 0 0 0 0 0 0 0 0 0 0 57 47 160 277 604 278 193 335 665 659 496 399 334 302 186 376
0 0 0 0 0 0 0 0 0 0 0 0 0 0 0 0 0 0 0 0 0 0 0 0 0 0 0 0 3 3 0 0 4 0 1 31 98 140 342 787 653 564 486 322 446 531 594 538 555
0 0 0 0 0 0 0 0 0 0 0 0 0 0 0 0 0 0 0 0 0 0 0 0 0 0 0 0 0 0 1 7 0 8 5 9 0 0 22 36 109 306 410 581 812 561 493 602 648
0 0 0 0 0 0 0 0 0 0 0 0 0 0 0 0 0 0 0 0 0 0 0 0 0 0 0 0 0 0 0 0 17 39 56 47 110 301 346 241 160 156 265 478 719 869 878 839 761
0 0 0 0 0 0 0 0 0 0 0 0 0 0 0 0 0 0 0 0 0 0 0 0 0 0 0 0 1 0 0 0 0 0 2 227 278 145 186 249 329 399 375 392 286 206 344 793 809
0 0 0 0 0 0 0 0 0 2 0 0 0 0 0 0 0 0 0 0 0 0 0 0 0 0 0 0 6 0 0 0 0 0 0 0 9 76 26 14 17 101 105 76 80 238 598 477 278
0 0 0 0 0 4 4 0 0 0 0 0 0 0 0 0 0 0 0 0 0 0 0 0 0 0 0 8 0 0 0 0 0 0 0 0 0 0 0 0 0 3 1 0 3 0 58 415 849

GFSSGP_con_mlcape_087.txt.gz
CAPE
0 0 0 0 0 0 0 0 0 0 0 0 0 0 31 58 35 3 74 80 195 261 775 917 402 188 36 0 0 0 0 29 120 124 126 149 112 55 0 0 0 0 0 0 0 0 0 0 0
0 0 0 0 0 0 0 0 0 0 0 0 0 0 0 3 52 226 169 267 325 391 776 872 447 229 66 0 0 0 9 12 66 119 110 46 16 1 0 0 0 0 0 0 0 0 0 0 0
0 0 0 0 0 0 0 0 0 0 0 0 0 0 0 0 4 95 116 445 307 296 778 964 533 330 119 7 0 2 0 4 44 134 102 35 16 0 0 0 0 0 0 0 0 0 0 0 0
0 0 0 0 0 0 0 0 0 0 0 0 0 0 0 0 0 62 298 548 119 253 665 1127 737 425 205 66 59 77 0 24 27 105 110 96 25 0 0 0 0 0 0 0 0 0 0 0 0
0 0 0 0 0 0 0 0 0 0 0 0 0 0 0 0 5 91 181 266 24 340 960 1297 858 469 303 224 236 278 186 102 45 21 63 60 12 0 0 0 0 0 0 0 0 0 0 0 0
0 0 0 0 0 0 0 0 0 0 0 0 0 0 0 0 0 144 69 36 100 145 850 1460 1171 620 461 291 349 400 324 222 187 120 46 37 19 6 0 0 0 0 0 0 0 0 0 0 0
0 0 0 0 0 0 0 0 0 0 0 0 0 0 0 0 0 67 175 27 71 357 801 1212 1449 1016 682 517 370 450 405 320 230 214 122 47 27 0 0 0 0 0 0 0 0 0 0 0 0
0 0 0 0 0 0 0 0 0 0 0 0 0 0 0 0 0 57 296 69 32 343 839 986 1131 1276 978 799 551 479 534 466 308 216 167 117 55 6 0 0 0 0 0 0 0 0 0 0 0
0 0 0 0 0 0 0 0 0 0 0 0 0 0 0 0 10 82 160 271 170 242 589 1087 925 921 892 943 946 708 702 683 523 382 285 156 80 26 0 0 0 0 0 0 0 0 0 0 0
0 0 0 0 0 0 0 0 0 0 0 0 0 0 0 0 0 29 251 400 441 348 328 748 931 835 841 998 1238 1094 1030 1110 950 755 594 268 74 20 0 0 0 0 0 0 0 0 0 0 0
0 0 0 0 0 0 0 0 0 0 0 0 0 0 0 0 0 0 1 74 573 716 435 507 831 881 864 936 1226 1142 1134 1169 1091 966 696 330 125 29 1 0 0 0 0 0 0 0 0 0 0
0 0 0 0 0 0 0 0 0 0 0 0 0 0 0 0 0 0 0 0 16 778 810 463 567 697 923 1023 1005 1016 1145 1162 1043 1010 758 363 138 2 0 0 0 0 0 0 0 0 0 0 0
0 0 0 0 0 0 0 0 0 0 0 0 0 0 0 0 0 0 0 0 0 332 1032 826 397 417 566 770 862 851 1137 1039 911 792 761 504 216 6 0 0 0 0 0 0 0 0 0 0 0
0 0 0 0 0 0 0 0 0 0 0 0 0 0 0 0 0 0 0 0 0 42 483 1055 806 341 290 377 472 473 766 774 692 628 666 569 295 57 0 0 0 0 11 34 18 16 4 3 0
0 0 0 0 0 0 0 0 0 0 0 0 0 0 0 0 0 0 0 0 3 25 200 580 1029 898 436 339 434 337 356 460 461 388 456 443 266 76 0 0 0 0 30 73 73 53 68 68 30
0 0 0 0 0 0 0 0 0 0 0 0 0 0 0 0 0 0 0 0 0 24 107 458 991 1009 944 571 586 442 182 145 207 213 218 143 72 9 0 0 0 0 29 129 184 213 323 266 150
0 0 0 0 0 0 0 0 0 0 0 0 0 0 0 0 0 0 0 0 0 2 35 270 668 814 920 771 722 609 523 370 242 178 204 155 167 52 10 0 0 36 85 197 305 370 380 247 104
0 0 0 0 0 0 0 0 0 0 0 0 0 0 0 0 0 0 0 0 0 0 2 146 487 932 981 1135 1121 1086 1012 717 474 459 483 460 344 262 110 83 36 109 269 337 353 362 318 266 226
0 0 0 0 0 0 0 0 0 0 0 0 0 0 0 0 0 0 0 0 0 0 0 0 239 714 1249 1286 1414 1460 1420 1257 852 714 421 358 696 629 444 418 546 439 339 452 508 468 459 402 320
0 0 0 0 0 0 0 0 0 0 0 0 0 0 0 0 0 0 0 0 0 0 0 0 93 515 1146 1536 1502 1524 1503 1311 1192 832 693 654 939 1188 1201 890 584 764 1002 970 727 668 619 440 316
0 0 0 0 0 0 0 0 0 0 0 0 0 0 0 0 0 0 0 0 0 0 0 0 2 152 412 1084 1276 896 690 977 961 846 887 715 661 585 595 462 793 884 935 865 824 806 618 553 407
0 0 0 0 0 0 0 0 0 0 0 0 0 0 0 0 0 0 0 0 0 0 0 0 0 0 4 158 460 816 1131 1066 886 436 553 623 548 132 42 3 37 276 580 625 687 790 768 526 313
0 0 0 0 0 0 0 0 0 0 0 0 0 0 0 0 0 0 0 0 0 0 0 0 0 0 0 0 0 0 31 181 240 130 119 284 504 326 371 75 3 17 39 527 491 458 472 383 282
0 0 0 0 0 0 0 0 0 0 0 0 0 0 0 0 0 0 0 0 0 0 0 0 0 0 0 0 0 0 0 0 0 0 0 34 122 314 581 792 550 307 374 365 144 136 271 222 236
0 0 0 0 0 0 0 0 0 0 0 0 0 0 0 0 0 0 0 0 0 0 0 0 0 0 0 0 0 3 0 0 0 0 0 0 1 45 118 228 672 788 559 295 108 79 31 88 44
0 0 0 0 0 0 0 0 0 0 0 0 0 0 0 0 0 0 0 0 0 0 0 0 7 16 17 33 2 0 0 0 0 0 0 0 0 0 20 14 47 262 741 824 703 522 318 217 243
0 0 0 0 0 0 0 0 0 0 0 0 0 0 0 0 0 0 0 0 17 58 16 0 1 0 0 0 0 0 0 0 0 0 0 0 0 22 256 362 343 249 206 424 591 559 419 381 310
0 0 0 0 0 0 0 0 0 0 0 0 0 0 0 0 0 0 0 0 2 0 0 0 0 0 0 0 0 0 0 0 0 0 0 0 16 191 182 228 365 378 319 301 316 255 313 351 380
0 0 0 0 0 0 0 0 0 0 0 0 0 0 0 0 0 0 0 0 0 0 0 0 0 0 0 0 3 35 12 7 5 2 0 0 24 25 52 16 1 3 122 121 105 86 70 93 125
0 0 0 0 0 0 0 0 0 0 0 0 0 0 0 0 0 0 0 0 0 0 0 0 0 0 0 0 2 23 56 45 0 31 7 0 0 0 0 0 0 0 0 0 0 2 37 90 75

GFSSGP_con_mlcape_090.txt.gz
CAPE
0 0 0 0 0 0 0 0 0 0 0 0 0 1 14 1 4 1 43 37 28 147 1032 751 500 365 91 17 52 283 519 722 728 586 499 288 92 44 89 65 9 0 0 0 0 0 0 0 0
0 0 0 0 0 0 0 0 0 0 0 0 0 0 0 0 6 157 121 79 189 357 1021 775 438 393 236 5 0 38 286 414 458 420 232 109 102 69 5 0 0 0 0 0 0 0 0 0 0
0 0 0 0 0 0 0 0 0 0 0 0 0 0 0 0 0 57 67 265 503 379 885 683 413 264 156 23 0 0 40 110 154 119 140 174 88 22 0 0 0 0 0 0 0 0 0 0 0
0 0 0 0 0 0 0 0 0 0 0 0 0 0 0 0 0 26 368 613 450 559 893 814 350 145 54 68 18 0 31 97 251 300 266 99 21 0 0 0 0 0 0 0 0 0 0 0 0
0 0 0 0 0 0 0 0 0 0 0 0 0 0 0 0 26 130 418 605 105 359 823 1165 618 211 85 72 116 100 62 133 264 293 165 50 9 0 0 0 0 0 0 0 0 0 0 0 0
0 0 0 0 0 0 0 0 0 0 0 0 0 0 0 0 0 122 396 363 257 178 824 1041 893 495 175 140 181 211 131 109 171 165 116 19 0 0 0 0 0 0 0 0 0 0 0 0 0
0 0 0 0 0 0 0 0 0 0 0 0 0 0 0 0 0 112 248 253 156 266 772 1014 1043 790 390 226 211 243 202 132 65 94 48 12 0 0 0 0 0 0 0 0 0 0 0 0 0
0 0 0 0 0 0 0 0 0 0 0 0 0 0 0 0 0 88 149 83 164 366 745 1013 1101 932 593 505 312 308 269 252 131 26 14 14 2 0 0 0 0 0 0 0 0 0 0 0 0
0 0 0 0 0 0 0 0 0 0 0 0 0 0 0 0 0 152 212 145 75 337 598 1098 1167 1030 723 462 489 458 464 372 263 211 96 40 6 0 0 0 0 0 0 0 0 0 0 0 0
0 0 0 0 0 0 0 0 0 0 0 0 0 0 0 0 32 233 243 232 197 158 424 994 1122 1291 855 701 577 563 662 788 614 499 388 159 24 1 0 0 0 0 0 0 0 0 0 0 0
0 0 0 0 0 0 0 0 0 0 0 0 0 0 0 0 2 129 118 233 204 298 417 870 1047 1211 1063 931 755 690 684 772 777 685 584 322 140 30 17 0 0 0 0 0 0 0 0 0 0
0 0 0 0 0 0 0 0 0 0 0 0 0 0 0 0 0 1 106 362 523 533 495 786 1052 978 1105 1127 1018 906 724 667 738 778 681 435 195 76 4 0 0 0 0 0 0 0 0 0 0
0 0 0 0 0 0 0 0 0 0 0 0 0 0 0 0 0 0 0 0 364 685 751 687 917 895 879 1063 987 1056 911 832 798 783 737 573 302 144 40 1 0 0 0 0 0 0 0 0 0
0 0 0 0 0 0 0 0 0 0 0 0 0 0 0 0 0 0 0 0 27 420 770 940 775 768 727 804 837 773 890 925 1004 882 822 680 487 258 112 21 0 0 0 0 0 0 7 23 11
0 0 0 0 0 0 0 0 0 0 0 0 0 0 0 0 0 0 0 0 0 126 465 1009 945 758 671 603 793 712 708 992 983 1024 930 747 651 455 242 73 3 0 0 4 7 34 36 53 100
0 0 0 0 0 0 0 0 0 0 0 0 0 0 0 0 0 0 0 0 0 50 343 670 1146 940 720 635 716 785 762 843 946 947 747 807 762 594 345 160 36 6 0 6 33 73 153 179 230
0 0 0 0 0 0 0 0 0 0 0 0 0 0 0 0 0 0 0 0 0 26 137 596 950 863 974 765 686 701 643 652 577 565 509 587 510 531 363 178 81 50 33 35 107 154 185 310 320
0 0 0 0 0 0 0 0 0 0 0 0 0 0 0 0 0 0 0 0 0 0 65 322 731 903 1089 1129 811 841 739 587 495 390 338 343 354 231 155 107 79 73 77 54 135 235 283 341 281
0 0 0 0 0 0 0 0 0 0 0 0 0 0 0 0 0 0 0 0 0 0 0 101 476 923 1113 1156 1238 1217 1079 821 555 481 320 455 440 390 377 343 230 168 121 92 158 305 446 419 351
0 0 0 0 0 0 0 0 0 0 0 0 0 0 0 0 0 0 0 0 0 0 0 0 97 560 1074 1016 1255 1360 1324 1225 991 920 931 939 814 695 679 673 563 530 594 658 742 535 460 479 387
0 0 0 0 0 0 0 0 0 0 0 0 0 0 0 0 0 0 0 0 0 0 0 0 0 111 851 1231 1317 1202 1404 1288 1426 1432 1327 1184 1064 955 999 1048 947 774 800 797 757 371 373 434 395
0 0 0 0 0 0 0 0 0 0 0 0 0 0 0 0 0 0 0 0 0 0 0 0 0 16 530 1337 1527 1492 1452 1675 1507 1443 1326 1255 1189 1068 965 929 223 305 267 202 99 139 109 237 285
0 0 0 0 0 0 0 0 0 0 0 0 0 0 0 0 0 0 0 0 0 0 0 0 0 0 242 1046 1562 1663 1695 1418 1007 956 1027 1101 1127 1096 902 497 243 71 307 139 24 13 3 317 340
0 0 0 0 0 0 0 0 0 0 0 0 0 0 0 0 0 0 0 0 0 0 0 0 0 0 0 321 663 1201 1435 1125 773 598 582 517 523 721 668 494 396 317 265 154 18 0 19 80 116
0 0 0 0 0 0 0 0 0 0 0 0 0 0 0 0 0 0 0 0 0 0 0 0 0 0 0 0 0 1 0 0 0 0 0 12 62 144 328 521 695 735 487 250 177 41 77 45 22
0 0 0 0 0 0 0 0 0 0 0 0 0 0 0 0 0 0 0 0 0 0 0 0 0 0 0 0 0 0 2 4 0 0 2 9 11 10 31 54 110 658 820 643 376 302 182 39 61
0 0 0 0 0 0 0 0 0 0 0 0 0 0 0 0 0 0 0 0 0 0 0 0 0 7 0 0 18 14 11 0 0 0 0 14 32 51 37 125 128 96 438 884 810 483 375 373 372
0 0 0 0 0 0 0 0 0 0 0 0 0 0 0 0 0 0 0 0 0 0 0 0 0 1 9 39 8 2 1 0 0 0 4 54 80 115 341 301 401 482 484 505 543 563 582 501 511
0 0 0 0 0 0 0 0 0 0 0 0 0 0 0 0 0 0 0 0 0 0 0 0 4 1 0 0 0 0 0 6 54 48 12 16 18 252 363 269 53 68 145 115 101 80 95 156 184
0 0 0 0 0 0 0 0 0 0 0 0 0 0 0 0 3 0 0 0 0 0 0 0 0 0 0 0 0 0 0 11 143 108 19 29 37 242 182 44 0 0 0 0 0 0 0 0 10

GFSSGP_con_mlcape_093.txt.gz
CAPE
0 0 0 0 0 0 0 0 0 0 0 0 0 20 25 6 14 5 217 5 23 1019 1327 731 451 411 894 1213 1193 1039 888 749 427 292 416 297 179 186 148 90 93 78 0 0 0 0 0 0 0
0 0 0 0 0 0 0 0 0 0 0 0 0 0 0 8 27 294 188 167 65 966 1269 778 379 290 412 824 892 879 860 776 548 600 580 376 182 110 54 31 63 6 0 0 0 0 0 0 0
0 0 0 0 0 0 0 0 0 0 0 0 0 0 0 0 0 97 231 538 429 1068 1146 921 379 174 112 379 717 828 847 757 632 638 489 167 71 41 16 16 11 0 0 0 0 0 0 0 0
0 0 0 0 0 0 0 0 0 0 0 0 0 0 0 0 0 73 606 574 617 1025 996 1052 495 199 65 89 344 607 798 779 668 623 300 71 52 23 0 0 0 0 0 0 0 0 0 0 0
0 0 0 0 0 0 0 0 0 0 0 0 0 0 0 0 97 464 808 778 508 897 950 1088 629 326 125 48 77 233 499 587 528 277 168 138 50 7 0 0 0 0 0 0 0 0 0 0 0
0 0 0 0 0 0 0 0 0 0 0 0 0 0 0 0 10 558 910 877 578 746 1096 1128 718 449 272 107 46 47 177 316 373 294 195 140 59 4 0 0 0 0 0 0 0 0 0 0 0
0 0 0 0 0 0 0 0 0 0 0 0 0 0 0 0 0 494 1029 1011 655 902 1220 1191 802 538 361 322 146 74 106 241 427 420 268 135 30 1 0 0 0 0 0 0 0 0 0 0 0
0 0 0 0 0 0 0 0 0 0 0 0 0 0 0 0 0 213 769 1050 679 821 1095 1232 1032 647 489 505 332 159 111 222 339 387 324 135 22 0 0 0 0 0 0 0 0 0 0 0 0
0 0 0 0 0 0 0 0 0 0 0 0 0 0 0 0 0 24 420 575 542 612 1015 1214 1088 1038 645 510 558 279 214 187 192 293 344 183 45 54 23 0 0 0 0 0 0 0 0 0 0
0 0 0 0 0 0 0 0 0 0 0 0 0 0 0 0 0 22 344 452 428 357 781 1129 1295 1207 876 601 707 604 542 436 351 296 309 219 236 222 84 38 0 0 0 0 0 0 0 0 0
0 0 0 0 0 0 0 0 0 0 0 0 0 0 0 0 0 211 493 575 572 543 718 1031 1526 1450 984 717 777 855 758 789 816 751 719 561 310 249 166 79 50 36 7 0 0 0 0 0 0
0 0 0 0 0 0 0 0 0 0 0 0 0 0 0 0 0 0 287 592 535 560 736 1169 1577 1501 1289 1135 956 855 791 940 877 836 760 510 338 237 155 156 87 104 26 40 21 0 0 13 39
0 0 0 0 0 0 0 0 0 0 0 0 0 0 0 0 0 0 0 345 685 738 798 1033 1436 1455 1588 1531 1265 1070 988 962 914 969 931 731 394 226 178 192 149 59 32 8 2 0 0 86 137
0 0 0 0 0 0 0 0 0 0 0 0 0 0 0 0 0 0 0 0 4 657 1028 1226 1368 1621 1705 1639 1794 1564 1378 1155 1168 1085 1133 1038 766 528 283 225 164 112 41 6 0 1 49 159 242
0 0 0 0 0 0 0 0 0 0 0 0 0 0 0 0 0 0 0 0 0 1 588 870 1451 1714 1614 1507 1641 1650 1595 1453 1376 1263 1203 1129 1009 966 639 438 283 177 139 42 1 40 157 165 224
0 0 0 0 0 0 0 0 0 0 0 0 0 0 0 0 0 0 0 0 0 0 45 986 1358 1560 1443 1221 1422 1512 1642 1542 1507 1453 1257 1096 1101 978 756 674 470 397 186 98 115 195 253 313 367
0 0 0 0 0 0 0 0 0 0 0 0 0 0 0 0 0 0 0 0 0 0 0 518 1356 1507 1660 1510 1453 1427 1456 1423 1478 1418 1310 1338 1270 1145 882 732 608 457 347 179 130 177 262 399 595
0 0 0 0 0 0 0 0 0 0 0 0 0 0 0 0 0 0 0 0 0 0 0 154 1158 1625 1606 1603 1566 1484 1465 1401 1464 1403 1334 1234 1234 1225 1090 1021 843 567 444 247 150 118 327 452 629
0 0 0 0 0 0 0 0 0 0 0 0 0 0 0 0 0 0 0 0 0 0 0 0 475 1248 1691 1543 1368 1399 1253 1268 1319 1290 1227 1101 904 1035 1037 890 672 449 295 233 212 175 292 618 715
0 0 0 0 0 0 0 0 0 0 0 0 0 0 0 0 0 0 0 0 0 0 0 0 0 421 1364 1721 1635 1652 1740 1682 1555 1429 1286 1103 997 947 676 470 570 521 464 427 484 548 747 900 744
0 0 0 0 0 0 0 0 0 0 0 0 0 0 0 0 0 0 0 0 0 0 0 0 0 0 458 1602 1956 1854 2046 1960 1789 1734 1543 1262 1181 1085 963 573 392 824 1127 959 1077 846 732 615 619
0 0 0 0 0 0 0 0 0 0 0 0 0 0 0 0 0 0 0 0 0 0 0 0 0 0 0 833 1737 1731 1592 1557 1624 1878 1945 1852 1868 1875 1677 957 1014 1302 1418 828 631 381 204 200 152
0 0 0 0 0 0 0 0 0 0 0 0 0 0 0 0 0 0 0 0 0 0 0 0 0 0 0 124 986 1860 1889 1993 2132 2084 2325 2344 2261 2152 2152 2138 1934 1708 940 447 243 168 76 0 0
0 0 0 0 0 0 0 0 0 0 0 0 0 0 0 0 0 0 0 0 0 0 0 0 0 0 0 58 623 1547 2085 2144 1743 1905 2250 2400 2301 2175 2097 2004 2097 1209 777 474 211 121 85 1 9
0 0 0 0 0 0 0 0 0 0 0 0 0 0 0 0 0 0 0 0 0 0 0 0 0 0 0 0 491 1194 2154 2083 1957 1832 1817 1608 1416 1315 1463 1751 1623 1395 1036 743 633 333 221 176 149
0 0 0 0 0 0 0 0 0 0 0 0 0 0 0 0 0 0 0 0 0 0 0 0 0 0 0 0 163 788 1115 1417 1489 1115 626 579 450 481 737 844 1163 1528 1579 1450 1086 585 305 168 205
0 0 0 0 0 0 0 0 0 0 0 0 0 0 0 0 0 0 0 0 0 0 0 0 0 0 0 0 75 166 84 25 17 27 47 39 26 43 85 216 367 472 1196 1752 1689 1105 916 683 377
0 0 0 0 0 0 0 0 1 0 0 0 0 0 0 0 0 0 0 0 0 0 0 0 0 0 10 64 107 100 102 123 95 92 93 152 209 272 360 423 584 698 689 1176 1842 1786 1508 1158 908
0 0 0 0 2 2 2 0 0 0 0 0 0 0 0 0 0 0 0 0 0 0 0 0 0 3 24 102 186 197 194 172 181 249 315 396 451 471 712 920 1043 1163 1270 1221 1414 1487 1430 1354 1222
0 0 0 0 0 3 0 0 0 0 0 0 0 0 0 0 0 0 0 0 0 0 0 0 0 0 0 27 3 9 2 21 271 374 412 585 285 458 789 1036 816 458 591 728 669 597 439 481 447

GFSSGP_con_mlcape_096.txt.gz
CAPE
0 0 0 0 0 0 0 0 0 0 0 0 0 61 25 41 59 359 756 74 37 500 1283 783 627 842 1059 1401 1469 955 709 379 39 108 70 87 82 106 160 218 189 111 36 0 0 0 0 0 0
0 0 0 0 0 0 11 0 0 0 0 0 0 0 31 44 103 540 518 124 271 615 1242 781 573 790 1095 1420 1515 1160 805 490 126 173 126 209 138 148 118 62 79 31 0 0 0 0 0 0 53
0 0 0 0 0 0 0 0 0 0 0 0 0 0 0 11 8 484 664 349 388 720 950 824 520 631 1058 1373 1468 1223 957 671 315 331 471 325 142 170 141 90 56 9 0 0 0 0 0 0 0
0 0 0 0 0 0 0 0 0 0 0 0 0 0 0 0 23 495 589 547 653 678 674 1084 474 530 771 1159 1294 1157 1001 846 595 647 698 437 180 143 62 40 14 9 0 0 0 0 0 0 0
0 0 0 0 0 0 0 0 0 0 0 0 0 0 0 0 550 945 727 672 792 656 533 1307 425 291 513 854 1010 999 970 899 821 904 727 383 181 101 32 0 0 0 0 0 0 0 0 0 0
0 0 0 0 0 0 0 0 0 0 0 0 0 0 0 0 132 1118 1121 1150 795 648 567 1037 551 171 127 403 783 898 891 810 801 817 704 297 191 82 25 3 0 0 0 0 0 0 0 0 0
0 0 0 0 0 0 0 0 0 0 0 0 0 0 0 0 0 662 1402 1402 797 621 665 1137 609 392 139 131 288 512 653 722 689 648 417 359 217 105 21 0 0 0 0 0 0 0 0 0 0
0 0 0 0 0 0 0 0 0 0 0 0 0 0 0 0 0 10 1156 1379 770 560 539 1083 768 438 259 237 134 108 217 342 387 295 272 329 303 158 31 0 0 0 0 0 0 0 0 0 0
0 0 0 0 0 0 0 0 0 0 0 0 0 0 0 0 0 2 344 1221 879 491 543 856 839 591 416 372 486 203 123 183 279 352 421 279 130 78 42 0 14 0 0 0 0 0 0 0 0
0 0 0 0 0 0 0 0 0 0 0 0 0 0 0 0 0 0 124 540 944 645 502 786 947 801 564 371 615 379 286 186 184 242 456 370 117 8 0 2 33 24 7 0 0 0 0 0 0
0 0 0 0 0 0 0 0 0 0 0 0 0 0 0 0 0 0 30 160 694 790 665 804 1291 1340 1049 540 590 475 355 267 202 211 387 395 128 129 92 44 61 0 0 0 0 0 0 0 0
0 0 0 0 0 0 0 0 0 0 0 0 0 0 0 0 0 0 0 235 649 892 934 1004 1400 1784 1751 917 701 663 436 435 379 357 474 441 348 246 121 34 18 19 9 0 8 0 0 2 94
0 0 0 0 0 0 0 0 0 0 0 0 0 0 0 0 0 0 0 0 290 630 1007 1384 1407 1895 1938 1689 1027 960 825 677 654 668 790 588 402 345 261 147 110 48 18 21 21 0 2 54 332
0 0 0 0 0 0 0 0 0 0 0 0 0 0 0 0 0 0 0 0 2 410 929 1432 1712 2012 2036 1875 1735 1411 1256 932 977 883 878 1161 840 704 477 398 267 148 78 19 5 2 14 171 462
0 0 0 0 0 0 0 0 0 0 0 0 0 0 0 0 0 0 0 0 0 0 30 1393 1960 2179 2274 2239 2249 2083 1578 1372 1139 1179 1388 1477 1434 1044 960 597 485 295 278 218 154 105 161 397 498
0 0 0 0 0 0 0 0 0 0 0 0 0 0 0 0 0 0 0 0 0 0 0 341 1218 1595 2461 2440 2461 2265 1891 1677 1352 1327 1482 1782 1947 1508 1516 891 736 626 562 392 210 162 191 304 488
0 0 0 0 0 0 0 0 0 0 0 0 0 0 0 0 0 0 0 0 0 0 0 0 376 1324 1922 2685 2658 2448 2173 2067 1733 1634 1743 2114 1727 1366 1613 1326 1009 1238 801 566 413 249 191 162 364
0 0 0 0 0 0 0 0 0 0 0 0 0 0 0 0 0 0 0 0 0 0 0 0 8 884 1991 2639 2918 2503 2221 2076 1898 1768 1832 2057 1877 1661 1862 1845 1773 1537 925 858 721 514 299 186 135
0 0 0 0 0 0 0 0 0 0 0 0 0 0 0 0 0 0 0 0 0 0 0 0 0 500 1978 2335 2637 2636 2344 2198 2087 1894 1946 1877 1838 1892 2314 1790 1794 1475 913 1072 859 684 458 260 654
0 0 0 0 0 0 0 0 0 0 0 0 0 0 0 0 0 0 0 0 0 0 0 0 0 168 1653 2140 2306 2367 2339 2240 2185 2052 2169 2266 2220 2044 1940 1932 1727 1583 1166 919 622 593 493 750 1218
0 0 0 0 0 0 0 0 0 0 0 0 0 0 0 0 0 0 0 0 0 0 0 0 0 39 399 1661 2159 2462 2354 2348 2207 2276 2461 2451 2459 2314 2002 1858 1760 1394 899 806 1011 1054 1111 1266 1326
0 0 0 0 0 0 0 0 0 0 0 0 0 0 0 0 0 0 0 0 0 0 0 0 0 0 67 453 1126 1937 2014 1853 1854 2312 2319 2514 2692 2512 2124 1832 1805 1872 1481 1194 1278 1436 1402 1127 760
0 0 0 0 0 0 0 0 0 0 0 0 0 0 0 0 0 0 0 0 0 0 0 0 0 0 10 158 544 1130 2008 1725 1622 1830 2047 2627 2843 2708 2150 2030 2051 1600 1256 543 1485 1361 1089 733 413
0 0 0 0 0 0 0 0 0 0 0 0 0 0 0 0 0 0 0 0 0 0 0 0 0 0 0 59 332 751 1169 1649 1336 1619 2003 2347 2775 3069 2916 2776 2750 2590 2540 2000 2319 1778 1354 799 289
0 0 0 0 0 0 0 0 0 0 0 0 0 0 0 0 0 0 0 0 0 0 0 0 0 0 0 15 94 393 991 1858 2471 2334 2428 2400 2373 2736 2951 3349 3155 3093 2941 2633 1955 1467 1406 1280 1020
0 5 1 0 0 1 0 0 1 0 0 0 0 0 0 0 0 0 0 0 0 0 0 0 0 0 0 28 32 157 435 1104 1833 2412 2323 2283 2345 2718 2748 3333 3108 3029 2808 2474 2235 2038 1821 1434 1319
0 0 0 0 0 0 0 0 0 0 0 0 0 0 0 0 0 0 0 0 0 0 0 0 0 0 12 73 97 153 312 1111 1689 2144 2684 2741 2641 2276 2386 2822 2833 2843 2685 2496 2339 2065 1871 1751 1556
0 0 0 0 2 2 2 1 5 0 4 1 0 0 0 0 0 0 0 0 0 0 0 0 1 0 12 84 246 232 407 819 1416 1835 1704 859 598 378 635 858 1057 1215 1388 1811 2127 1958 1971 2017 1693
0 1 1 1 1 6 9 4 0 0 1 4 0 0 0 0 0 0 0 0 0 0 0 0 11 16 39 30 237 428 505 517 552 634 508 452 504 371 306 295 314 405 566 827 1158 1349 1576 1714 1962
0 0 0 1 16 12 13 8 0 0 11 5 0 5 0 0 0 0 0 3 5 1 0 0 0 5 78 50 44 78 310 543 576 653 735 755 694 550 397 482 548 585 610 813 957 902 782 1153 1404

GFSSGP_con_mlcape_099.txt.gz
CAPE
0 0 0 0 0 0 0 31 0 0 0 0 0 4 15 5 362 1159 1036 81 68 976 856 822 851 1055 1149 1067 707 349 199 57 45 31 56 69 151 217 235 316 503 557 200 0 0 0 0 0 0
0 0 0 0 0 0 6 11 0 0 0 0 0 0 3 57 275 668 360 105 246 1002 1034 839 851 1017 1096 1178 1070 716 512 197 93 62 89 118 199 146 186 253 351 155 5 0 0 0 0 0 0
0 0 0 0 0 0 23 3 0 0 0 0 0 0 1 30 63 842 595 420 341 842 921 1377 770 918 1013 1204 1397 1043 758 491 220 139 137 209 257 159 214 170 135 17 0 0 0 0 0 2 38
0 0 0 0 0 0 1 1 0 0 0 0 0 0 0 0 117 701 462 493 715 598 675 1444 667 788 989 1193 1432 1344 1034 782 398 301 248 393 367 253 195 60 25 0 0 0 0 0 0 0 0
0 0 0 0 0 0 0 0 0 0 0 0 0 0 0 36 192 354 498 541 869 583 457 1529 602 725 888 1179 1414 1449 1201 921 569 481 536 624 397 188 137 65 7 0 0 0 0 0 0 0 0
0 0 0 0 0 0 0 0 0 0 0 0 0 0 0 0 185 364 450 757 790 617 464 1428 667 721 831 1056 1272 1322 1133 931 724 503 736 733 446 184 116 56 4 0 0 0 0 0 0 0 0
0 0 0 0 0 0 0 0 0 0 0 0 0 0 0 0 0 523 676 851 692 652 506 1185 570 664 628 863 1072 1148 1043 957 851 712 794 680 379 268 140 47 28 0 0 0 0 0 0 0 0
0 0 0 0 0 0 0 0 0 0 0 0 0 0 0 0 0 0 475 557 553 576 554 1052 509 320 332 647 817 923 975 960 925 817 729 541 256 207 124 116 19 16 0 0 0 0 0 0 0
0 0 0 0 0 0 0 0 0 0 0 0 0 0 0 0 0 0 29 381 389 376 535 1034 604 352 216 178 509 574 724 848 826 812 731 350 183 228 125 0 38 0 0 0 0 0 0 0 0
0 0 0 0 0 0 0 0 0 0 0 0 0 0 0 0 0 0 1 102 398 383 389 893 1016 732 493 258 525 268 216 323 392 408 566 364 192 61 0 1 0 4 0 0 0 0 0 0 0
0 0 0 0 0 0 0 0 0 0 0 0 0 0 0 0 0 0 0 17 212 383 398 573 1291 1247 902 509 565 736 183 164 149 126 297 538 267 85 25 70 35 17 0 0 0 0 0 0 0
0 0 0 0 0 0 0 0 0 0 0 0 0 0 0 0 0 0 0 0 42 372 487 592 1315 1662 1542 861 590 856 298 273 200 170 496 814 560 243 194 62 116 44 2 0 0 0 0 0 15
0 0 0 0 0 0 0 0 0 0 0 0 0 0 0 0 0 0 0 0 11 230 617 851 1178 2108 2234 2029 1106 948 712 472 426 343 465 625 580 406 389 252 54 60 28 36 19 20 11 30 81
0 0 0 0 0 0 0 0 0 0 0 0 0 0 0 0 0 0 0 0 0 354 614 711 1355 2050 2511 2501 2223 1596 1482 663 627 563 601 771 694 669 477 413 233 104 133 42 74 74 57 85 139
0 0 0 0 0 0 0 0 0 0 0 0 0 0 0 0 0 0 0 0 0 0 253 520 1146 1824 2513 2798 2474 2250 1561 1390 922 865 1174 1370 1258 1026 711 572 492 344 269 160 101 86 117 121 214
0 0 0 0 0 0 0 0 0 0 0 0 0 0 0 0 0 0 0 0 0 0 0 0 476 1289 2575 2808 2698 2429 2119 1822 1515 1254 1383 1752 1798 1345 1440 677 673 563 459 400 279 167 95 109 236
0 0 0 0 0 0 0 0 0 0 0 0 0 0 0 0 0 0 0 0 0 0 0 0 0 486 992 2797 2748 2790 2813 2640 2226 1809 1676 1936 2185 2154 1804 1092 881 948 730 692 470 269 206 191 285
0 0 0 0 0 0 0 0 0 0 0 0 0 0 0 0 0 0 0 0 0 0 0 0 0 19 593 1490 2838 2563 2682 3111 2931 2517 2035 2183 2641 2619 2354 1847 1481 1157 1465 1072 823 577 493 394 285
0 0 0 0 0 0 0 0 0 0 0 0 0 0 0 0 0 0 0 0 0 0 0 0 4 44 122 345 1462 2005 2309 2708 3028 2779 2654 2499 2875 2875 2693 2065 2233 1165 1315 1423 1406 1246 994 699 508
0 0 0 0 0 0 0 0 0 0 0 0 0 0 0 0 0 0 0 0 0 0 0 0 0 39 272 317 952 1545 2072 2234 2659 2481 2669 2634 2754 3059 2756 2604 2317 1876 1324 1701 1599 1437 1131 858 778
0 0 0 0 0 0 0 0 0 0 0 0 0 0 0 0 0 0 0 0 0 0 0 0 0 0 61 330 1001 2195 2298 2349 2434 2449 2595 2772 3052 3026 2966 3179 2820 2599 2406 1855 2058 1636 1115 832 1096
0 0 0 0 0 0 0 0 0 0 0 0 0 0 0 0 0 0 0 0 0 0 0 0 0 0 0 53 175 644 1708 1905 1864 1913 2159 2601 3112 3200 3225 3271 3210 2952 2518 1870 2037 1833 1241 1153 1402
0 0 0 0 0 0 0 0 0 0 0 0 0 0 0 0 0 0 0 0 0 0 0 0 0 0 0 33 136 247 461 924 1661 1817 1917 2369 3040 3298 3086 3321 3309 3053 2719 2126 1949 1982 1591 1573 1462
0 0 0 0 0 0 0 0 0 0 0 0 0 0 0 0 0 0 0 0 0 0 0 0 0 0 0 0 37 268 616 733 1175 1453 1840 2163 2238 3028 3552 3254 3355 3223 2959 2619 2383 2419 1946 1968 1417
0 0 0 0 1 0 0 3 1 0 0 0 0 0 0 0 0 0 0 0 0 0 0 0 0 0 0 0 0 60 235 854 1205 1492 1690 1718 2086 2230 3096 3286 2879 3110 3183 2800 2464 2321 2302 2480 1916
0 0 0 0 6 6 0 1 7 0 0 0 0 0 0 0 0 0 0 0 0 0 0 0 0 0 0 0 0 58 154 155 362 965 1218 1680 1713 2146 2802 3210 3252 3074 3383 3269 3297 3167 3212 2932 2707
0 0 0 3 20 11 0 0 0 1 0 0 0 0 0 0 0 0 0 0 0 0 0 0 0 0 0 0 4 120 247 394 437 688 1590 1989 2279 2119 2016 2770 2944 3390 3223 3206 3071 3093 2839 2697 2593
0 0 0 3 8 6 6 13 25 1 2 0 0 3 4 0 0 0 0 0 0 1 0 0 0 0 0 9 0 103 251 344 460 938 1555 1887 2428 2678 2869 2397 2424 2939 2760 2128 2674 2669 2618 2532 2386
0 2 1 0 2 17 14 9 7 1 1 0 6 4 3 7 3 0 2 7 3 4 2 2 3 2 1 20 15 9 151 410 536 788 1207 1581 2075 2253 1975 1971 2111 2294 2389 2457 2296 2275 2059 1977 2125
7 8 7 3 10 24 19 14 1 2 9 12 6 3 9 6 0 3 21 9 2 8 2 0 1 1 0 0 1 87 85 230 217 386 888 1172 981 1003 904 1079 1141 1200 1187 1338 1372 1419 1223 1274 1608

GFSSGP_con_mlcape_102.txt.gz
CAPE
0 0 0 0 0 0 0 0 0 0 0 0 0 0 0 185 921 1601 770 327 1211 1014 1346 1361 1033 920 726 435 211 29 8 68 109 33 48 93 126 178 342 535 601 407 113 2 0 0 0 0 0
0 0 0 0 0 0 0 20 14 1 0 0 0 0 7 71 616 688 139 381 1186 992 1084 1391 1180 1006 957 635 215 38 31 123 124 36 38 81 128 170 223 363 463 300 5 0 0 0 0 0 0
0 0 0 0 0 0 0 0 6 0 0 0 0 0 0 44 501 898 205 517 1056 882 1010 1535 1252 1124 1042 870 587 273 260 160 162 115 69 114 160 112 191 301 222 39 0 0 0 0 0 0 0
0 0 0 0 0 0 0 0 2 0 0 0 0 0 0 118 404 835 480 381 909 813 919 1237 1010 964 1014 1011 944 724 498 399 248 242 172 225 225 120 86 119 40 0 0 0 0 0 0 0 15
0 0 0 0 0 0 0 0 0 0 0 0 0 0 22 146 338 428 451 552 587 802 1636 1346 856 972 981 1111 1074 985 785 664 453 275 229 351 334 169 82 52 0 0 0 0 0 0 0 0 0
0 0 0 0 0 0 0 0 0 0 0 0 0 0 42 91 104 123 325 543 644 820 1667 1192 687 826 929 982 1127 1189 1048 829 588 385 326 501 389 199 117 86 15 0 0 0 0 0 0 0 0
0 0 0 0 0 0 0 0 0 0 0 0 0 0 0 20 179 354 324 564 639 798 1854 1273 653 847 876 960 1119 1269 1199 979 781 507 408 624 404 149 92 60 27 6 0 0 0 0 0 0 0
0 0 0 0 0 0 0 0 0 0 0 0 0 0 0 0 0 14 362 354 368 402 1677 1268 745 903 986 1074 1124 1184 1234 1092 919 703 624 665 410 173 110 32 3 0 0 0 0 0 0 0 0
0 0 0 0 0 0 0 0 0 0 0 0 0 0 0 0 0 0 21 317 265 313 1033 1051 505 515 513 735 1174 1169 1243 1121 1027 908 810 699 443 242 165 0 1 0 0 0 0 0 0 0 0
0 0 0 0 0 0 0 0 0 0 0 0 0 0 0 0 0 0 0 152 264 237 468 1132 599 508 348 230 736 732 1184 1252 1155 1127 1041 719 363 470 204 43 17 4 0 0 0 0 0 0 0
0 0 0 0 0 0 0 0 0 0 0 0 0 0 0 0 0 0 0 1 124 314 243 974 1175 776 534 368 909 535 539 767 1083 1180 1234 796 407 375 192 153 27 36 9 0 0 0 0 0 0
0 0 0 0 0 0 0 0 0 0 0 0 0 0 0 0 0 0 0 0 3 253 326 609 1412 1329 1021 775 1123 987 408 372 367 433 640 833 470 399 190 231 78 45 43 0 0 0 0 0 0
0 0 0 0 0 0 0 0 0 0 0 0 0 0 0 0 0 0 0 0 0 0 494 498 1393 1931 1611 1375 1568 1433 796 538 380 392 377 561 731 726 367 178 304 272 73 1 0 18 25 39 64
0 0 0 0 0 0 0 0 0 0 0 0 0 0 0 0 0 0 0 0 0 0 602 370 102 774 2556 2053 1859 2193 1209 716 548 482 430 583 1222 662 554 470 264 324 60 147 36 76 75 103 55
0 0 0 0 0 0 0 0 0 0 0 0 0 0 0 0 0 0 0 0 0 0 40 343 401 0 0 2757 2240 2479 2136 1287 1119 757 621 797 731 1182 806 649 733 288 388 305 228 193 260 289 214
0 0 0 0 0 0 0 0 0 0 0 0 0 0 0 0 0 0 0 0 0 0 0 118 638 882 1992 2951 2990 2630 2322 2222 1428 1548 1225 1192 953 962 1397 900 635 644 610 380 280 171 184 139 112
0 0 0 0 0 0 0 0 0 0 0 0 0 0 0 0 0 0 0 0 0 0 0 0 0 38 2345 2837 3132 3183 2769 2544 2496 1833 1806 1892 1632 1321 1382 1147 995 934 721 590 442 450 194 233 282
0 0 0 0 0 0 0 0 0 0 0 0 0 0 0 0 0 0 0 0 0 0 0 0 0 0 0 489 3281 3050 3032 2884 3162 2682 2339 2175 2324 2001 1571 1846 1246 1097 831 680 715 487 457 419 455
0 0 0 0 0 0 0 0 0 0 0 0 0 0 0 0 0 0 0 0 0 0 0 0 0 21 14 0 889 3094 2585 2561 2956 3002 3146 2524 2614 2719 2515 2365 2046 1922 1364 1057 996 747 873 598 689
0 0 0 0 0 0 0 0 0 0 0 0 0 0 0 0 0 0 0 0 0 0 0 0 0 0 108 308 284 342 1479 2407 2349 2987 2952 2942 3037 2864 3122 2920 2443 2427 2533 1928 1644 1301 953 1214 875
0 0 0 0 0 0 0 0 0 0 0 0 0 0 0 0 0 0 0 0 0 0 0 0 0 0 0 0 53 166 1332 1650 1432 2584 3516 3477 3158 3044 2872 3299 2833 2503 2433 1876 2105 1987 1517 1194 1263
0 0 0 0 0 0 0 0 0 0 0 0 0 0 0 0 0 0 0 0 0 0 0 0 0 0 0 6 9 170 315 487 1552 1751 2500 3149 3170 2907 2998 2982 3059 2576 2768 2045 2026 1895 1803 1547 1095
0 0 0 0 0 0 0 0 0 0 0 0 0 0 0 0 0 0 0 0 0 0 0 0 0 0 0 0 0 15 44 191 564 838 1547 1833 2967 2491 2827 2901 2746 3083 2811 2788 2374 2309 2134 1773 1321
0 0 0 0 0 0 0 0 0 0 0 0 0 0 0 0 0 0 0 0 0 0 0 0 0 0 0 0 0 11 87 118 130 260 691 1208 2089 2586 2118 2429 2709 2741 2952 2803 2599 2533 2383 1998 1506
0 0 0 0 0 0 0 0 0 3 0 0 0 0 0 0 0 0 0 0 0 0 0 0 0 0 0 0 0 0 0 119 232 233 210 374 895 1657 2011 1663 2112 2784 2981 2957 2851 2506 2326 2159 1834
0 0 0 0 0 0 1 0 0 1 0 0 0 0 0 0 0 0 0 0 0 0 0 0 0 0 0 0 0 5 0 16 107 217 365 573 405 423 914 1012 1532 1255 2586 2776 2988 2463 2563 2487 2140
1 0 0 0 0 0 0 0 0 1 0 0 0 0 0 0 0 0 0 0 0 0 0 6 0 10 5 4 0 6 0 136 316 295 318 454 794 1630 623 774 1570 721 0 368 2346 2553 2435 2156 2238
1 0 0 0 5 1 2 11 11 17 1 0 0 0 0 0 0 0 0 0 0 0 0 6 12 1 0 0 6 13 0 0 102 179 504 680 844 965 1551 1941 1460 1068 407 659 2001 2265 2143 1771 1226
12 4 1 0 0 2 0 0 5 0 0 0 0 0 1 0 0 0 0 0 0 0 0 10 12 5 1 0 3 1 0 0 17 118 116 280 346 1008 1322 1483 1967 1993 1761 1646 1428 1300 1203 590 23
15 18 7 0 7 0 19 1 0 2 0 1 0 9 0 1 0 0 0 0 0 0 0 0 28 4 0 4 9 7 0 12 26 31 49 13 1 2 3 45 1116 1788 1767 1217 335 0 671 519 247

GFSSGP_con_mlcape_105.txt.gz
CAPE
0 0 0 0 0 0 0 0 0 0 0 0 0 0 397 777 1239 483 833 1116 701 790 1639 1343 707 339 45 4 10 3 4 44 31 24 14 61 219 288 196 183 139 80 30 0 0 0 0 0 0
0 0 0 0 0 0 0 0 2 0 0 0 0 17 367 749 774 815 1066 1041 455 684 1284 1377 807 424 108 27 11 0 8 72 54 17 19 46 79 214 328 371 280 54 0 0 0 0 0 0 0
0 0 0 0 0 0 0 0 7 0 0 0 0 9 61 508 388 341 1006 1117 466 590 1187 1344 1010 661 343 63 35 21 35 89 101 52 40 57 42 39 108 200 105 0 0 0 0 0 0 0 0
0 0 0 0 0 0 0 0 1 0 0 0 0 3 105 597 692 580 931 958 449 674 1170 1274 1113 903 625 262 76 87 117 115 126 95 77 122 82 61 65 35 0 0 0 0 0 0 0 0 0
0 0 0 0 0 0 0 0 0 0 0 0 0 55 207 542 499 496 932 866 682 656 1082 1060 1185 1072 901 654 418 305 373 177 119 163 125 138 105 57 61 38 0 0 0 0 0 0 0 0 0
0 0 0 0 0 0 0 0 6 0 0 0 0 56 129 236 315 392 555 791 742 1056 1179 718 980 1012 1041 945 779 693 638 530 230 105 157 260 178 101 68 38 0 0 0 0 0 0 0 0 0
0 0 0 0 0 0 0 0 18 0 0 0 0 55 16 74 181 306 475 605 1265 1387 1023 651 893 1056 1098 1087 1031 948 918 846 589 310 234 303 218 118 83 52 0 0 0 0 0 0 0 0 0
0 0 0 0 0 0 0 0 0 10 0 0 0 0 0 0 0 425 452 950 1211 1479 1145 638 674 971 1124 1254 1294 1231 1159 1095 924 540 369 520 380 140 65 7 0 0 0 0 0 0 0 0 0
0 0 0 0 0 0 0 0 0 0 0 0 0 0 0 0 0 0 146 535 1171 1521 1290 845 414 524 756 958 1305 1416 1351 1211 1038 818 562 595 489 256 130 11 0 0 0 0 0 0 0 0 0
0 0 0 0 0 0 0 0 0 0 0 0 0 0 0 0 0 0 0 273 521 1116 1253 812 177 199 335 898 965 1206 1386 1406 1224 1068 852 628 469 293 181 51 19 0 0 0 0 0 0 0 0
0 0 0 0 0 0 0 0 0 0 0 0 0 0 0 0 0 0 0 0 315 886 842 732 483 191 134 359 773 582 963 1154 1175 1105 964 685 531 512 366 130 60 61 14 0 0 0 0 0 0
0 0 0 0 0 0 0 0 0 0 0 0 0 0 0 0 0 0 0 0 0 2 693 518 602 538 288 239 528 440 412 444 721 1114 1094 829 609 415 479 245 111 41 39 0 0 0 0 0 0
0 0 0 0 0 0 0 0 0 0 0 0 0 0 0 0 0 0 0 0 0 0 354 738 554 485 458 345 597 464 388 419 336 541 1084 1136 717 536 420 340 122 53 23 0 0 0 0 0 0
0 0 0 0 0 0 0 0 0 0 0 0 0 0 0 0 0 0 0 0 0 115 688 1048 943 763 855 1180 1269 878 587 474 371 373 451 899 843 392 446 332 177 111 71 40 0 0 0 1 0
0 0 0 0 0 0 0 0 0 0 0 0 0 0 0 0 0 0 0 0 0 0 565 1134 1496 1168 856 509 1440 1985 1621 696 448 443 445 440 625 640 553 598 263 279 235 89 0 0 0 132 82
0 0 0 0 0 0 0 0 0 0 0 0 0 0 0 0 0 0 0 0 0 0 378 553 358 417 364 0 84 1680 2054 2183 1147 647 515 565 501 673 907 760 455 472 295 128 17 6 9 85 74
0 0 0 0 0 0 0 0 0 0 0 0 0 0 0 0 0 0 0 0 0 0 0 96 37 58 5 0 240 953 2191 2033 2128 1481 1121 799 707 615 883 779 741 446 432 388 300 163 85 155 119
0 0 0 0 0 0 0 0 0 0 0 0 0 0 0 0 0 0 0 0 0 0 0 0 0 0 47 980 1948 2477 2511 2305 2056 2157 2097 1499 1091 892 813 859 816 729 536 374 430 222 122 115 85
0 0 0 0 0 0 0 0 0 0 0 0 0 0 0 0 0 0 0 0 0 0 0 0 0 0 26 0 0 1891 2234 2353 2293 2371 2357 2086 1758 1299 1156 1034 911 876 737 673 488 528 270 112 157
0 0 0 0 0 0 0 0 0 0 0 0 0 0 0 0 0 0 0 0 0 0 0 0 0 0 0 0 9 55 223 1070 2399 2648 2615 2572 2300 2124 1615 1380 1297 971 1012 949 731 612 581 447 568
0 0 0 0 0 0 0 0 0 0 0 0 0 0 0 0 0 0 0 0 0 0 0 0 0 0 0 0 0 0 4 76 809 1578 2033 2272 2518 2285 2027 1779 1528 1512 982 1276 1064 911 816 663 771
0 0 0 0 0 0 0 0 0 0 0 0 0 0 0 0 0 0 0 0 0 0 0 0 0 0 0 0 0 0 0 0 0 30 227 583 1769 2279 1815 1839 1725 1729 1595 1395 1699 1453 1136 926 784
0 0 0 0 0 0 0 0 0 0 0 0 0 0 0 0 0 0 0 0 0 0 0 0 0 0 0 0 0 0 0 0 0 0 0 0 6 274 1869 1862 1414 1059 777 615 1176 1229 1560 1382 960
0 0 0 0 0 0 0 0 0 0 0 0 0 0 0 0 0 0 0 0 0 0 0 0 0 0 0 0 0 0 0 0 0 0 0 0 0 0 50 37 0 14 30 23 525 601 1263 1479 1328
0 0 0 0 0 0 0 0 0 0 0 1 0 0 0 0 0 0 0 0 0 0 0 0 0 0 0 0 0 0 0 0 0 0 0 0 0 0 0 46 475 254 0 215 700 812 592 1082 1234
0 0 0 0 0 0 0 0 0 0 0 0 0 0 0 0 0 0 0 0 0 0 0 0 0 0 0 0 0 0 0 0 0 0 0 0 0 0 11 110 504 593 380 174 165 11 1 5 451
2 8 0 0 0 0 0 0 0 0 0 0 0 0 0 0 0 0 0 0 0 0 0 0 0 0 0 0 0 0 5 0 0 0 0 0 0 0 36 142 240 415 849 277 137 2 0 8 228
0 0 3 0 0 0 0 0 0 7 0 0 0 0 0 0 0 0 0 0 0 0 0 0 0 0 0 0 0 0 0 0 0 0 0 0 0 0 0 0 0 23 298 142 109 36 29 10 97
0 0 0 0 0 0 0 0 0 1 0 0 0 0 0 0 0 0 0 0 0 0 0 0 0 0 0 0 0 0 0 0 0 0 0 0 0 0 0 0 0 0 0 0 0 0 0 0 294
0 0 13 0 0 0 0 0 0 0 0 0 0 0 0 0 0 0 0 0 0 0 0 0 0 0 0 0 0 0 0 0 0 0 0 0 0 0 0 0 0 0 0 0 0 0 0 60 175

GFSSGP_con_mlcape_108.txt.gz
CAPE
0 0 0 0 0 0 0 0 0 0 0 0 106 410 443 1033 881 421 570 594 760 818 1161 1310 825 87 6 0 0 0 0 0 0 0 35 28 19 36 36 24 40 88 3 0 0 0 0 0 0
0 0 0 0 0 0 0 0 0 0 0 0 310 460 448 548 615 707 908 1150 772 796 1015 1129 807 54 0 0 0 0 6 4 7 24 96 176 159 120 105 65 42 12 0 0 0 0 0 0 0
0 0 0 0 0 0 0 0 0 0 0 0 11 51 339 527 838 875 1054 969 958 870 901 894 774 123 2 0 0 0 21 29 34 39 56 114 151 160 188 177 69 0 0 0 0 0 0 0 0
0 0 0 0 0 0 0 0 0 0 0 0 1 130 482 533 480 913 907 617 635 800 807 962 746 347 92 17 0 9 43 53 61 59 70 52 60 66 89 47 0 0 0 0 0 0 0 0 0
0 0 0 0 0 0 0 0 0 0 0 0 9 142 605 596 731 1064 652 324 207 712 850 937 769 539 247 59 28 54 87 66 58 71 75 78 46 37 38 2 0 0 0 0 0 0 0 0 0
0 0 0 0 0 0 0 0 0 0 0 0 108 185 296 728 741 903 760 257 258 344 706 953 984 778 473 272 142 162 145 125 122 67 60 78 75 57 53 15 0 0 0 0 0 0 0 0 0
0 0 0 0 0 0 0 0 0 0 0 0 40 97 36 243 752 816 829 470 305 278 386 715 996 1025 860 630 486 389 419 259 178 189 223 150 68 31 38 12 0 0 0 0 0 0 0 0 0
0 0 0 0 0 0 0 0 0 0 0 39 2 59 34 0 182 732 835 916 767 494 301 443 723 1062 1099 1059 904 773 704 632 418 257 227 292 200 102 16 0 0 0 0 0 0 0 0 0 0
0 0 0 0 0 0 0 0 0 0 0 0 0 35 0 0 0 615 1062 1234 1237 1059 416 321 439 592 787 977 1156 1129 1048 972 753 486 318 357 361 206 104 36 1 0 0 0 0 0 0 0 0
0 0 0 0 0 0 0 0 0 0 0 0 0 0 0 0 0 0 876 1168 1217 1188 624 410 429 451 495 743 1012 1171 1302 1320 1130 869 597 449 438 329 160 79 25 5 0 0 0 0 0 0 0
0 0 0 0 0 0 0 0 0 0 0 0 0 0 0 0 0 0 8 717 1145 1278 1003 587 367 414 381 603 733 955 1395 1408 1276 1059 823 524 463 439 304 119 67 50 19 0 0 0 0 0 0
0 0 0 0 0 0 0 0 0 0 0 0 0 0 0 0 0 0 0 0 584 1293 1186 828 453 380 407 571 432 472 664 852 959 1031 954 618 451 392 365 192 53 12 4 0 0 0 0 0 0
0 0 0 0 0 0 0 0 0 0 0 0 0 0 0 0 0 0 0 0 0 57 384 841 417 199 143 306 307 324 432 614 501 701 900 856 646 488 420 339 205 106 7 3 0 0 0 0 0
0 0 0 0 0 0 0 0 0 0 0 0 0 0 0 0 0 0 0 0 0 11 116 495 501 189 121 342 410 510 440 408 402 545 677 787 664 609 509 423 356 265 86 33 0 0 0 0 0
0 0 0 0 0 0 0 0 0 0 0 0 0 0 0 0 0 0 0 0 0 0 248 377 610 460 451 590 706 694 550 419 440 479 616 675 667 484 480 482 388 345 201 65 12 0 0 0 0
0 0 0 0 0 0 0 0 0 0 0 0 0 0 0 0 0 0 0 0 0 9 562 919 1010 684 814 720 276 269 1181 652 539 507 472 472 681 725 442 363 391 428 310 171 106 84 28 0 0
0 0 0 0 0 0 0 0 0 0 0 0 0 0 0 0 0 0 0 0 0 40 887 922 1008 1104 765 581 201 964 2049 1953 1257 715 511 468 464 541 630 445 508 594 527 311 236 262 160 3 2
0 0 0 0 0 0 0 0 0 0 0 0 0 0 0 0 0 0 0 0 0 0 243 88 47 340 377 359 202 199 898 1447 1849 1875 1489 1014 776 623 491 663 720 668 672 612 509 429 263 64 111
0 0 0 0 0 0 0 0 0 0 0 0 0 0 0 0 0 0 0 0 0 0 0 0 0 0 0 29 304 388 1258 1581 1534 1844 2036 1862 1840 1498 987 662 743 895 670 727 671 624 520 409 296
0 0 0 0 0 0 0 0 0 0 0 0 0 0 0 0 0 0 0 0 0 0 0 0 0 0 0 0 0 0 0 46 161 409 1221 2152 1943 1875 1722 1242 968 781 808 785 681 505 532 505 355
0 0 0 0 0 0 0 0 0 0 0 0 0 0 0 0 0 0 0 0 0 0 0 0 0 0 0 0 0 0 0 0 0 0 0 72 195 699 1614 1544 1205 990 879 869 720 514 486 441 400
0 0 0 0 0 0 0 0 0 0 0 0 0 0 0 0 0 0 0 0 0 0 0 0 0 0 0 0 0 0 0 0 0 0 0 0 0 0 7 62 1060 1360 1153 1015 763 796 552 425 393
0 0 0 0 0 0 0 0 0 0 0 0 0 0 0 0 0 0 0 0 0 0 0 0 0 0 0 0 0 0 0 0 0 0 0 0 0 0 0 0 0 228 947 725 304 563 268 55 241
0 0 0 0 0 0 0 0 0 0 0 0 0 0 0 0 0 0 0 0 0 0 0 0 0 0 0 0 0 0 0 0 0 0 0 0 0 0 0 0 9 68 113 348 201 17 6 42 208
0 0 0 0 0 0 0 0 0 0 0 0 0 0 0 0 0 0 0 0 0 0 0 0 0 0 0 0 0 0 0 0 0 0 0 0 0 0 0 0 0 56 103 52 0 0 0 0 263
0 0 0 0 0 0 0 0 0 0 0 0 0 0 0 0 0 0 0 0 0 0 0 0 0 0 0 0 0 0 0 0 0 0 0 0 0 0 0 0 0 0 124 214 114 49 0 0 60
0 0 0 0 0 0 0 0 0 0 0 0 0 0 0 0 0 0 0 0 0 0 0 0 0 0 0 0 0 0 0 0 0 0 0 0 0 0 0 0 0 0 0 10 69 101 154 103 78
0 0 0 0 0 0 0 0 0 0 0 0 0 0 0 0 0 0 0 0 0 0 0 0 0 0 0 0 0 0 0 0 0 0 0 0 0 0 0 0 0 0 0 0 0 67 108 83 21
0 0 0 0 0 0 0 0 0 0 0 0 0 0 0 0 0 0 0 0 0 0 0 0 0 0 0 0 0 0 0 0 0 0 0 0 0 0 0 0 0 0 0 0 0 0 0 28 38
0 0 0 0 0 0 0 0 0 0 0 0 0 0 0 0 0 0 0 0 0 0 0 0 0 0 0 0 0 0 0 0 0 0 0 0 0 0 0 0 0 0 0 0 0 0 0 0 0

GFSSGP_con_mlcape_111.txt.gz
CAPE
0 0 0 0 0 0 0 0 0 0 0 132 64 334 468 580 550 264 471 634 467 579 1015 1155 588 46 0 0 0 0 0 0 0 0 47 198 274 305 243 104 34 34 11 0 0 0 0 0 0
0 0 0 0 0 0 0 0 0 0 0 401 353 448 484 389 548 632 610 928 610 663 960 982 583 190 0 0 0 0 0 0 0 0 7 19 36 29 10 9 48 25 0 0 0 0 0 0 0
0 0 0 0 0 0 0 0 0 0 0 0 38 167 405 506 647 626 809 1089 715 751 991 856 485 327 0 0 0 0 0 0 9 26 25 24 36 56 56 38 17 0 0 0 0 0 0 0 0
0 0 0 0 0 0 0 0 0 0 0 0 41 233 447 572 698 857 1273 1117 539 686 910 910 349 268 28 0 0 0 0 0 0 56 110 150 162 148 106 56 0 0 0 0 0 0 0 0 0
0 0 0 0 0 0 0 0 0 0 0 21 80 427 577 694 842 1113 1053 691 257 587 763 805 281 110 59 0 0 0 0 0 0 0 32 98 142 124 136 73 6 0 0 0 0 0 0 0 0
0 0 0 0 0 0 0 0 0 0 0 63 200 354 353 912 838 728 457 296 535 503 740 626 313 91 86 27 5 11 5 13 43 26 16 0 0 33 49 24 5 0 0 0 0 0 0 0 0
0 0 0 0 0 0 0 0 0 0 0 0 81 18 228 897 902 519 215 374 487 634 641 563 547 333 220 133 82 86 106 97 96 100 91 68 21 8 3 0 0 0 0 0 0 0 0 0 0
0 0 0 0 0 0 0 0 0 0 0 0 31 10 71 596 964 619 312 408 425 538 553 533 562 608 334 230 165 186 183 155 167 165 157 123 93 76 76 30 5 0 0 0 0 0 0 0 0
0 0 0 0 0 0 0 0 0 0 0 0 0 1 10 155 828 776 562 575 343 381 419 553 566 681 629 495 445 358 383 360 272 230 195 235 202 143 96 67 30 39 8 0 0 0 0 0 0
0 0 0 0 0 0 0 0 0 0 0 0 0 0 0 333 842 901 883 751 401 147 180 486 617 710 803 905 934 872 841 836 658 502 405 340 303 223 148 89 61 35 26 14 0 0 0 0 0
0 0 0 0 0 0 0 0 0 0 0 0 0 0 0 0 324 880 853 928 855 551 277 377 710 836 774 955 1040 1004 1100 1088 989 781 526 341 343 410 451 266 171 177 121 70 14 3 1 1 0
0 0 0 0 0 0 0 0 0 0 0 0 0 0 0 0 0 0 357 916 1099 1142 842 411 547 666 714 945 935 763 1052 1084 1099 1065 880 490 319 284 391 345 237 139 104 0 24 2 0 0 0
0 0 0 0 0 0 0 0 0 0 0 0 0 0 0 0 0 0 0 0 376 1046 1214 930 539 554 587 694 793 780 919 917 821 815 948 812 496 393 374 413 370 281 198 57 0 0 0 0 0
0 0 0 0 0 0 0 0 0 0 0 0 0 0 0 0 0 0 0 0 0 17 245 982 920 639 510 532 490 493 586 627 646 650 811 966 760 617 509 528 499 477 350 238 120 1 0 0 0
0 0 0 0 0 0 0 0 0 0 0 0 0 0 0 0 0 0 0 0 0 0 0 202 610 691 390 321 475 389 331 415 460 573 863 943 987 816 729 625 595 590 488 376 277 152 8 0 0
0 0 0 0 0 0 0 0 0 0 0 0 0 0 0 0 0 0 0 0 0 0 0 70 473 583 367 251 357 485 509 475 519 516 580 780 941 925 748 651 580 569 481 408 345 321 203 80 45
0 0 0 0 0 0 0 0 0 0 0 0 0 0 0 0 0 0 0 0 0 0 50 235 552 630 479 310 390 700 1077 854 696 603 558 536 672 877 882 733 669 596 450 361 368 340 306 189 106
0 0 0 0 0 0 0 0 0 0 0 0 0 0 0 0 0 0 0 0 0 0 223 479 714 767 762 469 415 302 582 875 1448 1536 1208 752 696 614 586 666 694 645 557 467 402 442 308 236 187
0 0 0 0 0 0 0 0 0 0 0 0 0 0 0 0 0 0 0 0 0 139 428 771 956 932 795 721 774 698 729 723 1190 1760 1483 1490 1269 1093 793 787 787 716 677 652 591 514 499 417 200
0 0 0 0 0 0 0 0 0 0 0 0 0 0 0 0 0 0 0 0 0 2 95 286 491 525 725 779 593 387 350 228 182 97 1 52 0 112 371 876 869 901 822 812 769 624 533 450 341
0 0 0 0 0 0 0 0 0 0 0 0 0 0 0 0 0 0 0 0 0 0 0 0 0 0 0 0 0 0 0 0 0 0 0 0 0 0 0 0 6 269 688 914 893 760 588 524 348
0 0 0 0 0 0 0 0 0 0 0 0 0 0 0 0 0 0 0 0 0 0 0 0 0 0 0 0 0 0 0 0 0 0 0 0 0 0 0 0 0 27 287 532 878 916 725 515 391
0 0 0 0 0 0 0 0 0 0 0 0 0 0 0 0 0 0 0 0 0 0 0 0 0 0 0 0 0 0 0 0 0 0 0 0 0 0 0 0 0 0 0 254 699 831 722 607 553
0 0 0 0 0 0 0 0 0 0 0 0 0 0 0 0 0 0 0 0 0 0 0 0 0 0 0 0 0 0 0 0 0 0 0 0 0 0 0 0 0 0 0 11 32 99 210 306 238
0 0 0 0 0 0 0 0 0 0 0 0 0 0 0 0 0 0 0 0 0 0 0 0 0 0 0 0 0 0 0 0 0 0 0 0 0 0 0 0 0 0 0 0 0 0 0 0 0
0 0 0 0 0 0 0 0 0 0 0 0 0 0 0 0 0 0 0 0 0 0 0 0 0 0 0 0 0 0 0 0 0 0 0 0 0 0 0 0 0 0 0 0 0 0 0 0 0
0 0 0 0 0 0 0 0 0 0 0 0 0 0 0 0 0 0 0 0 0 0 0 0 0 0 0 0 0 0 0 0 0 0 0 0 0 0 0 0 0 0 0 0 0 0 0 0 55
3 0 0 0 0 0 0 0 0 0 0 0 0 0 0 0 0 0 0 0 0 0 0 0 0 0 0 0 0 0 0 0 0 0 0 0 0 0 0 0 0 0 0 0 0 0 0 0 0
0 0 0 0 0 0 0 0 0 0 0 0 0 0 0 0 0 0 0 0 0 0 0 0 0 0 0 0 0 0 0 0 0 0 0 0 0 0 0 0 0 0 0 0 0 0 0 0 0
0 0 0 0 0 0 0 0 0 0 0 0 0 0 0 0 0 0 0 0 0 0 0 0 0 0 0 0 0 0 0 0 0 0 0 0 0 0 0 0 0 0 0 0 0 0 0 0 0

GFSSGP_con_mlcape_114.txt.gz
CAPE
0 0 0 0 0 0 0 0 0 0 0 92 128 159 131 438 216 137 471 560 554 591 996 786 520 237 226 111 38 0 0 5 329 490 429 266 242 278 338 306 170 61 2 0 0 0 0 6 1
0 0 0 0 0 0 0 0 0 0 0 0 40 440 377 343 559 530 234 718 725 725 881 663 468 223 160 26 0 1 0 0 0 10 67 157 229 262 236 124 76 61 6 0 0 6 89 66 8
0 0 0 0 0 0 0 0 0 0 0 0 2 158 343 325 572 359 491 659 711 761 855 550 338 110 122 0 0 0 0 0 0 21 56 122 166 174 114 80 127 76 0 0 0 42 80 29 0
0 0 0 0 0 0 0 0 0 0 0 0 29 143 431 535 566 707 925 874 625 729 787 597 216 36 18 0 0 0 0 0 0 0 40 64 77 66 77 128 85 18 0 0 0 36 45 32 0
0 0 0 0 0 0 0 0 0 0 0 0 219 203 443 755 785 1160 800 889 456 643 734 688 178 17 0 0 0 0 0 0 0 0 0 13 50 119 119 96 38 0 0 0 0 20 44 55 38
0 0 0 0 0 0 0 0 0 0 0 0 58 234 472 843 901 1173 986 740 565 535 803 761 364 63 11 14 0 0 0 0 0 0 49 75 96 97 112 85 22 0 0 0 0 0 1 10 11
0 0 0 0 0 0 0 0 0 0 0 0 325 130 234 762 1056 1144 999 719 572 678 678 569 390 192 51 29 9 0 0 0 2 9 23 69 92 103 102 46 22 1 0 0 0 0 9 17 18
0 0 0 0 0 0 0 0 0 0 0 0 8 0 9 590 870 671 689 642 597 673 577 398 144 93 38 21 32 25 23 34 49 59 57 64 70 73 82 67 58 30 10 3 0 0 4 3 0
0 0 0 0 0 0 0 0 0 0 0 0 0 0 0 887 708 395 435 535 527 561 561 494 274 111 92 50 86 112 118 115 137 166 143 139 117 116 116 113 61 70 52 20 7 0 0 0 0
0 0 0 0 0 0 0 0 0 0 0 0 0 0 366 968 858 517 414 284 244 265 393 537 480 363 180 213 197 274 319 443 339 264 258 206 169 138 144 160 243 218 239 177 75 51 19 0 0
0 0 0 0 0 0 0 0 0 0 0 0 0 0 57 735 934 738 617 462 226 213 319 554 599 705 575 477 398 567 602 716 658 514 362 270 241 273 298 225 163 103 62 142 68 43 17 8 1
0 0 0 0 0 0 0 0 0 0 0 0 0 0 0 124 671 830 809 709 421 201 190 464 690 757 774 861 835 733 660 795 778 821 712 439 266 252 303 340 319 246 163 66 63 1 0 0 4
0 0 0 0 0 0 0 0 0 0 0 0 0 0 0 0 0 1 428 777 874 765 350 252 523 700 724 841 923 844 791 814 851 887 956 806 474 346 334 377 423 402 314 247 139 35 0 0 0
0 0 0 0 0 0 0 0 0 0 0 0 0 0 0 0 0 0 0 0 97 699 994 818 484 513 726 756 886 882 887 879 898 934 885 916 770 566 442 446 460 457 453 439 378 258 123 26 0
0 0 0 0 0 0 0 0 0 0 0 0 0 0 0 0 0 0 0 0 0 0 35 547 995 747 608 641 816 791 775 716 757 702 759 834 874 747 692 596 584 575 551 555 499 448 321 220 73
0 0 0 0 0 0 0 0 0 0 0 0 0 0 0 0 0 0 0 0 0 0 0 0 512 730 808 608 729 727 674 573 610 668 769 878 941 975 810 749 741 691 606 534 498 445 426 339 276
0 0 0 0 0 0 0 0 0 0 0 0 0 0 0 0 0 0 0 0 0 0 0 0 59 266 607 606 591 649 591 510 496 616 615 652 745 927 892 894 844 748 664 565 490 443 374 326 260
0 0 0 0 0 0 0 0 0 0 0 0 0 0 0 0 0 0 0 0 0 0 0 0 30 224 459 542 463 557 768 1067 1127 1019 893 723 608 604 710 850 845 729 671 624 563 515 410 351 319
0 0 0 0 0 0 0 0 0 0 0 0 0 0 0 0 0 0 0 0 0 0 0 0 162 328 474 431 340 429 597 636 679 1386 1378 1032 909 841 761 743 747 703 727 762 728 665 579 538 310
0 0 0 0 0 0 0 0 0 0 0 0 0 0 0 0 0 0 0 0 0 0 0 29 303 388 638 533 357 429 415 324 310 41 0 0 0 0 0 44 51 298 628 776 801 768 736 651 403
0 0 0 0 0 0 0 0 0 0 0 0 0 0 0 0 0 0 0 0 0 0 0 31 358 583 641 523 307 27 0 0 0 0 0 0 0 0 0 0 0 36 209 186 400 700 751 851 459
0 0 0 0 0 0 0 0 0 0 0 0 0 0 0 0 0 0 0 0 0 0 0 195 413 590 439 259 187 36 1 0 0 0 0 0 0 0 0 0 0 0 6 61 217 607 740 718 715
0 0 0 0 0 0 0 0 0 0 0 0 0 0 0 0 0 0 0 0 0 0 4 69 63 2 0 0 0 0 0 0 0 0 0 0 0 0 0 0 0 0 0 0 0 128 534 533 566
0 0 0 0 0 0 0 0 0 0 0 0 0 0 0 0 0 0 0 0 0 0 0 0 0 0 0 0 0 0 0 0 0 0 0 0 0 0 0 0 0 0 0 0 0 0 0 67 159
0 0 0 0 0 0 0 0 0 0 0 0 0 0 0 0 0 0 0 0 0 0 0 0 0 0 0 0 0 0 0 0 0 0 0 0 0 0 0 0 0 0 0 0 0 0 0 0 0
0 0 0 0 0 0 0 0 0 0 0 0 0 0 0 0 0 0 0 0 0 0 0 0 0 0 0 0 0 0 0 0 0 0 0 0 0 0 0 0 0 0 0 0 0 0 0 0 0
0 0 0 0 0 0 0 0 0 0 0 0 0 0 0 0 0 0 0 0 0 0 0 0 0 0 0 0 0 0 0 0 0 0 0 0 0 0 0 0 0 0 0 0 0 0 0 0 0
0 0 0 0 0 0 0 0 0 0 0 0 0 0 0 0 0 0 0 0 0 0 0 0 0 0 0 0 0 0 0 0 0 0 0 0 0 0 0 0 0 0 0 0 0 0 0 0 0
0 0 0 0 0 0 0 0 0 0 0 0 0 0 0 0 0 0 0 0 0 0 0 0 0 0 0 0 0 0 0 0 0 0 0 0 0 0 0 0 0 0 0 0 0 0 0 0 0
0 0 0 0 0 0 0 0 0 0 0 0 0 0 0 0 0 0 0 0 0 0 0 0 0 0 0 0 0 0 0 0 0 0 0 0 0 0 0 0 0 0 0 0 0 0 0 0 0

GFSSGP_con_mlcape_117.txt.gz
CAPE
0 0 0 0 0 0 0 0 0 0 0 0 0 52 98 296 190 267 779 1045 888 1214 1277 841 679 574 371 399 605 634 654 632 562 397 353 122 92 145 189 316 470 447 161 0 0 0 0 0 0
0 0 0 0 0 0 0 0 0 0 0 0 0 486 546 525 697 664 549 1028 923 1238 1055 794 634 680 380 87 207 482 616 649 600 572 407 202 179 165 232 291 228 125 11 0 0 0 45 33 50
0 0 0 0 0 0 0 0 0 0 0 0 0 274 497 328 795 312 626 969 973 1161 992 832 413 504 308 86 0 24 299 472 520 502 333 226 207 207 214 157 149 164 0 0 16 124 103 62 32
0 0 0 0 0 0 0 0 0 0 0 0 0 339 587 739 416 708 1002 1013 971 1133 970 740 263 247 212 92 18 0 0 1 59 123 135 141 111 138 129 114 146 94 0 0 45 139 100 80 55
0 0 0 0 0 0 0 0 0 0 0 0 156 281 635 935 1256 1380 828 996 830 1111 949 791 338 219 141 95 11 0 0 0 0 7 35 79 90 75 46 81 88 37 0 4 51 114 111 106 77
0 0 0 0 0 0 0 0 0 0 0 0 170 599 713 1273 1290 1505 1207 983 923 1022 1052 768 453 266 188 100 19 0 0 0 0 7 31 44 41 45 68 81 69 36 17 28 87 118 126 143 128
0 0 0 0 0 0 0 0 0 0 0 0 245 299 455 1260 1540 1653 1393 1155 1061 1158 1153 689 393 202 200 100 24 0 0 0 0 1 16 55 88 117 126 133 89 26 13 14 61 111 122 114 128
0 0 0 0 0 0 0 0 0 0 0 0 44 347 218 1084 1692 1601 1415 1102 1020 1144 1036 717 545 317 287 298 75 2 0 0 0 6 40 78 105 125 133 125 98 99 58 36 45 76 99 102 92
0 0 0 0 0 0 0 0 0 0 0 0 0 0 0 1134 1301 1290 1107 977 917 1006 1098 865 450 449 311 319 361 98 42 17 14 15 21 26 55 93 134 106 95 81 71 72 23 1 0 0 0
0 0 0 0 0 0 0 0 0 0 0 0 0 151 679 1092 1027 891 656 467 522 619 876 967 688 515 377 256 482 440 379 262 234 256 361 171 235 205 149 159 128 93 86 23 20 2 0 0 0
0 0 0 0 0 0 0 0 0 0 0 0 0 234 1083 1248 927 733 604 437 333 564 819 998 1021 811 477 258 528 619 574 707 763 705 663 647 508 429 309 311 274 311 229 211 140 127 44 27 0
0 0 0 0 0 0 0 0 0 0 0 0 0 0 796 1153 1180 944 787 671 581 549 728 1019 1182 1100 827 591 596 608 586 845 806 774 852 698 549 551 578 614 592 540 382 327 270 146 137 39 26
0 0 0 0 0 0 0 0 0 0 0 0 0 0 0 85 904 1104 1132 1045 821 568 492 763 1165 1220 1187 1188 1028 994 937 971 1008 1027 1019 970 725 677 645 666 772 777 713 584 477 364 246 120 62
0 0 0 0 0 0 0 0 0 0 0 0 0 0 0 0 0 0 114 535 1076 1122 805 621 724 1104 1296 1209 1488 1387 1376 1245 1247 1211 1015 995 1002 1053 839 823 786 808 852 834 805 699 623 479 307
0 0 0 0 0 0 0 0 0 0 0 0 0 0 0 0 0 0 0 0 0 256 978 1224 868 1087 1184 1242 1527 1425 1413 1300 1265 1173 1051 1001 903 992 1158 1098 1051 1019 1080 1018 946 832 794 699 610
0 0 0 0 0 0 0 0 0 0 0 0 0 0 0 0 0 0 0 0 0 0 54 1061 1317 1212 1231 1273 1463 1439 1368 1344 1279 1078 931 848 970 1042 1339 1313 1193 1279 1120 955 940 935 859 828 754
0 0 0 0 0 0 0 0 0 0 0 0 0 0 0 0 0 0 0 0 0 0 0 0 544 1013 1303 1410 1313 1391 1363 1335 1260 1291 1209 1141 1296 1310 1599 1440 1469 1581 1346 1142 1009 1053 922 894 895
0 0 0 0 0 0 0 0 0 0 0 0 0 0 0 0 0 0 0 0 0 0 0 0 10 179 950 1262 1258 1344 1332 1238 1112 944 1029 1089 1090 1080 1252 1471 1475 1419 1293 1339 1317 1147 1204 936 942
0 0 0 0 0 0 0 0 0 0 0 0 0 0 0 0 0 0 0 0 0 0 0 0 0 126 419 652 1020 1294 1269 1285 1425 1636 1631 1570 1657 1430 1323 1327 1251 1279 1235 1297 1301 1213 1115 1128 1110
0 0 0 0 0 0 0 0 0 0 0 0 0 0 0 0 0 0 0 0 0 0 0 0 84 267 400 786 1050 915 906 1097 1303 1205 725 337 246 282 284 334 332 376 537 743 1004 1202 1194 1183 1295
0 0 0 0 0 0 0 0 0 0 0 0 0 0 0 0 0 0 0 0 0 0 0 0 173 375 699 777 352 335 338 282 98 116 0 0 0 0 0 0 4 108 274 271 545 656 668 836 1065
0 0 0 0 0 0 0 0 0 0 0 0 0 0 0 0 0 0 0 0 0 0 0 46 397 652 643 447 445 478 503 320 2 0 0 0 0 0 0 0 0 10 33 29 113 271 580 623 735
0 0 0 0 0 0 0 0 0 0 0 0 0 0 0 0 0 0 0 0 0 0 0 36 302 535 532 552 516 353 135 0 0 0 0 0 0 8 22 40 0 0 11 73 153 274 389 484 396
0 0 0 0 0 0 0 0 0 0 0 0 0 0 0 0 0 0 0 0 0 0 0 13 263 376 383 305 215 106 0 0 0 0 0 0 1 40 41 10 9 8 0 0 0 13 111 159 142
0 0 0 0 0 0 0 0 0 0 0 0 0 0 0 0 0 0 0 0 0 0 0 0 73 64 2 0 0 0 0 0 0 0 0 0 0 1 1 2 0 0 0 0 0 0 0 0 0
0 0 0 0 0 0 0 0 0 0 0 0 0 0 0 0 0 0 0 0 0 0 0 0 0 0 0 0 0 0 0 0 0 0 0 0 0 0 0 0 0 0 0 0 0 0 0 0 0
0 0 0 0 0 0 0 0 0 0 0 0 0 0 0 0 0 0 0 0 0 0 0 0 0 0 0 0 0 0 0 0 0 0 0 0 0 0 0 0 0 0 0 0 0 0 0 0 0
0 0 0 0 0 0 0 0 0 0 0 0 0 0 0 0 0 0 0 0 0 0 0 0 0 0 0 0 0 0 0 0 0 0 0 0 0 0 0 0 0 0 0 0 0 0 0 0 0
0 0 0 0 0 0 0 0 0 0 0 0 0 0 0 0 0 0 0 0 0 0 0 0 0 0 0 0 0 0 0 0 0 0 0 0 0 0 4 5 0 0 0 0 0 0 0 0 0
0 0 1 9 0 0 0 0 0 0 0 0 0 0 0 0 0 0 0 0 0 0 0 0 0 0 0 0 0 0 0 0 0 0 0 0 0 0 0 0 0 0 0 0 0 0 0 0 0

GFSSGP_con_mlcape_120.txt.gz
CAPE
0 0 0 0 0 0 0 16 0 0 0 0 0 93 177 357 553 1305 1544 643 423 1023 1531 835 610 678 968 1232 1273 911 761 574 202 72 52 60 27 79 157 377 747 759 252 0 0 0 0 29 8
0 0 0 0 0 0 0 3 0 0 0 0 0 585 568 859 1193 1438 1225 826 754 1301 1337 697 521 606 731 1134 1188 932 856 646 323 64 92 47 92 152 157 272 519 411 7 0 0 0 15 29 46
0 0 0 0 0 0 3 0 0 0 0 0 6 619 767 827 1248 638 662 903 786 1222 1063 830 459 431 442 650 824 814 795 678 391 338 219 107 88 112 123 220 219 79 12 0 7 47 38 33 99
0 0 0 0 0 0 6 5 0 0 0 0 0 532 936 1025 727 837 843 735 839 874 986 1038 482 358 251 401 647 738 711 661 586 489 236 94 97 51 44 49 68 104 24 23 94 188 88 66 83
0 0 0 0 0 0 0 0 0 0 0 0 2 221 918 1456 1512 963 845 622 571 752 968 895 619 414 163 60 192 460 563 560 534 422 195 107 54 59 47 54 81 79 27 58 141 213 127 91 85
0 0 0 0 0 0 0 0 0 0 0 0 35 201 973 1866 2030 1156 957 574 506 869 1021 789 704 369 194 40 0 0 11 45 116 82 81 69 49 47 47 66 83 75 48 86 168 243 187 152 122
0 0 0 0 0 0 0 0 0 0 0 0 111 114 1070 1789 2254 1534 1333 800 724 1017 997 762 404 481 304 131 4 0 0 0 0 1 24 32 42 40 55 84 73 47 45 71 155 196 182 184 178
0 0 0 0 0 0 0 0 0 0 0 0 6 121 286 1846 2305 1888 1723 1139 824 916 887 679 275 195 210 242 121 14 0 0 0 0 11 14 29 57 90 103 68 45 17 7 8 50 69 73 58
0 0 0 0 0 0 0 0 0 0 0 0 1 18 470 2232 2229 1913 1698 1144 680 689 866 629 335 190 168 187 221 83 15 8 2 6 27 45 34 114 212 72 120 34 13 0 0 0 0 0 0
0 0 0 0 0 0 0 0 0 0 0 0 0 462 831 1925 1934 1760 1495 1026 767 707 741 713 518 371 266 227 420 138 91 5 0 4 92 11 1 25 10 56 41 33 42 21 0 0 0 0 0
0 0 0 0 0 0 0 0 0 0 0 0 0 110 1255 1653 1719 1373 1038 808 659 594 662 815 992 733 525 345 505 320 346 262 290 307 481 116 181 217 83 75 120 95 64 50 54 27 0 0 0
0 0 0 0 0 0 0 0 0 0 0 0 0 0 1539 1524 1363 1036 961 877 714 665 644 858 1358 1282 867 460 455 575 593 634 775 860 1076 791 887 736 576 431 413 475 326 207 165 84 56 34 28
0 0 0 0 0 0 0 0 0 0 0 0 0 0 351 1632 1407 1190 1185 1159 1105 916 902 1010 1249 1653 1410 911 649 737 784 816 981 1089 1183 976 944 850 974 896 965 929 923 900 906 731 590 499 392
0 0 0 0 0 0 0 0 0 0 0 0 0 0 0 139 1003 1498 1593 1610 1580 1511 1364 1162 1389 1680 1854 1649 1287 1169 1160 1022 1177 1234 1291 1446 1270 1129 1137 1186 1162 1076 1094 1097 1087 1038 1083 1173 1134
15 24 15 0 0 0 1 0 0 0 0 0 0 0 0 0 0 1 41 350 598 1060 1578 1630 1559 1797 2055 1996 1932 1843 1564 1461 1366 1324 1525 1632 1526 1490 1444 1106 1074 1086 1239 1319 1200 1125 1147 1093 896
7 0 0 0 0 0 0 0 0 0 0 0 0 0 0 0 0 0 0 0 0 8 490 1501 1441 1624 2063 2031 1992 1883 1689 1676 1496 1428 1508 1475 1465 1439 1529 1246 1408 1450 1618 1602 1444 1294 1267 1272 1209
0 0 0 0 0 0 0 0 0 0 0 0 0 0 0 0 0 0 0 0 0 0 60 710 1460 1515 1922 2228 2017 2006 1866 1855 1701 1551 1406 1499 1432 1410 1540 1541 1735 2002 1871 1799 1749 1695 1655 1460 1449
0 0 0 0 0 0 0 0 0 0 0 0 0 0 0 0 0 0 0 0 0 0 0 0 475 1350 1932 2195 2323 2075 1971 1975 1820 1634 1367 1485 1670 1847 2052 1937 2054 2089 1815 1735 1691 1696 1647 1516 1487
0 0 0 0 0 0 0 0 0 0 0 0 0 0 0 0 0 0 0 0 0 0 0 0 0 620 1579 1484 1521 1580 1698 1845 1924 1570 1342 1576 1835 1961 2076 1766 1855 2210 1886 1889 1967 1960 1724 1543 1364
0 0 0 0 0 0 0 0 0 0 0 0 0 0 0 0 0 0 0 0 0 0 0 0 37 797 1537 1259 1375 1614 1832 2011 2002 1476 1943 2211 2238 2103 1979 1797 1339 1219 636 1103 1250 1462 1477 880 1203
0 0 0 0 0 0 0 0 0 0 0 0 0 0 0 0 0 0 0 0 0 0 0 0 61 795 1577 1251 1793 1851 2039 1880 1822 1905 1640 1052 694 561 337 287 104 213 231 8 260 428 606 298 250
0 0 0 0 0 0 0 0 0 0 0 0 0 0 0 0 0 0 0 0 0 0 0 22 287 1146 1664 1777 1416 1463 1360 1429 1031 1080 500 205 45 42 64 31 31 69 18 19 31 125 287 308 150
0 0 0 0 0 0 0 0 0 0 0 0 0 0 0 0 0 0 0 0 0 0 0 73 486 1284 1580 1798 1207 1383 1332 1108 619 373 152 32 85 56 14 21 22 19 0 0 38 23 85 58 26
0 0 0 0 0 0 0 0 0 0 0 0 0 0 0 0 0 0 0 0 0 0 0 40 467 1052 1468 1351 1413 1427 1355 606 277 98 34 11 19 45 37 21 24 0 0 0 0 0 0 13 0
0 0 0 0 0 0 0 0 0 0 0 0 0 0 0 0 0 0 0 0 0 0 0 47 379 802 1112 1370 1293 1013 524 227 82 30 0 0 0 0 18 34 3 0 0 0 0 0 0 0 0
0 0 0 0 0 0 0 0 0 0 0 0 0 0 0 0 0 0 0 0 0 0 0 37 306 540 668 766 614 339 216 14 0 4 0 0 0 0 0 55 2 0 0 0 0 0 0 0 0
0 0 0 0 0 0 0 0 0 0 0 0 0 0 0 0 0 0 0 0 0 52 109 177 278 226 34 0 2 38 72 7 0 3 46 0 0 0 2 63 48 16 0 0 0 0 0 0 0
4 0 0 0 0 0 0 0 0 0 0 0 0 0 0 0 0 0 0 0 0 0 0 0 0 6 10 5 3 4 11 23 26 38 70 87 57 62 40 34 86 44 3 0 0 0 0 0 0
0 0 0 0 0 0 0 1 6 16 0 0 0 0 0 0 0 0 0 0 0 0 0 0 0 0 0 0 0 0 0 0 0 0 1 16 60 104 92 99 70 59 43 37 19 6 0 0 0
5 0 0 0 3 0 6 24 5 0 0 0 0 0 0 0 0 0 0 0 0 0 0 0 0 0 0 0 0 0 0 0 0 0 0 0 1 9 6 1 9 31 61 71 72 54 21 0 0

GFSSGP_con_mlcape_123.txt.gz
CAPE
0 0 0 0 0 0 0 0 35 6 0 0 0 3 284 66 905 1559 1630 296 457 1347 1477 938 702 977 1366 1519 1187 574 466 346 149 69 87 162 363 331 369 742 831 465 155 148 49 0 0 0 0
0 0 0 0 0 0 0 8 43 5 0 0 0 74 185 1059 1392 984 869 283 735 1318 1288 1072 606 680 1054 1243 1133 702 616 475 132 61 124 176 218 131 179 482 698 362 8 0 0 0 8 8 8
0 0 0 0 0 0 8 12 53 17 0 0 8 415 583 1264 1299 1416 822 541 1061 1116 995 1270 565 581 1014 1303 1109 830 740 446 83 68 143 174 140 58 81 265 376 127 0 0 9 40 32 59 81
0 0 0 0 0 0 0 16 33 15 0 0 0 378 1095 1072 752 873 564 579 817 799 854 932 511 546 723 1083 1137 898 790 462 122 130 192 160 87 26 64 168 95 34 9 11 44 89 63 59 95
0 0 0 0 0 0 0 42 18 0 0 0 0 296 1252 1587 1249 773 506 556 613 652 1159 638 491 438 565 894 1013 884 803 632 363 411 237 147 47 0 22 28 36 47 12 47 153 190 100 90 91
0 0 0 0 0 0 38 53 17 0 0 0 0 173 1172 1757 1189 967 578 468 598 791 1315 579 533 357 297 461 738 777 715 665 559 464 246 106 15 20 15 18 30 28 0 26 104 177 123 92 71
0 0 0 0 0 0 5 5 23 1 0 0 0 80 1683 1671 1371 1174 791 599 766 900 1020 548 325 449 222 152 264 471 509 502 449 301 91 14 6 12 12 17 37 34 14 22 75 81 75 58 70
0 0 0 0 0 1 38 2 22 0 1 1 4 164 1385 1758 1608 1413 937 742 881 815 954 606 276 215 123 58 14 0 2 15 36 0 0 7 15 26 15 38 30 22 4 0 13 16 20 25 41
0 0 0 0 0 0 0 0 0 0 0 0 0 360 1661 2192 1728 1532 1192 955 892 669 858 541 338 191 118 89 114 7 0 1 1 9 41 9 0 14 159 31 92 7 0 0 0 0 1 0 0
0 0 0 0 0 0 0 0 0 0 0 0 0 82 1948 2114 1663 1451 1317 1033 860 703 656 508 330 310 222 171 378 20 3 0 0 0 18 0 0 53 22 70 31 60 7 3 0 0 0 0 0
0 0 0 3 0 0 0 0 0 0 0 0 0 29 1057 1664 1463 1124 1062 871 829 767 646 604 505 543 320 236 629 126 127 14 0 0 83 0 0 0 0 55 98 37 10 18 10 5 0 0 0
6 0 0 0 8 0 0 0 0 0 0 0 0 0 435 1214 1362 1095 925 823 846 777 727 820 783 844 677 386 532 401 355 348 334 294 406 158 119 143 97 4 75 137 75 120 36 94 80 47 26
17 5 0 1 0 0 0 0 0 0 0 0 0 0 171 840 1022 977 742 717 646 657 711 816 1173 1305 1309 1087 555 665 568 604 662 765 967 1117 888 850 807 572 444 367 412 379 525 390 456 387 424
97 22 5 0 0 0 0 0 0 0 0 0 0 0 0 791 988 948 962 878 881 951 1102 1094 1326 1893 1771 1522 1245 891 983 924 917 977 1075 1457 1256 1374 1035 1127 1056 933 724 644 642 715 852 1079 1142
93 1 1 0 0 0 13 0 0 0 0 0 0 0 0 0 501 1088 999 1226 1280 1353 1378 1483 1689 2064 2300 2017 1635 1473 1231 1142 1123 1072 1302 1663 1670 1497 1339 962 878 743 974 1025 978 989 933 965 856
97 1 0 0 1 9 0 0 0 0 1 0 0 0 0 0 0 2 45 1327 1603 1316 1306 1672 1428 1842 2544 2518 2287 1870 1637 1716 1506 1521 1398 1608 1757 1824 1666 1177 1168 1468 1683 1590 1530 1485 1267 1201 1188
137 5 0 2 9 24 0 0 0 0 0 0 0 0 0 0 0 0 0 0 0 37 234 713 1093 1082 2346 2874 2670 2487 2351 2091 1996 1842 1616 1832 1625 1634 1578 1379 1684 1953 1673 1378 1323 1351 1453 1264 1232
27 17 4 1 41 25 0 0 0 0 0 0 0 0 0 0 0 0 0 0 0 0 2 174 541 1013 1648 2275 2674 2279 2094 2323 2076 2144 1720 1531 1557 1555 1692 1728 1659 2125 1809 1210 1128 1361 1127 1315 1207
21 0 10 9 1 0 0 0 0 0 0 0 0 0 0 0 0 0 0 0 0 0 0 16 118 1026 1292 1361 1450 1481 1285 1380 1569 1582 1822 1516 1654 1684 2155 2128 2224 2037 1574 1264 1452 1514 1468 1199 989
0 0 0 0 0 0 0 0 0 0 0 0 0 0 0 0 0 0 0 0 0 0 0 0 52 447 1385 1151 1159 683 789 851 1003 1349 1907 1659 1755 2161 2166 2124 1545 1506 1105 1367 1294 1104 874 504 368
0 0 0 0 0 0 0 0 0 0 0 0 0 0 0 0 0 0 0 0 0 0 0 0 57 690 1319 1070 1206 1324 1409 1541 1370 1648 1916 1920 2053 1868 2024 1866 1370 536 561 32 443 509 552 342 272
0 0 0 0 0 0 0 0 0 0 0 0 0 0 0 0 0 0 0 0 0 0 0 0 9 521 1532 1592 987 1677 1336 984 911 1427 2030 1984 1773 1432 823 305 153 212 71 167 161 115 217 214 43
0 0 0 2 1 0 0 0 0 0 0 0 0 0 0 0 0 0 0 0 0 0 0 0 71 687 1233 1846 1608 1669 1675 642 1185 1600 1915 1173 486 155 72 61 61 163 97 14 114 43 52 62 27
0 1 0 0 2 0 0 0 0 0 0 0 0 0 0 0 0 0 0 0 0 0 0 0 248 783 1452 1875 2181 1831 1817 1511 922 1160 743 319 184 87 36 38 96 88 31 15 1 25 55 86 34
0 13 1 0 0 0 0 0 0 0 0 0 0 0 0 0 0 0 0 0 4 2 26 33 228 840 1375 1810 1677 1741 1947 2059 1225 707 356 140 39 19 106 137 164 55 46 3 1 0 0 0 0
0 0 0 0 0 0 0 0 0 9 0 0 0 0 0 0 0 0 0 0 0 12 76 95 227 710 1097 1238 1272 1511 1681 1526 713 418 116 10 2 10 298 303 111 93 9 47 7 0 0 0 0
2 0 0 0 15 17 0 26 13 0 0 0 0 0 0 0 0 0 0 62 182 244 287 267 370 578 796 1069 1427 1309 977 414 147 11 45 7 6 0 5 60 204 90 81 34 36 1 0 0 0
0 0 0 0 2 6 0 0 3 0 0 0 1 0 0 0 0 0 0 0 24 110 99 114 147 165 119 110 136 144 156 129 157 181 207 102 136 59 68 31 97 215 153 152 131 18 8 4 0
0 0 0 10 17 51 24 29 33 0 0 15 10 3 0 0 0 0 0 0 0 0 0 0 0 0 0 0 0 0 0 0 7 20 31 30 67 152 187 196 142 118 240 321 263 217 128 71 73
6 9 0 7 6 12 53 36 14 12 39 65 3 0 0 0 0 0 0 0 0 0 0 0 0 0 0 0 0 0 0 0 0 6 9 20 44 78 95 92 82 90 98 248 345 218 237 182 125